[[{"header":{"parameterUnit":"m.s-1","parameterCategory":1,"la1":31.0,"la2":29.5877,"lo1":-88.7671,"lo2":-86.6584,"dy":0.0162,"dx":0.0185,"nx":115,"ny":88,"refTime":"2025-12-05T12:00:00:Z","depth":0,"parameterNumber":2,"parameterNumberName":"U-component_of_WINDS"},"data":[0.0,0.0,0.0,0.0,0.0,0.0,0.0,0.0,0.0,0.0,0.0,0.0,0.0,0.0,0.0,0.0,0.0,0.0,0.0,0.0,0.0,0.0,0.0,0.0,0.0,0.0,0.0,0.0,0.0,0.0,0.0,0.0,0.0,0.0,0.0,0.0,0.0,0.0,0.0,0.0,0.0,0.0,0.0,0.0,0.0,0.0,0.0,0.0,0.0,0.0,0.0,0.0,0.0,0.0,0.0,0.0,0.0,0.0,0.0,0.0,0.0,0.0,0.0,0.0,0.0,0.0,0.0,0.0,0.0,0.0,0.0,0.0,0.0,0.0,0.0,0.0,0.0,0.0,0.0,0.0,0.0,0.0,0.0,0.0,0.0,0.0,0.0,0.0,0.0,0.0,0.0,0.0,0.0,0.0,0.0,0.0,0.0,0.0,0.0,0.0,0.0,0.0,0.0,0.0,0.0,0.0,0.0,0.0,0.0,0.0,0.0,0.0,0.0,0.0,0.0,0.0,0.0,0.0,0.0,0.0,0.0,0.0,0.0,0.0,0.0,0.0,0.0,0.0,0.0,0.0,0.0,0.0,0.0,0.0,0.0,0.0,0.0,0.0,0.0,0.0,0.0,0.0,0.0,0.0,0.0,0.0,0.0,0.0,0.0,0.0,0.0,0.0,0.0,0.0,0.0,0.0,0.0,0.0,0.0,0.0,0.0,0.0,0.0,0.0,0.0,0.0,0.0,0.0,0.0,0.0,0.0,0.0,0.0,0.0,0.0,0.0,0.0,0.0,0.0,0.0,0.0,0.0,0.0,0.0,0.0,0.0,0.0,0.0,0.0,0.0,0.0,0.0,0.0,0.0,0.0,0.0,0.0,0.0,0.0,0.0,0.0,0.0,0.0,0.0,0.0,0.0,0.0,0.0,0.0,0.0,0.0,0.0,0.0,0.0,0.0,0.0,0.0,0.0,0.0,0.0,0.0,0.0,0.0,0.0,0.0,0.0,0.0,0.0,0.0,0.0,0.0,0.0,0.0,0.0,0.0,0.0,0.0,0.0,0.0,0.0,0.0,0.0,0.0,0.0,0.0,0.0,0.0,0.0,0.0,0.0,0.0,0.0,0.0,0.0,0.0,0.0,0.0,0.0,0.0,0.0,0.0,0.0,0.0,0.0,0.0,0.0,0.0,0.0,0.0,0.0,0.0,0.0,0.0,0.0,0.0,0.0,0.0,0.0,0.0,0.0,0.0,0.0,0.0,0.0,0.0,0.0,0.0,0.0,0.0,0.0,0.0,0.0,0.0,0.0,0.0,0.0,0.0,0.0,0.0,0.0,0.0,0.0,0.0,0.0,0.0,0.0,0.0,0.0,0.0,0.0,0.0,0.0,0.0,0.0,0.0,0.0,0.0,0.0,0.0,0.0,0.0,0.0,0.0,0.0,0.0,0.0,0.0,0.0,0.0,0.0,0.0,0.0,0.0,0.0,0.0,0.0,0.0,0.0,0.0,0.0,0.0,0.0,0.0,0.0,0.0,0.0,0.0,0.0,0.0,0.0,0.0,0.0,0.0,0.0,0.0,0.0,0.0,0.0,0.0,0.0,0.0,0.0,0.0,0.0,0.0,0.0,0.0,0.0,0.0,0.0,0.0,0.0,0.0,0.0,0.0,0.0,0.0,0.0,0.0,0.0,0.0,0.0,0.0,0.0,0.0,0.0,0.0,0.0,0.0,0.0,0.0,0.0,0.0,0.0,0.0,0.0,0.0,0.0,0.0,0.0,0.0,0.0,0.0,0.0,0.0,0.0,0.0,0.0,0.0,0.0,0.0,0.0,0.0,0.0,0.0,0.0,0.0,0.0,0.0,0.0,0.0,0.0,0.0,0.0,0.0,0.0,0.0,0.0,0.0,0.0,0.0,0.0,0.0,0.0,0.0,0.0,0.0,0.0,0.0,0.0,0.0,0.0,0.0,0.0,0.0,0.0,0.0,0.0,0.0,0.0,0.0,0.0,0.0,0.0,0.0,0.0,0.0,0.0,0.0,0.0,0.0,0.0,0.0,0.0,0.0,0.0,0.0,0.0,0.0,0.0,0.0,0.0,0.0,0.0,0.0,0.0,0.0,0.0,0.0,0.0,0.0,0.0,0.0,0.0,0.0,0.0,0.0,0.0,0.0,0.0,0.0,0.0,0.0,0.0,0.0,0.0,0.0,0.0,0.0,0.0,0.0,0.0,0.0,0.0,0.0,0.0,0.0,0.0,0.0,0.0,0.0,0.0,0.0,0.0,0.0,0.0,0.0,0.0,0.0,0.0,0.0,0.0,0.0,0.0,0.0,0.0,0.0,0.0,0.0,0.0,0.0,0.0,0.0,0.0,0.0,0.0,0.0,0.0,0.0,0.0,0.0,0.0,0.0,0.0,0.0,0.0,0.0,0.0,0.0,0.0,0.0,0.0,0.0,0.0,0.0,0.0,0.0,0.0,0.0,0.0,0.0,0.0,0.0,0.0,0.0,0.0,0.0,0.0,0.0,0.0,0.0,0.0,0.0,0.0,0.0,0.0,0.0,0.0,0.0,0.0,0.0,0.0,0.0,0.0,0.0,0.0,0.0,0.0,0.0,0.0,0.0,0.0,0.0,0.0,0.0,0.0,0.0,0.0,0.0,0.0,0.0,0.0,0.0,0.0,0.0,0.0,0.0,0.0,0.0,0.0,0.0,0.0,0.0,0.0,0.0,0.0,0.0,0.0,0.0,0.0,0.0,0.0,0.0,0.0,0.0,0.0,0.0,0.0,0.0,0.0,0.0,0.0,0.0,0.0,0.0,0.0,0.0,0.0,0.0,0.0,0.0,0.0,0.0,0.0,0.0,0.0,0.0,0.0,0.0,0.0,0.0,0.0,0.0,0.0,0.0,0.0,0.0,0.0,0.0,0.0,0.0,0.0,0.0,0.0,0.0,0.0,0.0,0.0,0.0,0.0,0.0,0.0,0.0,0.0,0.0,0.0,0.0,0.0,0.0,0.0,0.0,0.0,0.0,0.0,0.0,0.0,0.0,0.0,0.0,0.0,0.0,0.0,0.0,0.0,0.0,0.0,0.0,0.0,0.0,0.0,0.0,0.0,0.0,0.0,0.0,0.0,0.0,0.0,0.0,0.0,0.0,0.0,0.0,0.0,0.0,0.0,0.0,0.0,0.0,0.0,0.0,0.0,0.0,0.0,0.0,0.0,0.0,0.0,0.0,0.0,0.0,0.0,0.0,0.0,0.0,0.0,0.0,0.0,0.0,0.0,0.0,0.0,0.0,0.0,0.0,0.0,0.0,0.0,0.0,0.0,0.0,0.0,0.0,0.0,0.0,0.0,0.0,0.0,0.0,0.0,0.0,0.0,0.0,0.0,0.0,0.0,0.0,0.0,0.0,0.0,0.0,0.0,0.0,0.0,0.0,0.0,0.0,0.0,0.0,0.0,0.0,0.0,0.0,0.0,0.0,0.0,0.0,0.0,0.0,0.0,0.0,0.0,0.0,0.0,0.0,0.0,0.0,0.0,0.0,0.0,0.0,0.0,0.0,0.0,0.0,0.0,0.0,0.0,0.0,0.0,0.0,0.0,0.0,0.0,0.0,0.0,0.0,0.0,0.0,0.0,0.0,0.0,0.0,0.0,0.0,0.0,0.0,0.0,0.0,0.0,0.0,0.0,0.0,0.0,0.0,0.0,0.0,0.0,0.0,0.0,0.0,0.0,0.0,0.0,0.0,0.0,0.0,0.0,0.0,0.0,0.0,0.0,0.0,0.0,0.0,0.0,0.0,0.0,0.0,0.0,0.0,0.0,0.0,0.0,0.0,0.0,0.0,0.0,0.0,0.0,0.0,0.0,0.0,0.0,0.0,0.0,0.0,0.0,0.0,0.0,0.0,0.0,0.0,0.0,0.0,0.0,0.0,0.0,0.0,0.0,0.0,0.0,0.0,0.0,0.0,0.0,0.0,0.0,0.0,0.0,0.0,0.0,0.0,0.0,0.0,0.0,0.0,0.0,0.0,0.0,0.0,0.0,0.0,0.0,0.0,0.0,0.0,0.0,0.0,0.0,0.0,0.0,0.0,0.0,0.0,0.0,0.0,0.0,0.0,0.0,0.0,0.0,0.0,0.0,0.0,0.0,0.0,0.0,0.0,0.0,0.0,0.0,0.0,0.0,0.0,0.0,0.0,0.0,0.0,0.0,0.0,0.0,0.0,0.0,0.0,0.0,0.0,0.0,0.0,0.0,0.0,0.0,0.0,0.0,0.0,0.0,-2.1619,0.0,0.0,0.0,0.0,0.0,0.0,0.0,0.0,0.0,0.0,0.0,0.0,0.0,0.0,0.0,0.0,0.0,0.0,0.0,0.0,0.0,0.0,0.0,0.0,0.0,0.0,0.0,0.0,0.0,0.0,0.0,0.0,0.0,0.0,0.0,0.0,0.0,0.0,0.0,0.0,0.0,0.0,0.0,0.0,0.0,0.0,0.0,0.0,0.0,0.0,0.0,0.0,0.0,0.0,0.0,0.0,0.0,0.0,0.0,0.0,0.0,0.0,0.0,0.0,0.0,0.0,0.0,0.0,0.0,0.0,0.0,0.0,0.0,0.0,0.0,0.0,0.0,0.0,0.0,0.0,0.0,0.0,0.0,0.0,0.0,0.0,0.0,0.0,0.0,0.0,0.0,0.0,0.0,0.0,0.0,0.0,0.0,0.0,0.0,0.0,0.0,0.0,0.0,0.0,0.0,0.0,0.0,0.0,0.0,0.0,-2.1651,-2.1894,-2.1537,-2.1229,-2.0991,0.0,0.0,0.0,0.0,0.0,0.0,0.0,0.0,0.0,0.0,0.0,0.0,0.0,0.0,0.0,0.0,0.0,0.0,0.0,0.0,0.0,0.0,0.0,0.0,0.0,0.0,0.0,0.0,0.0,0.0,0.0,0.0,0.0,0.0,0.0,0.0,0.0,0.0,0.0,0.0,0.0,0.0,0.0,0.0,0.0,0.0,0.0,0.0,0.0,0.0,0.0,0.0,0.0,0.0,0.0,0.0,0.0,0.0,0.0,0.0,0.0,0.0,0.0,0.0,0.0,0.0,0.0,0.0,0.0,0.0,0.0,0.0,0.0,0.0,0.0,0.0,0.0,0.0,0.0,0.0,0.0,0.0,0.0,0.0,0.0,0.0,0.0,0.0,0.0,0.0,0.0,0.0,0.0,0.0,0.0,0.0,0.0,0.0,0.0,0.0,0.0,0.0,0.0,0.0,0.0,0.0,0.0,0.0,0.0,0.0,0.0,0.0,-2.1897,-2.1694,-2.1371,0.0,0.0,0.0,0.0,0.0,0.0,0.0,0.0,0.0,0.0,0.0,0.0,0.0,0.0,0.0,0.0,0.0,0.0,0.0,0.0,0.0,0.0,0.0,0.0,0.0,0.0,0.0,0.0,0.0,0.0,0.0,0.0,0.0,0.0,0.0,0.0,0.0,0.0,0.0,0.0,0.0,0.0,0.0,0.0,0.0,0.0,0.0,0.0,0.0,0.0,0.0,0.0,0.0,0.0,0.0,0.0,0.0,0.0,0.0,0.0,0.0,0.0,0.0,0.0,0.0,0.0,0.0,0.0,0.0,0.0,0.0,0.0,0.0,0.0,0.0,0.0,0.0,0.0,0.0,0.0,0.0,0.0,0.0,0.0,0.0,0.0,0.0,0.0,0.0,0.0,0.0,0.0,0.0,0.0,0.0,0.0,0.0,0.0,0.0,0.0,0.0,0.0,0.0,0.0,0.0,0.0,0.0,0.0,0.0,0.0,-2.1368,-2.3763,-2.3987,0.0,-2.3964,0.0,0.0,0.0,0.0,0.0,0.0,0.0,0.0,0.0,0.0,0.0,0.0,0.0,0.0,0.0,0.0,0.0,0.0,0.0,0.0,0.0,0.0,0.0,0.0,0.0,0.0,0.0,0.0,0.0,0.0,0.0,0.0,0.0,0.0,0.0,0.0,0.0,0.0,0.0,0.0,0.0,0.0,0.0,0.0,0.0,0.0,0.0,0.0,0.0,0.0,0.0,0.0,0.0,0.0,0.0,0.0,0.0,0.0,0.0,0.0,0.0,0.0,0.0,0.0,0.0,0.0,0.0,0.0,0.0,0.0,0.0,0.0,0.0,0.0,0.0,0.0,0.0,0.0,0.0,0.0,0.0,0.0,0.0,0.0,0.0,0.0,0.0,0.0,0.0,0.0,0.0,0.0,0.0,0.0,0.0,0.0,0.0,0.0,0.0,0.0,0.0,0.0,0.0,0.0,0.0,0.0,0.0,0.0,0.0,0.0,-2.2043,-2.2828,-2.293,-2.2913,0.0,0.0,0.0,0.0,0.0,0.0,0.0,0.0,0.0,0.0,0.0,0.0,0.0,0.0,0.0,0.0,0.0,0.0,0.0,0.0,0.0,0.0,0.0,0.0,0.0,0.0,0.0,0.0,0.0,0.0,0.0,0.0,0.0,0.0,0.0,0.0,0.0,0.0,0.0,0.0,0.0,0.0,0.0,0.0,0.0,0.0,0.0,0.0,0.0,0.0,0.0,0.0,0.0,0.0,0.0,0.0,0.0,0.0,0.0,0.0,0.0,0.0,0.0,0.0,0.0,0.0,0.0,0.0,0.0,0.0,0.0,0.0,0.0,0.0,0.0,0.0,0.0,0.0,0.0,0.0,0.0,0.0,0.0,0.0,0.0,0.0,0.0,0.0,0.0,0.0,0.0,0.0,0.0,0.0,0.0,0.0,0.0,0.0,0.0,0.0,0.0,0.0,0.0,0.0,0.0,0.0,0.0,0.0,0.0,0.0,-2.2019,-2.2795,-2.3127,-2.3128,-2.2708,-2.1905,0.0,0.0,0.0,0.0,0.0,0.0,0.0,0.0,0.0,0.0,0.0,0.0,0.0,0.0,0.0,0.0,0.0,0.0,0.0,0.0,0.0,0.0,0.0,0.0,0.0,0.0,0.0,0.0,0.0,0.0,0.0,0.0,0.0,0.0,0.0,0.0,0.0,0.0,0.0,0.0,0.0,0.0,0.0,0.0,0.0,0.0,0.0,0.0,0.0,0.0,0.0,0.0,0.0,0.0,0.0,0.0,0.0,0.0,0.0,0.0,0.0,0.0,0.0,0.0,0.0,0.0,0.0,0.0,0.0,0.0,0.0,0.0,0.0,0.0,0.0,0.0,0.0,0.0,0.0,0.0,0.0,0.0,0.0,0.0,0.0,0.0,0.0,0.0,0.0,0.0,0.0,0.0,0.0,0.0,0.0,0.0,0.0,0.0,0.0,0.0,0.0,0.0,0.0,0.0,0.0,0.0,0.0,0.0,0.0,-2.3325,-2.3556,-2.5879,-2.5864,-2.4691,0.0,0.0,0.0,0.0,0.0,0.0,0.0,0.0,0.0,0.0,0.0,0.0,0.0,0.0,0.0,0.0,0.0,0.0,0.0,0.0,0.0,0.0,0.0,0.0,0.0,0.0,0.0,0.0,0.0,0.0,0.0,0.0,0.0,0.0,0.0,0.0,0.0,0.0,0.0,0.0,0.0,0.0,0.0,0.0,0.0,0.0,0.0,0.0,0.0,0.0,0.0,0.0,0.0,0.0,0.0,0.0,0.0,0.0,0.0,0.0,0.0,0.0,0.0,0.0,0.0,0.0,0.0,0.0,0.0,0.0,0.0,0.0,0.0,0.0,0.0,0.0,0.0,0.0,0.0,0.0,0.0,0.0,0.0,0.0,0.0,0.0,0.0,0.0,0.0,0.0,0.0,0.0,0.0,0.0,0.0,0.0,0.0,0.0,0.0,0.0,0.0,0.0,0.0,0.0,0.0,0.0,0.0,0.0,0.0,-2.1336,-2.1875,-2.3918,-2.73,-2.4491,-2.2742,0.0,0.0,0.0,0.0,0.0,0.0,0.0,0.0,0.0,0.0,0.0,0.0,0.0,0.0,0.0,0.0,0.0,0.0,0.0,0.0,0.0,0.0,0.0,0.0,0.0,0.0,0.0,0.0,0.0,0.0,0.0,0.0,0.0,0.0,0.0,0.0,0.0,0.0,0.0,0.0,0.0,0.0,0.0,0.0,0.0,0.0,0.0,0.0,0.0,0.0,0.0,0.0,0.0,0.0,0.0,0.0,0.0,0.0,0.0,0.0,0.0,0.0,0.0,0.0,0.0,0.0,0.0,0.0,0.0,0.0,0.0,0.0,0.0,0.0,0.0,0.0,0.0,0.0,0.0,0.0,0.0,0.0,0.0,0.0,0.0,0.0,0.0,0.0,0.0,0.0,0.0,0.0,0.0,0.0,0.0,0.0,0.0,0.0,0.0,0.0,0.0,0.0,0.0,0.0,0.0,0.0,0.0,0.0,0.0,-2.0973,0.0,-2.4966,0.0,-2.3829,-2.167,0.0,0.0,0.0,0.0,0.0,0.0,0.0,0.0,0.0,0.0,0.0,0.0,0.0,0.0,0.0,0.0,0.0,0.0,0.0,0.0,0.0,0.0,0.0,0.0,0.0,0.0,0.0,0.0,0.0,0.0,0.0,0.0,0.0,0.0,0.0,0.0,0.0,0.0,0.0,0.0,0.0,0.0,0.0,0.0,0.0,0.0,0.0,0.0,0.0,0.0,0.0,0.0,0.0,0.0,0.0,0.0,0.0,0.0,0.0,0.0,0.0,0.0,0.0,0.0,0.0,0.0,0.0,0.0,0.0,0.0,0.0,0.0,0.0,0.0,0.0,0.0,0.0,0.0,0.0,0.0,0.0,0.0,0.0,0.0,0.0,0.0,0.0,0.0,0.0,0.0,0.0,0.0,0.0,0.0,0.0,0.0,0.0,0.0,0.0,0.0,0.0,0.0,0.0,0.0,0.0,0.0,0.0,0.0,-2.1003,-2.4631,-2.6506,-2.6634,-2.5048,-2.419,-2.1757,0.0,0.0,0.0,0.0,0.0,0.0,0.0,0.0,0.0,0.0,0.0,0.0,0.0,0.0,0.0,0.0,0.0,0.0,0.0,0.0,0.0,0.0,0.0,0.0,0.0,0.0,0.0,0.0,0.0,0.0,0.0,0.0,0.0,0.0,0.0,0.0,0.0,0.0,0.0,0.0,0.0,0.0,0.0,0.0,0.0,0.0,0.0,0.0,0.0,0.0,0.0,0.0,0.0,0.0,0.0,0.0,0.0,0.0,0.0,0.0,0.0,0.0,0.0,0.0,0.0,0.0,0.0,0.0,0.0,0.0,0.0,0.0,0.0,0.0,0.0,0.0,0.0,0.0,0.0,0.0,0.0,0.0,0.0,0.0,0.0,0.0,0.0,0.0,0.0,0.0,0.0,0.0,0.0,0.0,0.0,0.0,0.0,0.0,0.0,0.0,0.0,0.0,0.0,0.0,0.0,0.0,0.0,0.0,0.0,-2.2941,-2.4326,-2.5865,-2.73,-2.3464,-2.1656,0.0,0.0,0.0,0.0,0.0,0.0,0.0,0.0,0.0,0.0,0.0,0.0,0.0,0.0,0.0,0.0,0.0,0.0,0.0,0.0,0.0,0.0,0.0,0.0,0.0,0.0,0.0,0.0,0.0,0.0,0.0,0.0,0.0,0.0,0.0,0.0,0.0,0.0,0.0,0.0,0.0,0.0,0.0,0.0,0.0,0.0,0.0,0.0,0.0,0.0,0.0,0.0,0.0,0.0,0.0,0.0,0.0,0.0,0.0,0.0,0.0,0.0,0.0,0.0,0.0,0.0,0.0,0.0,0.0,0.0,0.0,0.0,0.0,0.0,0.0,0.0,0.0,0.0,0.0,0.0,0.0,0.0,0.0,0.0,0.0,0.0,0.0,0.0,0.0,0.0,0.0,0.0,0.0,0.0,0.0,0.0,0.0,0.0,0.0,0.0,0.0,0.0,0.0,0.0,0.0,0.0,0.0,0.0,0.0,-2.4936,-2.6083,-2.7447,-2.8985,-2.4602,-2.2483,-2.2925,0.0,0.0,0.0,0.0,0.0,0.0,0.0,0.0,0.0,0.0,0.0,0.0,0.0,0.0,0.0,0.0,0.0,0.0,0.0,0.0,0.0,0.0,0.0,0.0,0.0,0.0,0.0,0.0,0.0,0.0,0.0,0.0,0.0,0.0,0.0,0.0,0.0,0.0,0.0,0.0,0.0,0.0,0.0,0.0,0.0,0.0,0.0,0.0,0.0,0.0,0.0,0.0,0.0,0.0,0.0,0.0,0.0,0.0,0.0,0.0,0.0,0.0,0.0,0.0,0.0,0.0,0.0,0.0,0.0,0.0,0.0,0.0,0.0,0.0,0.0,0.0,0.0,0.0,0.0,0.0,0.0,0.0,0.0,0.0,0.0,0.0,0.0,0.0,0.0,0.0,0.0,0.0,0.0,0.0,0.0,0.0,0.0,0.0,0.0,0.0,0.0,0.0,0.0,0.0,0.0,0.0,0.0,0.0,-2.9798,-3.1074,-3.1147,-2.9972,-2.7316,-2.4196,0.0,0.0,0.0,0.0,0.0,0.0,0.0,0.0,0.0,0.0,0.0,0.0,0.0,0.0,0.0,0.0,0.0,0.0,0.0,0.0,0.0,0.0,0.0,0.0,0.0,0.0,0.0,0.0,0.0,0.0,0.0,0.0,0.0,0.0,0.0,0.0,0.0,0.0,0.0,0.0,0.0,0.0,0.0,0.0,0.0,0.0,0.0,0.0,0.0,0.0,0.0,0.0,0.0,0.0,0.0,0.0,0.0,0.0,0.0,0.0,0.0,0.0,0.0,0.0,0.0,0.0,0.0,0.0,0.0,0.0,0.0,0.0,0.0,0.0,0.0,0.0,0.0,0.0,0.0,0.0,0.0,0.0,0.0,0.0,0.0,0.0,0.0,0.0,0.0,0.0,0.0,0.0,0.0,0.0,0.0,0.0,0.0,0.0,0.0,0.0,0.0,0.0,0.0,0.0,0.0,0.0,0.0,0.0,0.0,-3.2428,-3.4153,-3.4675,-3.379,-2.9552,-2.6506,0.0,0.0,0.0,0.0,0.0,0.0,0.0,0.0,0.0,0.0,0.0,0.0,0.0,0.0,0.0,0.0,0.0,0.0,0.0,0.0,0.0,0.0,0.0,0.0,0.0,0.0,0.0,0.0,0.0,0.0,0.0,0.0,0.0,0.0,0.0,0.0,0.0,0.0,0.0,0.0,0.0,0.0,0.0,0.0,0.0,0.0,0.0,0.0,0.0,0.0,0.0,0.0,0.0,0.0,0.0,0.0,0.0,0.0,0.0,0.0,0.0,0.0,0.0,0.0,0.0,0.0,0.0,0.0,0.0,0.0,0.0,0.0,0.0,0.0,0.0,0.0,0.0,0.0,0.0,0.0,0.0,0.0,0.0,0.0,0.0,0.0,0.0,0.0,0.0,0.0,0.0,0.0,0.0,0.0,0.0,0.0,0.0,0.0,0.0,0.0,0.0,0.0,0.0,0.0,0.0,0.0,0.0,0.0,-3.2007,-3.4632,-3.7593,-3.8565,-3.7412,-3.2687,-2.9087,0.0,0.0,0.0,0.0,0.0,0.0,0.0,0.0,0.0,0.0,0.0,0.0,0.0,0.0,0.0,0.0,0.0,0.0,0.0,0.0,0.0,0.0,0.0,0.0,0.0,0.0,0.0,0.0,0.0,0.0,0.0,0.0,0.0,0.0,0.0,0.0,0.0,0.0,0.0,0.0,0.0,0.0,0.0,0.0,0.0,0.0,0.0,0.0,0.0,0.0,0.0,0.0,0.0,0.0,0.0,0.0,0.0,0.0,0.0,0.0,0.0,0.0,0.0,0.0,0.0,0.0,0.0,0.0,0.0,0.0,0.0,0.0,0.0,0.0,0.0,0.0,0.0,0.0,0.0,0.0,0.0,0.0,0.0,0.0,0.0,0.0,0.0,0.0,0.0,0.0,0.0,0.0,0.0,0.0,0.0,0.0,0.0,0.0,0.0,0.0,0.0,0.0,0.0,0.0,0.0,0.0,0.0,0.0,-3.453,-3.6606,-4.0641,-4.1961,-4.0176,-3.593,-3.1571,0.0,0.0,0.0,0.0,0.0,0.0,0.0,0.0,0.0,0.0,0.0,0.0,0.0,0.0,0.0,0.0,0.0,0.0,0.0,0.0,0.0,0.0,0.0,0.0,0.0,0.0,0.0,0.0,0.0,0.0,0.0,0.0,0.0,0.0,0.0,0.0,0.0,0.0,0.0,0.0,0.0,0.0,0.0,0.0,0.0,0.0,0.0,0.0,0.0,0.0,0.0,0.0,0.0,0.0,0.0,0.0,0.0,0.0,0.0,0.0,0.0,0.0,0.0,0.0,0.0,0.0,0.0,0.0,0.0,0.0,0.0,0.0,0.0,0.0,0.0,0.0,0.0,0.0,0.0,0.0,0.0,0.0,0.0,0.0,0.0,0.0,0.0,0.0,0.0,0.0,0.0,0.0,0.0,0.0,0.0,0.0,0.0,0.0,0.0,0.0,0.0,0.0,0.0,0.0,0.0,0.0,0.0,0.0,-3.5619,-3.8536,-4.0495,-4.1294,-4.0873,-3.6548,-3.2571,0.0,0.0,0.0,0.0,0.0,0.0,0.0,0.0,0.0,0.0,0.0,0.0,0.0,0.0,0.0,0.0,0.0,0.0,0.0,0.0,0.0,0.0,0.0,0.0,0.0,0.0,0.0,0.0,0.0,0.0,0.0,0.0,0.0,0.0,0.0,0.0,0.0,0.0,0.0,0.0,0.0,0.0,0.0,0.0,0.0,0.0,0.0,0.0,-1.4012,0.0,0.0,0.0,0.0,0.0,0.0,0.0,0.0,0.0,0.0,0.0,0.0,0.0,0.0,0.0,0.0,0.0,0.0,0.0,0.0,0.0,0.0,0.0,0.0,0.0,0.0,0.0,0.0,0.0,0.0,0.0,0.0,0.0,0.0,0.0,0.0,0.0,0.0,0.0,0.0,0.0,0.0,0.0,0.0,0.0,0.0,0.0,0.0,0.0,0.0,0.0,0.0,0.0,0.0,0.0,0.0,0.0,0.0,0.0,-3.6693,-3.9538,-4.1178,-4.17,-4.1018,-3.7636,-3.3978,0.0,0.0,0.0,0.0,0.0,0.0,0.0,0.0,0.0,0.0,0.0,0.0,0.0,0.0,0.0,0.0,0.0,0.0,0.0,0.0,0.0,0.0,0.0,0.0,0.0,0.0,0.0,0.0,0.0,0.0,0.0,0.0,0.0,0.0,0.0,0.0,0.0,0.0,0.0,0.0,0.0,0.0,0.0,0.0,0.0,0.0,0.0,0.0,0.0,0.0,0.0,0.0,0.0,0.0,0.0,0.0,0.0,0.0,0.0,0.0,0.0,0.0,0.0,0.0,0.0,0.0,0.0,0.0,0.0,0.0,0.0,0.0,0.0,0.0,0.0,0.0,0.0,0.0,0.0,0.0,0.0,0.0,0.0,0.0,0.0,0.0,0.0,0.0,0.0,0.0,0.0,0.0,0.0,0.0,0.0,0.0,0.0,0.0,0.0,0.0,0.0,0.0,0.0,0.0,0.0,0.0,0.0,-3.4119,-3.7491,-4.0437,-4.1961,-4.2179,-4.1105,-3.8638,-3.5183,-3.0756,0.0,0.0,0.0,0.0,0.0,0.0,0.0,0.0,0.0,0.0,0.0,0.0,0.0,0.0,0.0,0.0,0.0,0.0,0.0,0.0,0.0,0.0,0.0,0.0,0.0,0.0,0.0,0.0,0.0,0.0,0.0,0.0,0.0,0.0,0.0,0.0,0.0,0.0,-1.4,-1.5824,0.0,0.0,0.0,0.0,0.0,0.0,0.0,0.0,-1.5257,0.0,0.0,0.0,0.0,0.0,0.0,0.0,0.0,0.0,0.0,0.0,0.0,0.0,0.0,0.0,0.0,0.0,0.0,0.0,0.0,0.0,0.0,0.0,0.0,0.0,0.0,0.0,0.0,0.0,0.0,0.0,0.0,0.0,0.0,0.0,0.0,0.0,0.0,0.0,0.0,0.0,0.0,0.0,0.0,0.0,0.0,0.0,0.0,0.0,0.0,0.0,0.0,0.0,0.0,0.0,0.0,-3.4331,-3.4632,-3.7259,-4.2339,-4.1787,-4.1308,-4.1047,-3.8638,-3.5149,-3.0621,0.0,0.0,0.0,0.0,0.0,0.0,0.0,0.0,0.0,0.0,0.0,0.0,0.0,0.0,0.0,0.0,0.0,0.0,0.0,0.0,0.0,0.0,0.0,0.0,0.0,0.0,0.0,0.0,0.0,0.0,0.0,0.0,0.0,0.0,0.0,0.0,0.0,0.0,0.0,-1.8205,-1.9131,0.0,0.0,0.0,0.0,0.0,0.0,0.0,0.0,-1.5108,0.0,0.0,0.0,0.0,0.0,0.0,0.0,0.0,0.0,0.0,0.0,0.0,0.0,0.0,0.0,0.0,0.0,0.0,0.0,0.0,0.0,0.0,0.0,0.0,0.0,0.0,0.0,0.0,0.0,0.0,0.0,0.0,0.0,0.0,0.0,0.0,0.0,0.0,0.0,0.0,0.0,0.0,0.0,0.0,0.0,0.0,0.0,0.0,0.0,0.0,0.0,0.0,0.0,0.0,0.0,-3.3024,-3.543,-3.8073,-4.1218,-4.1006,-4.0504,-3.9902,-3.6823,-3.3638,0.0,0.0,0.0,0.0,0.0,0.0,0.0,0.0,0.0,0.0,0.0,0.0,0.0,0.0,0.0,0.0,0.0,0.0,0.0,0.0,0.0,0.0,0.0,0.0,0.0,0.0,0.0,0.0,0.0,0.0,0.0,0.0,0.0,0.0,0.0,0.0,0.0,0.0,0.0,0.0,-1.891,-1.9709,-1.9733,0.0,0.0,0.0,0.0,0.0,0.0,-1.5851,-1.5219,0.0,0.0,0.0,0.0,0.0,0.0,0.0,0.0,0.0,0.0,0.0,0.0,0.0,0.0,0.0,0.0,0.0,0.0,0.0,0.0,0.0,0.0,0.0,0.0,0.0,0.0,0.0,0.0,0.0,0.0,0.0,0.0,0.0,0.0,0.0,0.0,0.0,0.0,0.0,0.0,0.0,0.0,0.0,0.0,0.0,0.0,0.0,0.0,0.0,0.0,0.0,0.0,0.0,0.0,0.0,-3.1197,-3.5496,-3.8378,-3.9798,-4.0069,-3.9739,-3.8741,-3.5358,-3.24,0.0,0.0,0.0,0.0,0.0,0.0,0.0,0.0,0.0,0.0,0.0,0.0,0.0,0.0,0.0,0.0,0.0,0.0,0.0,0.0,0.0,0.0,0.0,0.0,0.0,0.0,0.0,0.0,0.0,0.0,0.0,0.0,0.0,0.0,0.0,0.0,0.0,0.0,0.0,0.0,0.0,-2.0296,-2.0474,-1.9274,0.0,0.0,0.0,0.0,-1.7617,-1.7182,0.0,0.0,0.0,0.0,0.0,0.0,0.0,0.0,0.0,0.0,0.0,0.0,0.0,0.0,0.0,0.0,0.0,0.0,0.0,0.0,0.0,0.0,0.0,0.0,0.0,0.0,0.0,0.0,0.0,0.0,0.0,0.0,0.0,0.0,0.0,0.0,0.0,0.0,0.0,0.0,0.0,0.0,0.0,0.0,0.0,0.0,0.0,0.0,0.0,0.0,0.0,0.0,0.0,0.0,0.0,0.0,-3.0538,-3.3443,-3.6545,-3.9822,-3.9419,-3.8828,-3.8281,-3.6064,-3.2889,0.0,0.0,0.0,0.0,0.0,0.0,0.0,0.0,0.0,0.0,0.0,0.0,0.0,0.0,0.0,0.0,0.0,0.0,0.0,0.0,0.0,0.0,0.0,0.0,0.0,0.0,0.0,0.0,0.0,0.0,0.0,0.0,0.0,0.0,0.0,0.0,0.0,0.0,0.0,0.0,0.0,-2.1969,-2.0983,-2.034,-1.9919,0.0,0.0,-1.8957,-2.0473,-2.0986,0.0,0.0,0.0,0.0,0.0,0.0,0.0,0.0,0.0,0.0,0.0,0.0,0.0,0.0,0.0,0.0,0.0,0.0,0.0,0.0,0.0,0.0,0.0,0.0,0.0,0.0,0.0,0.0,0.0,0.0,0.0,0.0,0.0,0.0,0.0,0.0,0.0,0.0,0.0,0.0,0.0,0.0,0.0,0.0,0.0,0.0,0.0,0.0,0.0,0.0,0.0,0.0,0.0,0.0,0.0,-2.5349,-2.9686,-3.3642,-3.6598,-3.8445,-3.8378,-3.7951,-3.7209,-3.4211,-3.1158,0.0,0.0,0.0,0.0,0.0,0.0,0.0,0.0,0.0,0.0,0.0,0.0,0.0,0.0,0.0,0.0,0.0,0.0,0.0,0.0,0.0,0.0,0.0,0.0,0.0,0.0,0.0,0.0,0.0,0.0,0.0,0.0,0.0,0.0,0.0,0.0,0.0,0.0,0.0,0.0,0.0,0.0,-2.2008,-2.1556,0.0,0.0,0.0,-2.0634,-2.1761,0.0,0.0,0.0,0.0,0.0,0.0,0.0,0.0,0.0,0.0,0.0,0.0,0.0,0.0,0.0,0.0,0.0,0.0,0.0,0.0,0.0,0.0,0.0,0.0,0.0,0.0,0.0,0.0,0.0,0.0,0.0,0.0,0.0,0.0,0.0,0.0,0.0,0.0,0.0,0.0,0.0,0.0,0.0,0.0,0.0,0.0,0.0,0.0,0.0,0.0,0.0,0.0,0.0,0.0,0.0,0.0,0.0,-2.8592,-3.3446,-3.628,-3.6968,-3.7216,-3.6881,-3.585,-3.2714,0.0,0.0,0.0,0.0,0.0,0.0,0.0,0.0,0.0,0.0,0.0,0.0,0.0,0.0,0.0,0.0,0.0,0.0,0.0,0.0,0.0,0.0,0.0,0.0,0.0,0.0,0.0,-0.7864,0.0,0.0,0.0,0.0,0.0,0.0,0.0,0.0,0.0,0.0,0.0,0.0,0.0,0.0,-2.2273,-2.3086,-2.3029,-2.3017,0.0,0.0,-2.2395,-2.3055,-2.289,-2.1965,0.0,0.0,0.0,0.0,0.0,0.0,0.0,0.0,0.0,0.0,0.0,0.0,0.0,0.0,0.0,0.0,0.0,0.0,0.0,0.0,0.0,0.0,0.0,0.0,0.0,0.0,0.0,0.0,0.0,0.0,0.0,0.0,0.0,0.0,0.0,0.0,0.0,0.0,0.0,0.0,0.0,0.0,0.0,0.0,0.0,0.0,0.0,0.0,0.0,0.0,0.0,0.0,0.0,0.0,0.0,-2.7175,-3.1772,-3.4799,-3.603,-3.5951,-3.5377,-3.4352,-3.2818,-2.9813,0.0,0.0,0.0,0.0,0.0,0.0,0.0,0.0,0.0,0.0,0.0,0.0,0.0,0.0,0.0,0.0,0.0,0.0,0.0,0.0,0.0,0.0,0.0,0.0,0.0,0.0,0.0,0.0,0.0,0.0,0.0,0.0,0.0,0.0,0.0,0.0,0.0,0.0,0.0,0.0,0.0,-2.3875,-2.3994,-2.4829,-2.5563,0.0,-2.5105,-2.4596,-2.4942,-2.6069,-2.5327,-2.0805,0.0,0.0,0.0,0.0,0.0,0.0,0.0,0.0,0.0,0.0,0.0,0.0,0.0,0.0,0.0,0.0,0.0,0.0,0.0,0.0,0.0,0.0,0.0,0.0,0.0,0.0,0.0,0.0,0.0,0.0,0.0,0.0,0.0,0.0,0.0,0.0,0.0,0.0,0.0,0.0,0.0,0.0,0.0,0.0,0.0,0.0,0.0,0.0,0.0,0.0,0.0,0.0,0.0,-2.3742,-2.6799,-3.08,-3.3566,-3.487,-3.4884,-3.4326,-3.3247,-3.1987,-2.9272,0.0,0.0,0.0,0.0,0.0,0.0,0.0,0.0,0.0,0.0,0.0,0.0,0.0,0.0,0.0,0.0,0.0,0.0,0.0,0.0,0.0,0.0,0.0,0.0,0.0,0.0,0.0,0.0,-1.2246,-1.2583,-1.2138,0.0,0.0,0.0,0.0,0.0,0.0,0.0,0.0,0.0,0.0,-2.4528,-2.5491,-2.5561,0.0,0.0,-2.5794,-2.5615,-2.6737,-2.5633,-2.4,-2.2176,-1.9812,0.0,0.0,0.0,0.0,0.0,0.0,0.0,0.0,0.0,0.0,0.0,0.0,0.0,0.0,0.0,0.0,0.0,0.0,0.0,0.0,0.0,0.0,0.0,0.0,0.0,0.0,0.0,0.0,0.0,0.0,0.0,0.0,0.0,0.0,0.0,0.0,0.0,0.0,0.0,0.0,0.0,0.0,0.0,0.0,0.0,0.0,0.0,0.0,0.0,0.0,0.0,0.0,-2.3567,-2.6489,-3.0313,-3.278,-3.383,-3.3817,-3.3366,-3.2388,-3.128,-2.8905,0.0,0.0,0.0,0.0,0.0,0.0,0.0,0.0,0.0,0.0,0.0,0.0,0.0,0.0,0.0,0.0,0.0,0.0,0.0,0.0,0.0,0.0,0.0,0.0,0.0,0.0,0.0,0.0,-1.3807,-1.3565,-1.2372,0.0,0.0,0.0,0.0,0.0,0.0,0.0,0.0,0.0,0.0,-2.5627,-2.6228,-2.6278,-2.6496,-2.7031,-2.6248,-2.6097,-2.7356,-2.5326,-2.3342,-2.2649,0.0,0.0,0.0,0.0,0.0,0.0,0.0,0.0,0.0,0.0,0.0,0.0,0.0,0.0,0.0,0.0,0.0,0.0,0.0,0.0,0.0,0.0,0.0,0.0,0.0,0.0,0.0,-1.4183,0.0,0.0,-1.3767,0.0,0.0,0.0,0.0,0.0,0.0,0.0,0.0,0.0,0.0,0.0,0.0,0.0,0.0,0.0,0.0,0.0,0.0,0.0,0.0,0.0,0.0,-2.4504,-2.6142,-3.0272,-3.2536,-3.2736,-3.2754,-3.2468,-3.19,-3.082,-2.8798,-2.5822,0.0,0.0,0.0,0.0,0.0,0.0,0.0,0.0,0.0,0.0,0.0,0.0,0.0,0.0,0.0,0.0,0.0,0.0,0.0,0.0,0.0,0.0,0.0,0.0,0.0,0.0,-1.4797,-1.4081,-1.295,0.0,0.0,0.0,0.0,0.0,0.0,0.0,0.0,0.0,0.0,-2.5324,-2.7401,-2.5892,-2.7151,-2.8066,-2.766,-2.6579,-2.604,-2.6595,-2.5573,-2.4094,0.0,0.0,0.0,0.0,0.0,0.0,0.0,0.0,0.0,0.0,0.0,0.0,0.0,0.0,0.0,0.0,0.0,0.0,0.0,0.0,0.0,0.0,0.0,0.0,0.0,0.0,0.0,-1.8877,-1.7436,0.0,0.0,0.0,0.0,0.0,0.0,0.0,0.0,0.0,0.0,0.0,-2.4976,-2.5913,0.0,0.0,0.0,0.0,0.0,0.0,0.0,0.0,0.0,0.0,0.0,0.0,-2.4215,-2.6178,-2.9953,-3.1986,-3.2013,-3.2057,-3.1801,-3.1241,-3.0188,-2.7925,-2.4308,0.0,0.0,0.0,0.0,0.0,0.0,0.0,0.0,0.0,0.0,0.0,0.0,0.0,0.0,0.0,0.0,0.0,0.0,0.0,0.0,0.0,0.0,0.0,0.0,0.0,-1.4638,0.0,0.0,0.0,0.0,0.0,0.0,0.0,0.0,0.0,0.0,0.0,-2.1305,-2.3296,-2.5526,-2.6845,-2.6547,-2.6882,-2.7336,0.0,0.0,0.0,0.0,0.0,0.0,0.0,0.0,0.0,0.0,0.0,0.0,0.0,0.0,-2.0127,-1.641,-1.5359,-1.5294,-1.5973,0.0,0.0,0.0,0.0,0.0,0.0,0.0,0.0,0.0,0.0,0.0,0.0,0.0,0.0,-2.1757,0.0,-2.0525,0.0,0.0,0.0,0.0,0.0,0.0,0.0,0.0,-2.6527,-2.8266,-2.8453,-2.9439,-2.8952,0.0,-2.6589,-2.3688,0.0,0.0,0.0,0.0,0.0,0.0,0.0,0.0,-2.4735,-2.6707,-3.0146,-3.191,-3.1717,-3.1705,-3.1536,-3.1144,-2.9941,-2.7818,-2.4706,-2.3191,-2.1442,0.0,0.0,0.0,0.0,0.0,0.0,0.0,0.0,0.0,0.0,0.0,0.0,0.0,0.0,0.0,0.0,0.0,0.0,0.0,0.0,0.0,0.0,0.0,-1.5888,0.0,0.0,0.0,0.0,0.0,0.0,0.0,0.0,0.0,-1.9985,-2.1404,-2.3055,-2.4953,-2.6366,-2.7028,-2.6584,0.0,0.0,0.0,0.0,0.0,0.0,0.0,-2.2568,-2.3525,-2.2255,-2.1226,-2.1549,-2.2695,-2.3409,-2.2794,0.0,0.0,-1.9405,-1.8284,-1.8201,-1.8841,-1.8951,-1.9173,-1.9833,-2.0402,-2.086,0.0,0.0,0.0,0.0,0.0,0.0,0.0,0.0,-2.4607,-2.4356,0.0,-2.3609,0.0,0.0,0.0,0.0,0.0,-2.4443,0.0,0.0,-3.1631,-3.3273,-3.2103,-3.2364,-3.1733,-3.0344,-3.0694,-2.8739,-2.4675,-2.1644,0.0,0.0,0.0,0.0,0.0,0.0,-2.619,-2.7873,-3.0915,-3.2238,-3.1765,-3.1729,-3.1705,-3.1633,-3.0158,-2.8595,-2.6994,-2.5925,-2.3953,-2.088,-1.9712,0.0,0.0,0.0,0.0,0.0,0.0,0.0,0.0,0.0,0.0,0.0,0.0,0.0,0.0,0.0,0.0,0.0,0.0,0.0,0.0,-1.7556,0.0,0.0,0.0,0.0,0.0,0.0,0.0,0.0,0.0,0.0,-2.2054,-2.4017,-2.5728,-2.6384,0.0,0.0,0.0,0.0,-2.6894,-2.6804,-2.5979,-2.5792,-2.6952,-2.6177,-2.5324,-2.5005,0.0,0.0,-2.3828,-2.4959,-2.5543,-2.3938,-2.4711,-2.5249,-2.4395,-2.3079,-2.2465,-2.2803,-2.23,-2.1998,-2.2382,-2.3125,-2.3581,-3.1755,0.0,0.0,0.0,0.0,-2.8096,-2.9415,-3.1784,-3.0884,-2.9817,-2.8674,-2.8134,0.0,0.0,0.0,0.0,0.0,0.0,-2.8164,-2.9407,-3.1749,-3.3105,-3.3706,-3.4016,-3.3764,-3.3141,-3.2798,-3.1384,-2.9076,-2.7765,-2.441,-1.9227,0.0,0.0,0.0,0.0,-2.7993,-2.9941,-3.1637,-3.243,-3.2262,-3.1922,-3.1524,-3.1163,-3.0706,-2.9677,-2.8126,-2.7753,-2.6298,-2.352,-2.2433,0.0,0.0,0.0,0.0,0.0,0.0,0.0,0.0,0.0,0.0,0.0,0.0,0.0,0.0,0.0,0.0,0.0,0.0,0.0,-1.6427,-1.7243,-1.7203,0.0,0.0,0.0,0.0,0.0,0.0,0.0,0.0,0.0,-2.5427,-2.5466,-2.5526,0.0,0.0,-2.6824,-2.5829,-2.6724,-2.7602,-2.7892,-2.7248,0.0,-2.7702,-2.6358,-2.5494,-2.6209,-2.6892,-2.7163,-2.6682,-2.7105,-2.7382,-2.6664,-2.6894,-2.705,-2.6765,-2.5561,-2.4711,-2.4977,-2.4904,-2.4986,-2.5637,-2.5995,-2.6206,-3.6395,-3.3033,-3.1556,-3.1519,-3.2491,-3.1976,-3.3119,-3.5316,-3.4437,-3.3483,-3.2486,-3.1989,-3.0156,-2.7381,-2.6624,0.0,0.0,0.0,-3.0232,-3.1634,-3.2881,-3.3847,-3.4546,-3.4932,-3.48,-3.4244,-3.3993,-3.308,-3.1529,-3.1408,-2.8835,-2.4047,0.0,0.0,-2.4614,-2.7067,-2.9172,-3.0855,-3.2166,-3.2719,-3.2491,-3.1994,-3.156,-3.1235,-3.1031,-3.0422,-2.9484,-2.9039,-2.7885,-2.5841,-2.4578,-2.2702,0.0,0.0,0.0,0.0,0.0,0.0,0.0,0.0,0.0,0.0,0.0,-1.3456,0.0,0.0,0.0,0.0,-1.5141,-1.6581,-1.8122,-1.8787,0.0,0.0,0.0,0.0,0.0,0.0,0.0,-2.3505,-2.474,-2.5889,-2.7222,-2.7151,-2.704,-2.7204,-2.7257,-2.7176,-2.7,0.0,-2.7969,-2.8539,-2.8144,-2.7999,-2.8573,-2.7583,-2.6996,-2.7611,-2.8108,-2.8406,-2.8302,-2.8424,-2.8424,-2.8309,-2.8251,-2.8309,-2.8251,-2.7444,-2.6802,-2.6747,-2.6728,-2.6912,-2.7334,-2.7545,-2.7737,-4.0425,-3.9647,-3.6056,-3.5102,-3.5821,-3.5307,-3.573,-3.6681,-3.6069,-3.5734,-3.5658,-3.5165,-3.3746,-3.17,-3.0204,0.0,-3.0737,-3.1836,-3.2862,-3.3876,-3.4847,-3.5199,-3.498,-3.5412,-3.5112,-3.4138,-3.457,-3.4066,-3.2695,-3.3104,-3.231,-3.0338,-2.8362,-2.7366,-2.7354,-2.8799,-3.0098,-3.1235,-3.2587,-3.3032,-3.2515,-3.2042,-3.1753,-3.1705,-3.1199,-3.0855,-3.0814,-2.9833,-2.8811,-2.7741,-2.625,-2.429,-2.1765,0.0,0.0,0.0,0.0,0.0,0.0,0.0,0.0,0.0,0.0,0.0,0.0,0.0,0.0,0.0,-1.7525,0.0,-2.0735,-2.137,0.0,0.0,0.0,-2.0865,-2.0437,-2.2292,-2.3714,-2.4134,0.0,0.0,-2.7924,-2.8941,-2.9629,-2.9668,-2.8935,-2.8525,-2.8877,-2.8406,-2.8304,-2.8965,-2.8833,-2.8933,-2.958,-2.9477,-2.9201,-2.9121,-2.9094,-2.9098,-2.9039,-2.8998,-2.9025,-2.8929,-2.8975,-2.8957,-2.8975,-2.8856,-2.8755,-2.7957,-2.7847,-2.7856,-2.796,-2.8168,-2.8407,-4.2308,-4.2082,-4.0805,-3.9873,-3.9295,-3.8743,-3.8894,-3.9421,-3.8504,-3.7839,-3.7387,-3.6835,-3.6081,-3.5223,-3.5203,-3.5089,-3.4967,-3.5835,-3.6027,-3.5764,-3.6206,-3.6277,-3.6026,-3.5761,-3.5485,-3.5232,-3.4907,-3.4378,-3.3658,-3.3801,-3.3404,-3.2539,-3.2022,-3.136,-3.0603,-3.1336,-3.2454,-3.3885,-3.3489,-3.3044,-3.2527,-3.237,-3.2094,-3.1717,-3.1187,-3.0687,-3.032,-2.9653,-2.8823,-2.7765,-2.6934,-2.5709,-2.3824,-2.0887,0.0,0.0,0.0,0.0,0.0,0.0,0.0,0.0,0.0,-1.7536,-1.3012,0.0,-1.8453,0.0,-1.9093,-2.0748,-2.1423,-2.1589,0.0,0.0,-2.3008,-2.3545,-2.4746,-2.5524,-2.6285,-2.7153,-2.8057,-2.8867,-2.9521,-2.9853,-3.0176,-3.0508,-2.9824,-2.9189,-2.8975,-2.9368,-2.9719,-2.9883,-3.0109,-3.0392,-3.0527,-3.0548,-3.0403,-3.0128,-3.003,-2.9912,-2.944,-2.939,-2.9331,-2.9035,-2.8984,-2.8984,-2.8984,-2.8984,-2.8938,-2.8737,-2.87,-2.8691,-2.87,-2.8773,-2.8838,-4.2986,-4.2949,-4.2647,-4.217,-4.1555,-4.0777,-4.0601,-4.0802,-3.9973,-3.9295,-3.8705,-3.7889,-3.7387,-3.7123,-3.7425,-3.7306,-3.6986,-3.7283,-3.713,-3.6614,-3.6614,-3.6563,-3.6386,-3.6098,-3.5966,-3.5954,-3.5437,-3.4979,-3.4691,-3.445,-3.4198,-3.397,-3.3982,-3.3669,-3.3104,-3.3152,-3.3574,-3.4414,-3.3909,-3.3368,-3.2863,-3.2623,-3.2118,-3.1348,-3.1067,-3.0506,-2.9761,-2.922,-2.8462,-2.739,-2.6597,-2.5661,-2.452,-2.2197,-2.049,0.0,0.0,0.0,0.0,0.0,0.0,0.0,0.0,0.0,0.0,0.0,-2.0214,-1.9671,-2.1084,-2.2422,-2.3293,-2.3618,-2.4125,-2.4995,-2.5356,-2.598,-2.7143,-2.7526,-2.8036,-2.8775,-2.9228,-2.9668,-3.0137,-3.0371,-3.0596,-3.0859,-3.0469,-3.0078,-2.9893,-3.0225,-3.0508,-3.0527,-3.0723,-3.083,-3.0704,-3.0704,-3.0577,-3.0274,-3.0147,-3.0039,-2.9754,-2.9846,-2.9852,-2.9515,-2.9679,-2.979,-2.9374,-2.9379,-2.9384,-2.909,-2.9103,-2.9163,-2.9044,-2.8984,-2.8984,-4.2986,-4.2986,-4.2986,-4.2986,-4.2911,-4.1944,-4.1463,-4.1404,-4.0865,-4.0312,-3.9735,-3.8693,-3.8216,-3.8228,-3.8228,-3.8066,-3.7804,-3.7591,-3.7288,-3.6972,-3.6756,-3.6666,-3.6603,-3.6531,-3.6507,-3.6483,-3.5966,-3.5713,-3.5701,-3.5244,-3.5004,-3.4883,-3.4871,-3.4847,-3.4763,-3.4318,-3.409,-3.409,-3.4102,-3.3897,-3.3392,-3.2875,-3.2082,-3.1079,-3.0826,-3.0206,-2.9232,-2.8691,-2.7954,-2.703,-2.6129,-2.5384,-2.4796,-2.334,-2.2234,0.0,-2.0675,0.0,0.0,0.0,0.0,0.0,0.0,0.0,0.0,-2.1614,-2.2149,-2.2643,-2.3247,-2.4167,-2.5538,-2.6219,-2.6602,-2.6719,-2.7373,-2.8008,-2.8486,-2.8867,-2.9248,-2.9687,-3.0059,-3.0283,-3.0312,-3.0654,-3.0889,-3.0889,-3.0859,-3.0801,-3.0859,-3.085,-3.0859,-3.0898,-3.0898,-3.083,-3.0577,-3.0518,-3.0392,-3.0108,-3.0116,-3.0057,-3.0085,-3.0417,-3.0518,-3.0253,-3.0609,-3.0817,-2.9899,-2.9948,-2.9934,-2.9388,-2.9446,-2.939,-2.9094,-2.9035,-2.9044,-4.2986,-4.2986,-4.2986,-4.2986,-4.3017,-4.276,-4.2409,-4.1957,-4.1417,-4.0877,-4.0312,-3.9672,-3.9371,-3.9371,-3.9383,-3.9268,-3.8999,-3.8896,-3.8573,-3.8105,-3.8052,-3.7895,-3.7649,-3.724,-3.7048,-3.7012,-3.6519,-3.6254,-3.6254,-3.6158,-3.5881,-3.5473,-3.5473,-3.5256,-3.4799,0.0,0.0,0.0,-3.4631,-3.4366,-3.385,-3.3404,-3.2623,-3.1573,-3.0308,0.0,-2.8679,-2.811,-2.7738,-2.7546,-2.733,0.0,0.0,0.0,0.0,0.0,0.0,0.0,0.0,0.0,0.0,0.0,-2.4946,-2.3917,-2.1955,-2.3033,-2.3893,-2.4039,-2.5092,-2.6026,-2.6674,-2.7153,-2.7695,-2.8359,-2.8584,-2.8984,-2.9717,-2.9912,-3.0127,-3.0586,-3.0713,-3.0752,-3.0752,-3.084,-3.0889,-3.0898,-3.0898,-3.0898,-3.0898,-3.0898,-3.0898,-3.0898,-3.0898,-3.0889,-3.083,-3.083,-3.0762,-3.0742,-3.0759,-3.0794,-3.0782,-3.0936,-3.11,-3.0958,-3.1058,-3.1214,-3.0865,-3.0676,-3.0487,-3.0323,-3.004,-2.9686,-2.9103,-2.9213,-2.9331,-4.2986,-4.2986,-4.2986,-4.2986,0.0,-4.2986,-4.2811,-4.259,-4.1982,-4.1291,-4.0513,-4.0224,-3.9948,-3.9697,-3.9697,-3.9633,-3.9478,-3.9374,-3.905,-3.8631,-3.8461,-3.825,-3.7974,-3.7697,-3.7589,-3.7553,-3.7048,-3.6795,-3.6771,-3.6531,-3.6266,-3.6002,-3.6002,-3.5737,-3.5171,-3.4907,-3.4775,-3.4775,-3.4775,-3.4522,-3.4018,-3.3789,-3.302,-3.1753,-3.0639,0.0,0.0,0.0,0.0,0.0,0.0,0.0,0.0,0.0,0.0,-2.6478,-2.6478,-2.6756,-2.731,-2.8258,-2.8881,-2.8941,-2.8813,-2.7381,-2.421,-2.5421,-2.6328,-2.6348,-2.7129,-2.7812,-2.8232,-2.8486,-2.8857,-2.9463,-2.9551,-2.9814,-3.043,-3.0723,-3.085,-3.0898,-3.1074,-3.1133,-3.0918,-3.0898,-3.0898,-3.0898,-3.0898,-3.0908,-3.0898,-3.0898,-3.0898,-3.0898,-3.0898,-3.0898,-3.0898,-3.0898,-3.0898,-3.0937,-3.1103,-3.1227,-3.1265,-3.1667,-3.1902,-3.1819,-3.1979,-3.2051,-3.1277,-3.1083,-3.0987,-3.0408,-3.0192,-2.9981,-2.9568,-2.9568,-2.9677,-4.2986,-4.2986,-4.2986,-4.2986,-4.2986,-4.2986,-4.2986,-4.2992,0.0,0.0,0.0,-4.0714,-4.04,-3.9986,-3.9898,-3.9835,-3.9835,-3.9463,-3.9154,-3.8905,-3.8566,-3.8303,-3.8092,-3.8039,-3.7974,-3.7962,-3.7541,-3.7336,-3.7312,-3.6892,-3.6627,-3.6555,-3.6543,-3.6278,-3.5761,-3.5316,-3.5064,-3.4968,-3.4823,-3.457,-3.415,-3.403,-3.3368,-3.203,-3.1392,-3.035,-2.8979,-2.851,-2.7861,-2.7007,-2.7031,-2.7236,-2.7582,-2.8086,-2.8955,-3.0134,-3.0819,-3.1284,-3.1444,-3.2572,-3.277,-3.1679,-3.1335,-2.9875,-2.682,-2.7794,-2.8516,-2.8516,-2.8896,-2.9287,-2.9704,-2.9812,-2.998,-3.0381,-3.043,-3.0615,-3.1064,-3.1406,-3.1484,-3.1221,-3.1435,-3.1514,-3.1211,-3.1162,-3.1123,-3.1123,-3.1191,-3.1113,-3.1094,-3.1006,-3.0898,-3.0898,-3.0898,-3.0898,-3.0898,-3.0898,-3.0908,-3.1035,-3.1377,-3.1641,-3.1836,-3.2383,-3.2715,-3.2458,-3.2988,-3.2737,-3.1718,-3.1609,-3.144,-3.052,-3.0361,-3.043,-3.0252,-3.0097,-3.0049,-4.2986,-4.2986,-4.2986,-4.2986,-4.2986,-4.2986,-4.2986,-4.2936,-4.2451,-4.2125,-4.1949,-4.143,-4.1125,-4.1078,-4.0614,-4.04,-4.031,-3.9638,-3.9258,-3.9206,-3.8671,-3.8356,-3.8356,-3.8092,-3.7974,-3.7974,-3.7902,-3.7878,-3.7853,-3.7781,-3.7541,-3.7132,-3.7084,-3.6819,-3.6326,-3.6218,-3.5954,-3.5509,-3.5052,-3.4751,-3.4667,-3.4222,-3.3741,-3.3068,-3.2138,-3.1296,-3.0579,-3.0458,-3.0362,-3.0272,-3.0681,-3.0766,-3.0362,-3.0862,-3.1055,-3.0874,-3.1709,-3.2659,-3.3478,-3.3295,-3.26,-3.1392,-3.0715,-2.9852,-2.8667,-2.9049,-2.945,-2.946,-2.9766,-3.0029,-3.0127,-3.0469,-3.0869,-3.125,-3.1328,-3.1504,-3.1894,-3.2021,-3.2041,-3.1943,-3.2031,-3.206,-3.1943,-3.1924,-3.1914,-3.1953,-3.1855,-3.1943,-3.1807,-3.1348,-3.0937,-3.0898,-3.0898,-3.0898,-3.0937,-3.0898,-3.1084,-3.1377,-3.1787,-3.2178,-3.2461,-3.293,-3.3223,-3.3223,-3.331,-3.3082,-3.2546,-3.2283,-3.1998,-3.1636,-3.1229,-3.0957,-3.1052,-3.0937,-3.0567,-4.2986,-4.2986,-4.2986,-4.2986,-4.2986,-4.2986,-4.2986,-4.2949,-4.2778,-4.2434,-4.22,-4.1894,-4.1605,-4.1275,-4.1025,-4.0965,-4.0899,-4.0542,-4.0205,-3.9927,-3.939,-3.8924,-3.8621,-3.8183,-3.7974,-3.7974,-3.7974,-3.7974,-3.7974,-3.7974,-3.7853,-3.7601,-3.7336,-3.7072,-3.6831,-3.6543,-3.6278,-3.605,-3.5521,-3.5112,-3.4787,-3.4546,-3.4162,-3.3717,-3.2923,-3.2298,-3.1769,-3.1512,-3.1356,-3.1344,-3.1862,-3.213,-3.2202,-3.2947,-3.3392,-3.3477,-3.4186,-3.4519,-3.4302,-3.3708,-3.2974,-3.2093,-3.1956,-3.1426,-3.0361,-3.0293,-3.0283,-3.0303,-3.0664,-3.0908,-3.0918,-3.1318,-3.166,-3.1846,-3.1875,-3.1953,-3.2209,-3.2393,-3.2422,-3.2236,-3.2373,-3.2422,-3.2258,-3.2229,-3.2229,-3.2229,-3.2168,-3.2238,-3.2178,-3.1865,-3.1494,-3.1309,-3.1426,-3.1455,-3.1289,-3.1445,-3.165,-3.1855,-3.2226,-3.2549,-3.2793,-3.3135,-3.3379,-3.3418,-3.3418,-3.3154,-3.2617,-3.2519,-3.2236,-3.1562,-3.171,-3.1533,-3.1299,-3.1172,-3.1044,-4.2986,-4.2986,-4.2986,-4.2986,-4.2986,-4.2986,-4.2986,-4.2986,-4.2974,-4.2791,-4.2426,-4.2401,-4.2108,-4.1664,-4.158,-4.1463,-4.1451,-4.123,-4.091,-4.0548,-3.995,-3.943,-3.9056,-3.8593,-3.8286,-3.819,-3.8166,-3.8118,-3.7998,-3.7974,-3.7974,-3.7938,-3.7577,-3.7372,-3.736,-3.6964,-3.6699,-3.6567,-3.6182,-3.5725,-3.5208,-3.5184,-3.4992,-3.4534,-3.421,-3.3801,-3.3392,-3.2959,-3.2777,-3.2789,-3.314,-3.3573,-3.3994,-3.4739,-3.5364,-3.5785,-3.629,-3.6149,-3.5262,-3.4683,-3.3962,-3.3059,-3.3306,-3.2985,-3.181,-3.1377,-3.1172,-3.1221,-3.1465,-3.165,-3.167,-3.1924,-3.2258,-3.2295,-3.2305,-3.2363,-3.2471,-3.2744,-3.2822,-3.2549,-3.2744,-3.2812,-3.2549,-3.2451,-3.248,-3.251,-3.2451,-3.2451,-3.2441,-3.2441,-3.2266,-3.1992,-3.2021,-3.2012,-3.1738,-3.1904,-3.2148,-3.2275,-3.2559,-3.2783,-3.2949,-3.3232,-3.3389,-3.3418,-3.3418,-3.3144,-3.2529,-3.2451,-3.2285,-3.168,-3.1738,-3.1777,-3.1406,-3.1484,-3.1513,-4.2986,-4.2986,-4.2986,-4.2986,-4.2986,-4.2986,-4.2986,-4.2986,-4.2986,-4.3017,-4.2873,-4.2954,-4.2848,-4.276,-4.2296,-4.2125,-4.2032,-4.1037,-4.073,-4.0785,-3.9989,-3.9678,-3.9831,-3.9551,-3.92,-3.8791,-3.8743,-3.8479,-3.8046,-3.7986,-3.7974,-3.7974,-3.7926,-3.7878,-3.789,-3.7841,-3.7589,-3.7132,-3.7084,-3.6795,-3.6302,-3.6266,-3.6242,-3.6194,-3.6122,-3.611,-3.5881,-3.6002,-3.5954,-3.5978,-3.5942,-3.6038,-3.6098,-3.6206,-3.629,-3.635,-3.6831,-3.7044,-3.6755,-3.6706,-3.5733,-3.4177,-3.3917,-3.3443,-3.2291,-3.208,-3.2051,-3.206,-3.209,-3.2109,-3.2119,-3.2178,-3.2383,-3.2705,-3.2734,-3.2881,-3.3174,-3.334,-3.335,-3.332,-3.3271,-3.334,-3.3223,-3.3193,-3.3232,-3.3174,-3.3144,-3.3154,-3.3164,-3.3164,-3.3057,-3.2695,-3.2441,-3.2217,-3.2139,-3.219,-3.2402,-3.2676,-3.2764,-3.2959,-3.3213,-3.334,-3.3418,-3.3418,-3.3418,-3.3223,-3.2812,-3.2529,-3.2393,-3.2246,-3.2012,-3.1699,-3.1924,-3.207,-3.201,-4.2986,-4.2986,-4.2986,-4.2986,-4.2986,-4.2986,-4.2986,-4.2986,-4.2986,-4.2986,-4.2986,-4.2986,-4.2986,-4.2961,-4.2791,-4.269,-4.2622,-4.2188,-4.1922,-4.1774,-4.1004,-4.0568,-4.0408,-3.9896,-3.9477,-3.9308,-3.9284,-3.9008,-3.8503,-3.8154,-3.7974,-3.7974,-3.7974,-3.7974,-3.7974,-3.7974,-3.7878,-3.7673,-3.7661,-3.7553,-3.7288,-3.6711,-3.6411,-3.6411,-3.6411,-3.6411,-3.6411,-3.6411,-3.6411,-3.6423,-3.6687,-3.6867,-3.6879,-3.7168,-3.7336,-3.7308,-3.7181,-3.6887,-3.6408,-3.5709,-3.4636,-3.3095,-3.3225,-3.3061,-3.261,-3.2764,-3.291,-3.2881,-3.2695,-3.2539,-3.2549,-3.2764,-3.2978,-3.3135,-3.3174,-3.3232,-3.3389,-3.3418,-3.3418,-3.3418,-3.3418,-3.3418,-3.3418,-3.3418,-3.3418,-3.3418,-3.3418,-3.3418,-3.3418,-3.3418,-3.335,-3.3203,-3.3008,-3.2803,-3.2617,-3.2773,-3.2949,-3.3096,-3.3164,-3.3281,-3.334,-3.3418,-3.3418,-3.3418,-3.3418,-3.3262,-3.2851,-3.291,-3.2891,-3.2676,-3.2363,-3.21,-3.2764,-3.2705,-3.2594,-4.2986,-4.2986,-4.2986,-4.2986,-4.2986,-4.2986,-4.2986,-4.2986,-4.2986,-4.2986,-4.2986,-4.2986,-4.2986,-4.2986,-4.2986,-4.2986,-4.2974,-4.2918,-4.2694,-4.2319,-4.1668,-4.1216,-4.0874,-4.0335,-3.9958,-3.9838,-3.9813,-3.9549,-3.9044,-3.8647,-3.8431,-3.8431,-3.8419,-3.8431,-3.8407,-3.8298,-3.8214,-3.819,-3.807,-3.7974,-3.7866,-3.7228,-3.6843,-3.6831,-3.6843,-3.6843,-3.6831,-3.6843,-3.6831,-3.6843,-3.7204,-3.7493,-3.7637,-3.801,-3.8274,-3.8323,-3.7664,-3.7008,-3.6564,-3.5419,-3.4258,-3.3295,-3.3349,-3.3332,-3.308,-3.3242,-3.3398,-3.3379,-3.3144,-3.2959,-3.2998,-3.3242,-3.3408,-3.3418,-3.3418,-3.3418,-3.3418,-3.3418,-3.3418,-3.3418,-3.3418,-3.3418,-3.3418,-3.3418,-3.3418,-3.3418,-3.3418,-3.3418,-3.3418,-3.3418,-3.3408,-3.3418,-3.3408,-3.3291,-3.3047,-3.3144,-3.3398,-3.3418,-3.3389,-3.3379,-3.3418,-3.3418,-3.3418,-3.3418,-3.3418,-3.335,-3.3096,-3.3193,-3.3154,-3.2627,-3.2441,-3.2646,-3.3184,-3.3105,-3.3125,-4.2986,-4.2986,-4.2986,-4.2986,-4.2986,-4.2986,-4.2986,-4.2986,-4.2986,-4.2986,-4.2986,-4.2986,-4.2986,-4.2986,-4.2986,-4.2986,-4.2974,-4.2694,-4.2413,-4.2155,-4.1741,-4.1456,-4.1194,-4.1112,-4.0836,-4.0391,-4.0367,-4.009,-3.9609,-3.9513,-3.9537,-3.9501,-3.9441,-3.9489,-3.9393,-3.8984,-3.8779,-3.8743,-3.8334,-3.8034,-3.8022,-3.7962,-3.7926,-3.7914,-3.789,-3.7829,-3.7866,-3.7902,-3.7902,-3.7914,-3.795,-3.8202,-3.8671,-3.8755,-3.8996,-3.933,-3.8332,-3.7873,-3.8009,-3.7027,-3.5954,-3.5313,-3.5016,-3.4654,-3.3456,-3.3379,-3.3437,-3.3428,-3.3428,-3.3389,-3.3428,-3.3428,-3.3418,-3.3418,-3.3418,-3.3418,-3.3418,-3.3418,-3.3418,-3.3418,-3.3418,-3.3418,-3.3418,-3.3418,-3.3418,-3.3418,-3.3418,-3.3418,-3.3418,-3.3418,-3.3418,-3.3418,-3.3418,-3.3408,-3.3389,-3.3379,-3.3398,-3.3418,-3.3418,-3.3418,-3.3418,-3.3418,-3.3418,-3.3418,-3.3418,-3.3389,-3.332,-3.3193,-3.3018,-3.2851,-3.3037,-3.332,-3.3389,-3.3408,-3.3398,-4.2986,-4.2986,-4.2986,-4.2986,-4.2986,-4.2986,-4.2986,-4.2986,-4.2986,-4.2986,-4.2986,-4.2986,-4.2986,-4.2986,-4.2986,-4.2986,-4.2986,-4.2862,-4.2638,-4.2369,-4.2029,-4.1732,-4.1447,-4.1287,-4.11,-4.0932,-4.0896,-4.0631,-4.0114,-3.9777,-3.9609,-3.9609,-3.9609,-3.9609,-3.9573,-3.9417,-3.9333,-3.9296,-3.9104,-3.902,-3.8996,-3.902,-3.9032,-3.8984,-3.8334,-3.7974,-3.7974,-3.8322,-3.8515,-3.8515,-3.8839,-3.9104,-3.9296,-3.932,-3.9561,-3.9918,-3.8869,-3.8366,-3.8685,-3.7703,-3.652,-3.552,-3.5387,-3.4849,-3.3723,-3.3428,-3.3535,-3.376,-3.3828,-3.3935,-3.4062,-3.376,-3.3418,-3.3418,-3.3428,-3.3447,-3.3418,-3.3418,-3.3418,-3.3418,-3.3418,-3.3418,-3.3418,-3.3418,-3.3418,-3.3418,-3.3418,-3.3418,-3.3418,-3.3418,-3.3418,-3.3418,-3.3418,-3.3418,-3.3418,-3.3408,-3.3418,-3.3418,-3.3418,-3.3418,-3.3418,-3.3418,-3.3418,-3.3418,-3.3418,-3.3408,-3.3359,-3.333,-3.3115,-3.3174,-3.3389,-3.3389,-3.3418,-3.3418,-3.3418,-4.2986,-4.2986,-4.2986,-4.2986,-4.2986,-4.2986,-4.2986,-4.2986,-4.2986,-4.2986,-4.2986,-4.2986,-4.2986,-4.2986,-4.2986,-4.2986,-4.2974,-4.2862,-4.2694,-4.2369,-4.2086,-4.1789,-4.1504,-4.1287,-4.1184,-4.1184,-4.1184,-4.0992,-4.0667,-4.0294,-4.0126,-4.0126,-4.0114,-4.0114,-4.009,-3.9958,-3.9862,-3.985,-3.9705,-3.9597,-3.9609,-3.9609,-3.9609,-3.9501,-3.8888,-3.8503,-3.8515,-3.8876,-3.9068,-3.9128,-3.9417,-3.9681,-3.9838,-4.003,-4.027,-4.0482,-3.9383,-3.8802,-3.8971,-3.8018,-3.6828,-3.5697,-3.5604,-3.5084,-3.398,-3.3838,-3.3994,-3.4209,-3.4287,-3.4424,-3.4502,-3.417,-3.3838,-3.3838,-3.3838,-3.3838,-3.3818,-3.3711,-3.3574,-3.3447,-3.3418,-3.3418,-3.3418,-3.3418,-3.3418,-3.3418,-3.3418,-3.3418,-3.3418,-3.3418,-3.3418,-3.3418,-3.3418,-3.3418,-3.3418,-3.3418,-3.3418,-3.3418,-3.3418,-3.3418,-3.3418,-3.3418,-3.3418,-3.3418,-3.3418,-3.3418,-3.3418,-3.3418,-3.3418,-3.3418,-3.3408,-3.3408,-3.3418,-3.3418,-3.3418,-4.2986,-4.2986,-4.2986,-4.2986,-4.2986,-4.2986,-4.2986,-4.2986,-4.2986,-4.2986,-4.2986,-4.2986,-4.2986,-4.2986,-4.2986,-4.2986,-4.293,-4.2638,-4.2369,-4.2098,-4.1789,-4.1504,-4.123,-4.1242,-4.1184,-4.1184,-4.1184,-4.1184,-4.1112,-4.1052,-4.1028,-4.1112,-4.104,-4.0992,-4.1124,-4.0631,-4.0403,-4.0319,-3.9994,-3.9729,-3.9633,-3.9741,-3.9765,-3.9717,-3.9633,-3.9609,-3.9609,-3.9609,-3.9609,-3.9621,-3.9681,-3.9898,-4.0391,-4.08,-4.1136,-4.0928,-3.9931,-3.9298,-3.9192,-3.8298,-3.7353,-3.6633,-3.6154,-3.5824,-3.5027,-3.4691,-3.4609,-3.4697,-3.4707,-3.4746,-3.4785,-3.4756,-3.4668,-3.4668,-3.4541,-3.4551,-3.4531,-3.4297,-3.3926,-3.3613,-3.3525,-3.3447,-3.3437,-3.3437,-3.3428,-3.3418,-3.3418,-3.3418,-3.3418,-3.3418,-3.3418,-3.3418,-3.3418,-3.3418,-3.3418,-3.3418,-3.3418,-3.3418,-3.3418,-3.3418,-3.3418,-3.3418,-3.3418,-3.3418,-3.3418,-3.3418,-3.3418,-3.3418,-3.3418,-3.3418,-3.3418,-3.3418,-3.3418,-3.3418,-3.3418,-4.2986,-4.2986,-4.2986,-4.2986,-4.2986,-4.2986,-4.2986,-4.2986,-4.2986,-4.2986,-4.2986,-4.2986,-4.2986,-4.2986,-4.2986,-4.2862,-4.2638,-4.2369,-4.2155,-4.2041,-4.1732,-4.1447,-4.1242,-4.1184,-4.1184,-4.1184,-4.1184,-4.1184,-4.1184,-4.1184,-4.1184,-4.1184,-4.1184,-4.1184,-4.1184,-4.1016,-4.0944,-4.0908,-4.0787,-4.0691,-4.0691,-4.0691,-4.0679,-4.0691,-4.0691,-4.0691,-4.0679,-4.0355,-4.0162,-4.015,-4.0499,-4.0775,-4.0944,-4.11,-4.1184,-4.1093,-4.0305,-4.0232,-4.0905,-4.0306,-3.9543,-3.9159,-3.8437,-3.7308,-3.6251,-3.524,-3.4929,-3.5117,-3.5176,-3.5273,-3.5537,-3.5605,-3.5351,-3.4766,-3.4697,-3.4736,-3.4726,-3.46,-3.4463,-3.4297,-3.4053,-3.3896,-3.3809,-3.3672,-3.3467,-3.3447,-3.3437,-3.3418,-3.3418,-3.3418,-3.3418,-3.3418,-3.3418,-3.3418,-3.3418,-3.3418,-3.3418,-3.3418,-3.3418,-3.3418,-3.3418,-3.3418,-3.3418,-3.3418,-3.3418,-3.3418,-3.3418,-3.3418,-3.3418,-3.3418,-3.3418,-3.3418,-3.3418,-3.3418,-3.3418,-4.2986,-4.2986,-4.2986,-4.2986,-4.2986,-4.2986,-4.2986,-4.2986,-4.2986,-4.2986,-4.2986,-4.2986,-4.2986,-4.2986,-4.2862,-4.2694,-4.2469,-4.2142,-4.1915,-4.1859,-4.1573,-4.1344,-4.1184,-4.1184,-4.1184,-4.1184,-4.1184,-4.1184,-4.1184,-4.1184,-4.1184,-4.1184,-4.1184,-4.1184,-4.1184,-4.1184,-4.1184,-4.1184,-4.1172,-4.1184,-4.1184,-4.1184,-4.1184,-4.1184,-4.1184,-4.1184,-4.1148,-4.0848,-4.0679,-4.0739,-4.1016,-4.1256,-4.1437,-4.1485,-4.1557,-4.1681,-4.1425,-4.1448,-4.2113,-4.1779,-4.1335,-4.095,-3.9744,-3.8529,-3.7307,-3.596,-3.5408,-3.5557,-3.5635,-3.5742,-3.5957,-3.6016,-3.5742,-3.5273,-3.5215,-3.5117,-3.501,-3.4951,-3.4834,-3.4678,-3.4443,-3.4336,-3.4219,-3.3945,-3.3682,-3.3662,-3.3516,-3.3418,-3.3418,-3.3418,-3.3418,-3.3418,-3.3418,-3.3418,-3.3418,-3.3418,-3.3418,-3.3418,-3.3418,-3.3418,-3.3418,-3.3418,-3.3418,-3.3418,-3.3418,-3.3418,-3.3418,-3.3418,-3.3418,-3.3418,-3.3418,-3.3418,-3.3418,-3.3418,-3.3418,-4.2986,-4.2986,-4.2986,-4.2986,-4.2986,-4.2986,-4.2986,-4.2986,-4.2986,-4.2986,-4.2986,-4.2986,-4.2986,-4.2918,-4.2694,-4.2525,-4.2369,-4.2001,-4.174,-4.1707,-4.1514,-4.1434,-4.1208,-4.1365,-4.1389,-4.1196,-4.1256,-4.128,-4.1317,-4.1317,-4.1256,-4.1401,-4.1365,-4.1256,-4.1293,-4.1232,-4.1184,-4.1184,-4.1184,-4.1184,-4.1184,-4.1184,-4.1184,-4.1184,-4.1184,-4.122,-4.1293,-4.1329,-4.1305,-4.1244,-4.1329,-4.1617,-4.1988,-4.2073,-4.2289,-4.2663,-4.2747,-4.2736,-4.2796,-4.2591,-4.2272,-4.1552,-4.0077,-3.9024,-3.7968,-3.6696,-3.5859,-3.5937,-3.5967,-3.5986,-3.6016,-3.6025,-3.5976,-3.6006,-3.5869,-3.5732,-3.5488,-3.542,-3.5283,-3.4961,-3.4775,-3.4736,-3.4717,-3.4375,-3.4141,-3.3965,-3.3711,-3.3574,-3.3418,-3.3418,-3.3418,-3.3418,-3.3418,-3.3418,-3.3418,-3.3418,-3.3418,-3.3418,-3.3418,-3.3418,-3.3418,-3.3418,-3.3418,-3.3418,-3.3418,-3.3418,-3.3418,-3.3418,-3.3418,-3.3418,-3.3418,-3.3418,-3.3418,-3.3418,-3.3418,-4.2986,-4.2986,-4.2986,-4.2986,-4.2986,-4.2986,-4.2986,-4.2986,-4.2986,-4.2986,-4.2986,-4.2986,-4.2986,-4.2986,-4.265,-4.2413,-4.2253,-4.2217,-4.2086,-4.1997,-4.2253,-4.1904,-4.1567,-4.2036,-4.1988,-4.1377,-4.1605,-4.1761,-4.1774,-4.1761,-4.1942,-4.2374,-4.193,-4.1774,-4.1725,-4.1413,-4.1196,-4.1184,-4.1184,-4.1196,-4.1184,-4.1184,-4.1184,-4.1184,-4.1208,-4.1401,-4.1749,-4.2205,-4.2193,-4.188,-4.2217,-4.2458,-4.2578,-4.2614,-4.2651,-4.2844,-4.3132,-4.3313,-4.3203,-4.2718,-4.2302,-4.1925,-3.9822,-3.8371,-3.8078,-3.6809,-3.6161,-3.6025,-3.6025,-3.6025,-3.6025,-3.6025,-3.6025,-3.6025,-3.6025,-3.5976,-3.5869,-3.5859,-3.5791,-3.5664,-3.5391,-3.5244,-3.5117,-3.4834,-3.4453,-3.4199,-3.3975,-3.3779,-3.3594,-3.3418,-3.3418,-3.3418,-3.3418,-3.3418,-3.3418,-3.3418,-3.3418,-3.3418,-3.3418,-3.3418,-3.3418,-3.3418,-3.3418,-3.3418,-3.3418,-3.3418,-3.3418,-3.3418,-3.3418,-3.3418,-3.3418,-3.3418,-3.3418,-3.3418,-3.3418,-4.2986,-4.2986,-4.2986,-4.2986,-4.2986,-4.2986,-4.2986,-4.2986,-4.2986,-4.2986,-4.2986,-4.2986,-4.2986,-4.2999,-4.2761,-4.2658,-4.263,-4.2576,-4.2561,-4.2599,-4.2867,-4.2639,-4.2229,-4.2602,-4.2482,-4.2024,-4.2146,-4.2338,-4.2362,-4.2362,-4.2542,-4.2687,-4.2518,-4.2362,-4.235,-4.2026,-4.1701,-4.1569,-4.1509,-4.1437,-4.1196,-4.1184,-4.1341,-4.1437,-4.1533,-4.1774,-4.2279,-4.2796,-4.2832,-4.2542,-4.2651,-4.2903,-4.306,-4.3072,-4.318,-4.3397,-4.3709,-4.3608,-4.3027,-4.2522,-4.2016,-4.1248,-3.9288,-3.8308,-3.7842,-3.6799,-3.6025,-3.6025,-3.6025,-3.6025,-3.6025,-3.6025,-3.6025,-3.6025,-3.6025,-3.6025,-3.6025,-3.6006,-3.6025,-3.5957,-3.582,-3.5654,-3.5644,-3.5254,-3.4932,-3.4629,-3.4277,-3.4033,-3.3779,-3.3584,-3.3418,-3.3418,-3.3418,-3.3418,-3.3418,-3.3418,-3.3418,-3.3418,-3.3418,-3.3418,-3.3418,-3.3418,-3.3418,-3.3418,-3.3418,-3.3418,-3.3418,-3.3418,-3.3418,-3.3418,-3.3418,-3.3418,-3.3418,-3.3418,-3.3418,-4.2986,-4.2986,-4.2986,-4.2986,-4.2986,-4.2986,-4.2986,-4.2986,-4.2986,-4.2986,-4.2986,-4.2986,-4.3049,-4.3043,-4.2925,-4.3037,-4.3297,-4.3006,-4.3154,-4.33,-4.347,-4.3313,-4.3012,-4.3036,-4.2904,-4.2735,-4.2819,-4.2832,-4.2832,-4.2832,-4.2892,-4.3,-4.3012,-4.2891,-4.2855,-4.2783,-4.2542,-4.2193,-4.2062,-4.1882,-4.1605,-4.1557,-4.1713,-4.2002,-4.2206,-4.2399,-4.2856,-4.3289,-4.3397,-4.2964,-4.2928,-4.3228,-4.3565,-4.3601,-4.3794,-4.4057,-4.4103,-4.3704,-4.2512,-4.212,-4.1377,-4.0073,-3.8629,-3.7919,-3.7528,-3.6606,-3.6025,-3.6025,-3.6025,-3.6025,-3.6025,-3.6025,-3.6025,-3.6025,-3.6025,-3.6025,-3.6025,-3.6025,-3.6025,-3.6025,-3.6016,-3.6025,-3.5928,-3.5723,-3.542,-3.5059,-3.4707,-3.4385,-3.4072,-3.3789,-3.3584,-3.3418,-3.3418,-3.3418,-3.3418,-3.3418,-3.3418,-3.3418,-3.3418,-3.3418,-3.3418,-3.3418,-3.3418,-3.3418,-3.3418,-3.3418,-3.3418,-3.3418,-3.3418,-3.3418,-3.3418,-3.3418,-3.3418,-3.3418,-3.3418,-4.2986,-4.2986,-4.2986,-4.2986,-4.2986,-4.2986,-4.2986,-4.2986,-4.2986,-4.2986,-4.2986,-4.2986,-4.31,-4.3216,-4.3045,-4.3002,-4.3338,-4.3373,-4.3614,-4.3998,-4.4082,-4.4069,-4.3974,-4.3926,-4.3517,-4.312,-4.3204,-4.3349,-4.3349,-4.3397,-4.3577,-4.3866,-4.3517,-4.3349,-4.3325,-4.3048,-4.2795,-4.2603,-4.2591,-4.2578,-4.2434,-4.2386,-4.2458,-4.2675,-4.2952,-4.3204,-4.3409,-4.3878,-4.4033,-4.4034,-4.3913,-4.3962,-4.4021,-4.4069,-4.4129,-4.4213,-4.4285,-4.3701,-4.2408,-4.1248,-4.0062,-3.8639,-3.7461,-3.6491,-3.6491,-3.6287,-3.6025,-3.6025,-3.6025,-3.6025,-3.6025,-3.6025,-3.6025,-3.6025,-3.6025,-3.6025,-3.6025,-3.6025,-3.6025,-3.6025,-3.6025,-3.6025,-3.6025,-3.5967,-3.5713,-3.5449,-3.5127,-3.4785,-3.4424,-3.4062,-3.3789,-3.3574,-3.3428,-3.3428,-3.3418,-3.3418,-3.3418,-3.3418,-3.3418,-3.3418,-3.3418,-3.3418,-3.3418,-3.3418,-3.3418,-3.3418,-3.3418,-3.3418,-3.3418,-3.3418,-3.3418,-3.3418,-3.3418,-3.3418,-3.3418,-4.2986,-4.2986,-4.2986,-4.2986,-4.2986,-4.2986,-4.2986,-4.2986,-4.2986,-4.2986,-4.2986,-4.2986,-4.3119,-4.3288,-4.3284,-4.348,-4.3828,-4.4038,-4.4169,-4.4287,-4.4273,-4.4285,-4.4285,-4.4273,-4.3998,-4.3553,-4.3746,-4.389,-4.3902,-4.3914,-4.3973,-4.4249,-4.3961,-4.3865,-4.3841,-4.3613,-4.3397,-4.3144,-4.3108,-4.3072,-4.2855,-4.2819,-4.2988,-4.3168,-4.3601,-4.3841,-4.3889,-4.4105,-4.4261,-4.4285,-4.4285,-4.4285,-4.4285,-4.4285,-4.4285,-4.4285,-4.4285,-4.324,-4.1633,-4.0527,-3.9354,-3.7358,-3.6345,-3.6152,-3.6025,-3.6025,-3.6025,-3.6025,-3.6025,-3.6025,-3.6025,-3.6025,-3.6025,-3.6025,-3.6025,-3.6025,-3.6025,-3.6025,-3.6025,-3.6025,-3.6025,-3.6025,-3.6025,-3.6025,-3.5986,-3.5723,-3.542,-3.5088,-3.4863,-3.4482,-3.4053,-3.3789,-3.3545,-3.3428,-3.3418,-3.3418,-3.3418,-3.3418,-3.3418,-3.3418,-3.3418,-3.3418,-3.3418,-3.3418,-3.3418,-3.3418,-3.3418,-3.3418,-3.3418,-3.3418,-3.3418,-3.3418,-3.3418,-3.3418,-3.3418,-4.2986,-4.2986,-4.2986,-4.2986,-4.2986,-4.2986,-4.2986,-4.2986,-4.2986,-4.2986,-4.3011,-4.3049,-4.3274,-4.3391,-4.3727,-4.4079,-4.4341,-4.4524,-4.4434,-4.4335,-4.4285,-4.4285,-4.4285,-4.4273,-4.4261,-4.4285,-4.4225,-4.4225,-4.4225,-4.4285,-4.4213,-4.4285,-4.4273,-4.4201,-4.4249,-4.4261,-4.3997,-4.3697,-4.3637,-4.3505,-4.3192,-4.312,-4.3325,-4.3649,-4.3937,-4.4201,-4.4201,-4.4261,-4.4285,-4.4285,-4.4285,-4.4285,-4.4285,-4.4285,-4.4285,-4.4285,-4.4025,-4.2742,-4.1028,-4.005,-3.8807,-3.6377,-3.624,-3.625,-3.6279,-3.6338,-3.6348,-3.6318,-3.6338,-3.6299,-3.6152,-3.6182,-3.6123,-3.6055,-3.6025,-3.6025,-3.6025,-3.6025,-3.6025,-3.6025,-3.6025,-3.6025,-3.6025,-3.6025,-3.6025,-3.5976,-3.5674,-3.541,-3.5176,-3.4902,-3.4473,-3.4033,-3.3779,-3.3506,-3.3457,-3.3418,-3.3418,-3.3418,-3.3418,-3.3418,-3.3418,-3.3418,-3.3418,-3.3418,-3.3418,-3.3418,-3.3418,-3.3418,-3.3418,-3.3418,-3.3418,-3.3418,-3.3418,-3.3418,-3.3418,-4.2986,-4.2986,-4.2986,-4.2986,-4.2986,-4.2986,-4.2986,-4.2986,-4.2986,-4.2986,-4.3037,-4.3438,-4.3547,-4.3724,-4.4126,-4.4365,-4.4377,-4.4434,-4.4409,-4.4285,-4.4285,-4.4285,-4.4285,-4.4285,-4.4285,-4.4285,-4.4285,-4.4285,-4.4285,-4.4285,-4.4285,-4.4285,-4.4285,-4.4285,-4.4285,-4.4285,-4.4249,-4.4081,-4.4057,-4.3961,-4.3962,-4.3938,-4.3901,-4.4069,-4.4225,-4.4273,-4.4285,-4.4285,-4.4285,-4.4285,-4.4285,-4.4285,-4.4285,-4.4285,-4.4285,-4.3974,-4.3322,-4.2168,-4.0651,-3.9509,-3.8477,-3.7381,-3.7002,-3.7021,-3.7031,-3.7031,-3.6924,-3.6973,-3.6963,-3.6914,-3.6601,-3.6514,-3.6357,-3.6172,-3.6035,-3.6025,-3.6025,-3.6025,-3.6025,-3.6025,-3.6025,-3.6025,-3.6025,-3.6025,-3.6025,-3.6025,-3.5889,-3.5654,-3.5449,-3.5205,-3.4892,-3.4453,-3.4033,-3.374,-3.3496,-3.3447,-3.3418,-3.3418,-3.3418,-3.3418,-3.3418,-3.3418,-3.3418,-3.3418,-3.3418,-3.3418,-3.3418,-3.3418,-3.3418,-3.3418,-3.3418,-3.3418,-3.3418,-3.3418,-3.3418,-4.2986,-4.2986,-4.2986,-4.2986,-4.2986,-4.2986,-4.2986,-4.2986,-4.2986,-4.2986,-4.3049,-4.3288,-4.351,-4.3715,-4.3954,-4.4171,-4.4302,-4.4285,-4.4285,-4.4285,-4.4285,-4.4285,-4.4285,-4.4285,-4.4285,-4.4285,-4.4285,-4.4285,-4.4285,-4.4285,-4.4285,-4.4285,-4.4285,-4.4285,-4.4285,-4.4285,-4.4285,-4.4285,-4.4285,-4.4285,-4.4285,-4.4285,-4.4285,-4.4285,-4.4285,-4.4285,-4.4285,-4.4285,-4.4285,-4.4285,-4.4285,-4.4285,-4.4285,-4.4223,-4.3962,-4.3298,-4.2777,-4.1631,-4.0203,-3.9151,-3.857,-3.7507,-3.7314,-3.7295,-3.7295,-3.7266,-3.7344,-3.7324,-3.7295,-3.7217,-3.7002,-3.6836,-3.6582,-3.6387,-3.6182,-3.6055,-3.6035,-3.6035,-3.6025,-3.6025,-3.6025,-3.6025,-3.6025,-3.6025,-3.6025,-3.6025,-3.6025,-3.5879,-3.5684,-3.5469,-3.5225,-3.4853,-3.4404,-3.3994,-3.3711,-3.3584,-3.3457,-3.3418,-3.3418,-3.3418,-3.3418,-3.3418,-3.3418,-3.3418,-3.3418,-3.3418,-3.3418,-3.3418,-3.3418,-3.3418,-3.3418,-3.3418,-3.3418,-3.3418,-3.3418,-4.2986,-4.2986,-4.2986,-4.2986,-4.2986,-4.2986,-4.2986,-4.2986,-4.2986,-4.2986,-4.2999,-4.3175,-4.341,-4.3644,-4.3815,-4.4014,-4.4285,-4.4285,-4.4285,-4.4285,-4.4285,-4.4285,-4.4285,-4.4285,-4.4285,-4.4285,-4.4285,-4.4285,-4.4285,-4.4285,-4.4285,-4.4285,-4.4285,-4.4285,-4.4285,-4.4285,-4.4285,-4.4285,-4.4285,-4.4285,-4.4285,-4.4285,-4.4285,-4.4285,-4.4285,-4.4285,-4.4285,-4.4285,-4.4285,-4.4285,-4.4285,-4.4285,-4.4285,-4.4025,-4.3298,-4.2337,-4.2358,-4.1056,-3.9814,-3.882,-3.8517,-3.7747,-3.7598,-3.7578,-3.7607,-3.7695,-3.7627,-3.7559,-3.7588,-3.7549,-3.7432,-3.7148,-3.6934,-3.6719,-3.6435,-3.6152,-3.6162,-3.6133,-3.6035,-3.6025,-3.6025,-3.6025,-3.6025,-3.6025,-3.6025,-3.6025,-3.6025,-3.6025,-3.585,-3.5732,-3.5498,-3.5195,-3.4785,-3.4307,-3.3994,-3.3769,-3.3603,-3.3428,-3.3418,-3.3418,-3.3418,-3.3418,-3.3418,-3.3418,-3.3418,-3.3418,-3.3418,-3.3418,-3.3418,-3.3418,-3.3418,-3.3418,-3.3418,-3.3418,-3.3418,-4.2986,-4.2986,-4.2986,-4.2986,-4.2986,-4.2986,-4.2986,-4.2986,-4.2986,-4.2986,-4.3011,-4.3407,-4.3577,-4.3711,-4.4002,-4.4204,-4.4323,-4.4285,-4.4285,-4.4285,-4.4285,-4.4285,-4.4285,-4.4285,-4.4285,-4.4285,-4.4285,-4.4285,-4.4285,-4.4285,-4.4285,-4.4285,-4.4285,-4.4285,-4.4285,-4.4285,-4.4285,-4.4285,-4.4285,-4.4285,-4.4285,-4.4285,-4.4285,-4.4285,-4.4285,-4.4285,-4.4285,-4.4285,-4.4285,-4.4285,-4.4285,-4.4285,-4.4161,-4.3126,-4.2086,-4.1339,-4.0956,-4.066,-3.9664,-3.8819,-3.846,-3.8256,-3.831,-3.8398,-3.8291,-3.8281,-3.8281,-3.8418,-3.8369,-3.8184,-3.791,-3.7773,-3.7568,-3.7236,-3.6855,-3.6631,-3.6523,-3.6299,-3.6191,-3.6025,-3.6025,-3.6025,-3.6025,-3.6025,-3.6025,-3.6025,-3.6025,-3.6025,-3.6006,-3.5879,-3.5781,-3.5498,-3.5156,-3.4697,-3.4424,-3.418,-3.3935,-3.3643,-3.3535,-3.3516,-3.3525,-3.3535,-3.3418,-3.3418,-3.3418,-3.3418,-3.3418,-3.3418,-3.3418,-3.3418,-3.3418,-3.3418,-3.3418,-3.3418,-3.3418,-4.2753,-4.2986,-4.2986,-4.2986,-4.2986,-4.2986,-4.2986,-4.2986,-4.2986,-4.2986,-4.2955,-4.3031,-4.3173,-4.3438,-4.3759,-4.4046,-4.4225,-4.4285,-4.4285,-4.4285,-4.4285,-4.4285,-4.4285,-4.4285,-4.4285,-4.4285,-4.4285,-4.4285,-4.4285,-4.4285,-4.4285,-4.4285,-4.4285,-4.4285,-4.4285,-4.4285,-4.4285,-4.4285,-4.4285,-4.4285,-4.4285,-4.4285,-4.4285,-4.4285,-4.4285,-4.4285,-4.4285,-4.4285,-4.4285,-4.4285,-4.4285,-4.39,-4.3334,-4.2685,-4.1929,-4.0131,-4.0235,-3.9862,-3.8899,-3.8494,-3.8432,-3.8486,-3.8574,-3.8545,-3.8574,-3.8574,-3.8574,-3.8564,-3.8574,-3.8467,-3.8262,-3.8066,-3.7871,-3.7598,-3.7285,-3.6943,-3.6748,-3.6562,-3.6377,-3.6191,-3.6025,-3.6025,-3.6025,-3.6025,-3.6025,-3.6025,-3.6025,-3.6025,-3.6025,-3.5986,-3.5908,-3.582,-3.5469,-3.5078,-3.4883,-3.4678,-3.4473,-3.4189,-3.3877,-3.3848,-3.376,-3.3701,-3.3516,-3.3418,-3.3418,-3.3418,-3.3418,-3.3418,-3.3418,-3.3418,-3.3418,-3.3418,-3.3418,-3.3418,-3.3418,-4.2451,-4.2828,-4.2924,-4.2986,-4.2986,-4.2986,-4.2986,-4.2986,-4.2986,-4.2986,-4.2925,-4.2768,-4.2799,-4.3053,-4.3385,-4.377,-4.4057,-4.4213,-4.4273,-4.4285,-4.4285,-4.4285,-4.4285,-4.4285,-4.4285,-4.4285,-4.4285,-4.4285,-4.4285,-4.4285,-4.4285,-4.4285,-4.4285,-4.4285,-4.4285,-4.4285,-4.4285,-4.4285,-4.4285,-4.4285,-4.4285,-4.4285,-4.4285,-4.4285,-4.4285,-4.4285,-4.4285,-4.4285,-4.4285,-4.4285,-4.4285,-4.3776,-4.2731,-4.218,-4.132,-3.9841,-3.9535,-3.9071,-3.8628,-3.8442,-3.8545,-3.8574,-3.8574,-3.8574,-3.8574,-3.8574,-3.8574,-3.8574,-3.8574,-3.8574,-3.8516,-3.8262,-3.8174,-3.7978,-3.7715,-3.7295,-3.6904,-3.6728,-3.6455,-3.6162,-3.6025,-3.6025,-3.6025,-3.6025,-3.6025,-3.6025,-3.6025,-3.6025,-3.6025,-3.6025,-3.5996,-3.5928,-3.5791,-3.543,-3.5205,-3.5049,-3.4883,-3.4687,-3.4375,-3.4111,-3.3984,-3.373,-3.3467,-3.3418,-3.3418,-3.3418,-3.3418,-3.3418,-3.3418,-3.3418,-3.3418,-3.3418,-3.3418,-3.3418,-3.3418,-4.2225,-4.2313,-4.276,-4.2974,-4.2986,-4.2986,-4.2986,-4.2986,-4.2986,-4.2986,-4.2881,-4.2839,-4.2589,-4.2654,-4.3144,-4.3493,-4.3613,-4.4057,-4.4237,-4.4285,-4.4285,-4.4285,-4.4285,-4.4285,-4.4285,-4.4285,-4.4285,-4.4285,-4.4285,-4.4285,-4.4285,-4.4285,-4.4285,-4.4285,-4.4285,-4.4285,-4.4285,-4.4285,-4.4285,-4.4285,-4.4285,-4.4285,-4.4285,-4.4285,-4.4285,-4.4285,-4.4285,-4.4285,-4.4285,-4.4285,-4.4285,-4.3701,-4.25,-4.1732,-4.0762,-3.9719,-3.8809,-3.8546,-3.8471,-3.8496,-3.8555,-3.8574,-3.8574,-3.8574,-3.8574,-3.8574,-3.8574,-3.8574,-3.8574,-3.8574,-3.8574,-3.8535,-3.8428,-3.831,-3.8027,-3.7637,-3.7236,-3.6885,-3.6592,-3.6182,-3.6025,-3.6025,-3.6025,-3.6025,-3.6025,-3.6025,-3.6025,-3.6025,-3.6025,-3.6025,-3.6025,-3.6006,-3.6006,-3.5781,-3.5469,-3.5322,-3.5283,-3.5039,-3.4717,-3.4404,-3.4141,-3.3838,-3.3574,-3.3418,-3.3418,-3.3418,-3.3418,-3.3418,-3.3418,-3.3418,-3.3418,-3.3418,-3.3418,-3.3418,-3.3418,-4.1543,-4.2213,-4.2439,-4.2715,-4.2986,-4.2986,-4.2986,-4.2986,-4.2986,-4.2762,-4.2437,-4.225,-4.2117,-4.2321,-4.277,-4.3241,-4.3565,-4.4033,-4.4213,-4.4285,-4.4285,-4.4285,-4.4285,-4.4285,-4.4285,-4.4285,-4.4285,-4.4285,-4.4285,-4.4285,-4.4285,-4.4285,-4.4285,-4.4285,-4.4285,-4.4285,-4.4285,-4.4285,-4.4285,-4.4285,-4.4285,-4.4285,-4.4285,-4.4285,-4.4285,-4.4285,-4.4285,-4.4285,-4.4285,-4.4285,-4.4285,-4.3514,-4.2494,-4.1638,-4.0622,-3.9537,-3.8655,-3.8485,-3.8506,-3.8574,-3.8574,-3.8574,-3.8574,-3.8574,-3.8574,-3.8574,-3.8574,-3.8574,-3.8574,-3.8574,-3.8574,-3.8574,-3.8545,-3.8525,-3.832,-3.7939,-3.7539,-3.7158,-3.6719,-3.6299,-3.6103,-3.6025,-3.6025,-3.6025,-3.6025,-3.6025,-3.6025,-3.6025,-3.6025,-3.6025,-3.6025,-3.6025,-3.6025,-3.6025,-3.5742,-3.5693,-3.5684,-3.5391,-3.5059,-3.4726,-3.4404,-3.4101,-3.3848,-3.3633,-3.3418,-3.3418,-3.3418,-3.3418,-3.3418,-3.3418,-3.3418,-3.3418,-3.3418,-3.3418,-3.3418,-4.0965,-4.1681,-4.2074,-4.2527,-4.2949,-4.2986,-4.2986,-4.2974,-4.2862,-4.2525,-4.1972,-4.1688,-4.1629,-4.1926,-4.2291,-4.2808,-4.3277,-4.3782,-4.4081,-4.4225,-4.4285,-4.4285,-4.4285,-4.4285,-4.4285,-4.4285,-4.4285,-4.4285,-4.4285,-4.4285,-4.4285,-4.4285,-4.4285,-4.4285,-4.4285,-4.4285,-4.4285,-4.4285,-4.4285,-4.4285,-4.4285,-4.4285,-4.4285,-4.4285,-4.4285,-4.4285,-4.4285,-4.4285,-4.4285,-4.4285,-4.4161,-4.3576,-4.2626,-4.165,-4.0783,-3.9754,-3.8979,-3.8618,-3.8574,-3.8574,-3.8574,-3.8574,-3.8574,-3.8574,-3.8574,-3.8574,-3.8574,-3.8574,-3.8574,-3.8574,-3.8574,-3.8574,-3.8574,-3.8555,-3.8555,-3.8232,-3.7754,-3.7334,-3.6855,-3.6416,-3.624,-3.6025,-3.6025,-3.6025,-3.6025,-3.6025,-3.6025,-3.6025,-3.6025,-3.6025,-3.6025,-3.6025,-3.6025,-3.6025,-3.6006,-3.5918,-3.583,-3.5732,-3.54,-3.5039,-3.4717,-3.4385,-3.3955,-3.3584,-3.3418,-3.3418,-3.3418,-3.3418,-3.3418,-3.3418,-3.3418,-3.3418,-3.3418,-3.3418,-3.3418,-4.0538,-4.0676,-4.1735,-4.2464,-4.2898,-4.2986,-4.2986,-4.2918,-4.2581,-4.2174,-4.1663,-4.1606,-4.1459,-4.1459,-4.1894,-4.2363,-4.2784,-4.3301,-4.377,-4.4118,-4.4178,-4.4213,-4.4285,-4.4285,-4.4285,-4.4285,-4.4285,-4.4285,-4.4285,-4.4285,-4.4285,-4.4285,-4.4285,-4.4285,-4.4285,-4.4285,-4.4285,-4.4285,-4.4285,-4.4285,-4.4285,-4.4285,-4.4285,-4.4285,-4.4285,-4.4285,-4.4285,-4.4285,-4.4285,-4.4285,-4.4285,-4.3639,-4.2471,-4.1794,-4.0836,-3.9537,-3.8956,-3.8671,-3.8574,-3.8574,-3.8574,-3.8574,-3.8574,-3.8574,-3.8574,-3.8574,-3.8574,-3.8574,-3.8574,-3.8574,-3.8574,-3.8574,-3.8574,-3.8574,-3.8574,-3.8398,-3.79,-3.7461,-3.6982,-3.6533,-3.624,-3.6025,-3.6025,-3.6025,-3.6025,-3.6025,-3.6025,-3.6025,-3.6025,-3.6025,-3.6025,-3.6025,-3.6025,-3.6025,-3.6025,-3.6025,-3.5967,-3.5908,-3.5703,-3.5322,-3.4892,-3.4473,-3.4033,-3.3555,-3.3418,-3.3418,-3.3418,-3.3418,-3.3418,-3.3418,-3.3418,-3.3418,-3.3418,-3.3418,-3.3418,-4.0187,-4.0551,-4.0915,-4.1485,-4.22,-4.2767,-4.2862,-4.2569,-4.2118,-4.1777,-4.1606,-4.1447,-4.1287,-4.141,-4.1677,-4.2074,-4.2303,-4.2843,-4.3301,-4.3746,-4.383,-4.407,-4.4153,-4.4261,-4.4285,-4.4285,-4.4285,-4.4285,-4.4285,-4.4285,-4.4285,-4.4285,-4.4285,-4.4285,-4.4285,-4.4285,-4.4285,-4.4285,-4.4285,-4.4285,-4.4285,-4.4285,-4.4285,-4.4285,-4.4285,-4.4285,-4.4285,-4.4285,-4.4161,-4.4087,-4.4087,-4.3377,-4.2315,-4.164,-4.079,-3.964,-3.8916,-3.8627,-3.8574,-3.8574,-3.8574,-3.8574,-3.8574,-3.8574,-3.8574,-3.8574,-3.8574,-3.8574,-3.8574,-3.8574,-3.8574,-3.8574,-3.8574,-3.8574,-3.8525,-3.832,-3.7939,-3.7529,-3.709,-3.666,-3.6309,-3.6103,-3.6025,-3.6025,-3.6025,-3.6025,-3.6025,-3.6025,-3.6025,-3.6025,-3.6025,-3.6025,-3.6025,-3.6025,-3.6025,-3.6025,-3.6025,-3.5976,-3.581,-3.5547,-3.5098,-3.457,-3.4082,-3.3594,-3.3496,-3.3418,-3.3418,-3.3418,-3.3418,-3.3418,-3.3418,-3.3418,-3.3418,-3.3418,-3.3418,-3.991,-4.0237,-4.0438,-4.0796,-4.1384,-4.2206,-4.2382,-4.215,-4.1777,-4.1549,-4.1447,-4.1299,-4.1184,-4.1293,-4.1509,-4.187,-4.1978,-4.2362,-4.2831,-4.3228,-4.3481,-4.3721,-4.3925,-4.4177,-4.4273,-4.4285,-4.4285,-4.4285,-4.4285,-4.4285,-4.4285,-4.4285,-4.4285,-4.4285,-4.4285,-4.4285,-4.4285,-4.4285,-4.4285,-4.4285,-4.4285,-4.4285,-4.4285,-4.4285,-4.4285,-4.4285,-4.4161,-4.3962,-4.3639,-4.3565,-4.3114,-4.2535,-4.1646,-4.0989,-4.035,-3.9505,-3.8937,-3.8641,-3.8574,-3.8574,-3.8574,-3.8574,-3.8574,-3.8574,-3.8574,-3.8574,-3.8574,-3.8574,-3.8574,-3.8574,-3.8574,-3.8574,-3.8574,-3.8574,-3.8516,-3.832,-3.7969,-3.7559,-3.7139,-3.6719,-3.6318,-3.6142,-3.6025,-3.6025,-3.6025,-3.6025,-3.6025,-3.6025,-3.6025,-3.6025,-3.6025,-3.6025,-3.6025,-3.6025,-3.6025,-3.6025,-3.6025,-3.6025,-3.5869,-3.5684,-3.5137,-3.459,-3.4111,-3.3682,-3.3525,-3.3418,-3.3418,-3.3418,-3.3418,-3.3418,-3.3418,-3.3418,-3.3418,-3.3418,-3.3418,-3.9697,-3.9772,-4.0262,-4.0513,-4.0621,-4.1375,-4.165,-4.1639,-4.1594,-4.1447,-4.1184,-4.1242,-4.1184,-4.1184,-4.122,-4.1473,-4.1798,-4.193,-4.2279,-4.2699,-4.3036,-4.3337,-4.3685,-4.3949,-4.4141,-4.4249,-4.4285,-4.4285,-4.4285,-4.4285,-4.4285,-4.4285,-4.4285,-4.4285,-4.4285,-4.4285,-4.4285,-4.4285,-4.4285,-4.4285,-4.4285,-4.4285,-4.4285,-4.4285,-4.4285,-4.4285,-4.3962,-4.3377,-4.2736,-4.2091,-4.1248,-4.0592,-4.0038,-3.9635,-3.9484,-3.9187,-3.872,-3.8586,-3.8574,-3.8574,-3.8574,-3.8574,-3.8574,-3.8574,-3.8574,-3.8574,-3.8574,-3.8574,-3.8574,-3.8574,-3.8574,-3.8574,-3.8574,-3.8574,-3.8574,-3.831,-3.7959,-3.7559,-3.7139,-3.6719,-3.6289,-3.6074,-3.6035,-3.6025,-3.6025,-3.6025,-3.6025,-3.6025,-3.6025,-3.6025,-3.6025,-3.6025,-3.6025,-3.6025,-3.6025,-3.6025,-3.6025,-3.6025,-3.5976,-3.5762,-3.5185,-3.4609,-3.417,-3.3789,-3.3525,-3.3418,-3.3418,-3.3418,-3.3418,-3.3418,-3.3418,-3.3418,-3.3418,-3.3418,-3.3418,-3.9697,-3.971,-3.9873,-4.0045,-4.028,-4.0795,-4.1289,-4.1558,-4.139,-4.1242,-4.1184,-4.1184,-4.1184,-4.1184,-4.1184,-4.1305,-4.1377,-4.1485,-4.1761,-4.2122,-4.2471,-4.2928,-4.3337,-4.3697,-4.3925,-4.4165,-4.4273,-4.4285,-4.4285,-4.4285,-4.4285,-4.4285,-4.4285,-4.4285,-4.4285,-4.4285,-4.4285,-4.4285,-4.4285,-4.4285,-4.4285,-4.4285,-4.4285,-4.4285,-4.4285,-4.4285,-4.3838,-4.2862,-4.2218,-4.1836,-4.0851,-3.9942,-3.8702,-3.8745,-3.8771,-3.8375,-3.8171,-3.8213,-3.8496,-3.8574,-3.8574,-3.8574,-3.8574,-3.8574,-3.8574,-3.8574,-3.8574,-3.8574,-3.8574,-3.8574,-3.8574,-3.8574,-3.8574,-3.8574,-3.8535,-3.8301,-3.7939,-3.7519,-3.71,-3.6621,-3.6191,-3.6064,-3.6035,-3.6025,-3.6025,-3.6025,-3.6025,-3.6025,-3.6025,-3.6025,-3.6025,-3.6025,-3.6025,-3.6025,-3.6025,-3.6025,-3.6025,-3.6016,-3.5976,-3.5742,-3.5068,-3.4541,-3.4189,-3.3848,-3.3516,-3.3418,-3.3418,-3.3418,-3.3418,-3.3418,-3.3418,-3.3418,-3.3418,-3.3418,-3.3418,-3.9496,-3.9685,-3.9697,-3.979,-3.9927,-4.0232,-4.0543,-4.0817,-4.1106,-4.1184,-4.1184,-4.1184,-4.1184,-4.1184,-4.1184,-4.1196,-4.1208,-4.1256,-4.1425,-4.1593,-4.187,-4.2315,-4.2808,-4.3325,-4.3697,-4.3925,-4.4165,-4.4285,-4.4285,-4.4285,-4.4285,-4.4285,-4.4285,-4.4285,-4.4285,-4.4285,-4.4285,-4.4285,-4.4285,-4.4285,-4.4285,-4.4285,-4.4285,-4.4285,-4.4285,-4.4099,-4.3451,-4.2281,-4.1365,-4.0592,-3.9288,-3.8242,-3.7331,-3.7637,-3.7964,-3.7681,-3.7861,-3.8037,-3.8262,-3.8496,-3.8545,-3.8574,-3.8555,-3.8574,-3.8574,-3.8574,-3.8574,-3.8574,-3.8574,-3.8574,-3.8574,-3.8574,-3.8574,-3.8574,-3.8437,-3.8291,-3.79,-3.748,-3.7002,-3.6494,-3.623,-3.6084,-3.6025,-3.6025,-3.6025,-3.6025,-3.6025,-3.6025,-3.6025,-3.6025,-3.6025,-3.6025,-3.6025,-3.6025,-3.6025,-3.6025,-3.6025,-3.6025,-3.6016,-3.5664,-3.4971,-3.4531,-3.4219,-3.3848,-3.3457,-3.3418,-3.3418,-3.3418,-3.3418,-3.3418,-3.3418,-3.3418,-3.3418,-3.3418,-3.3418,-3.9157,-3.9622,-3.9685,-3.9596,-3.9554,-3.957,-3.9618,-3.9645,-4.0631,-4.11,-4.1088,-4.116,-4.1184,-4.1184,-4.1184,-4.1184,-4.1184,-4.1196,-4.1208,-4.1208,-4.1651,-4.1978,-4.2363,-4.2868,-4.3192,-4.3553,-4.3902,-4.4117,-4.4261,-4.4285,-4.4285,-4.4285,-4.4285,-4.4285,-4.4285,-4.4285,-4.4285,-4.4285,-4.4285,-4.4285,-4.4285,-4.4285,-4.4285,-4.4285,-4.4161,-4.3776,-4.2408,-4.098,-3.954,-3.8175,-3.7069,-3.6278,-3.6347,-3.6524,-3.6847,-3.7199,-3.748,-3.7695,-3.7881,-3.8105,-3.8281,-3.8369,-3.8496,-3.8447,-3.8398,-3.8535,-3.8574,-3.8574,-3.8574,-3.8574,-3.8574,-3.8574,-3.8574,-3.8506,-3.8369,-3.8057,-3.7617,-3.7168,-3.667,-3.6269,-3.6152,-3.6025,-3.6025,-3.6025,-3.6025,-3.6025,-3.6025,-3.6025,-3.6025,-3.6025,-3.6025,-3.6025,-3.6025,-3.6025,-3.6025,-3.6025,-3.6025,-3.6025,-3.6025,-3.5596,-3.4902,-3.4541,-3.4267,-3.3838,-3.3418,-3.3418,-3.3418,-3.3418,-3.3418,-3.3418,-3.3418,-3.3418,-3.3418,-3.3418,-3.3418,-3.8994,-3.9107,-3.9303,-3.9253,-3.9034,-3.9201,-3.9176,-3.9104,-4.0126,-4.0571,-4.0655,-4.098,-4.1184,-4.1184,-4.1184,-4.1184,-4.1184,-4.1184,-4.1184,-4.1196,-4.1401,-4.1641,-4.1906,-4.2303,-4.2615,-4.3012,-4.3445,-4.3853,-4.4129,-4.4225,-4.4273,-4.4285,-4.4285,-4.4285,-4.4285,-4.4285,-4.4285,-4.4285,-4.4285,-4.4285,-4.4285,-4.4285,-4.4285,-4.4285,-4.4161,-4.3514,-4.2218,-4.0915,-3.954,-3.8175,-3.6742,-3.6152,-3.6045,-3.6142,-3.6406,-3.6758,-3.6973,-3.7197,-3.7422,-3.7617,-3.7734,-3.7803,-3.7881,-3.8017,-3.8164,-3.8418,-3.8555,-3.8555,-3.8574,-3.8574,-3.8574,-3.8574,-3.8525,-3.8408,-3.8271,-3.7812,-3.7334,-3.6816,-3.6318,-3.6172,-3.6055,-3.6025,-3.6025,-3.6025,-3.6025,-3.6025,-3.6025,-3.6025,-3.6025,-3.6025,-3.6025,-3.6025,-3.6025,-3.6025,-3.6025,-3.6025,-3.6025,-3.6025,-3.6025,-3.5488,-3.4844,-3.4394,-3.4004,-3.3701,-3.3418,-3.3418,-3.3418,-3.3418,-3.3418,-3.3418,-3.3418,-3.3418,-3.3418,-3.3418,-3.3418,-3.8466,-3.8919,-3.9201,-3.9102,-3.885,-3.8855,-3.8698,-3.8599,-3.9345,-3.9838,-4.0174,-4.0787,-4.1184,-4.1184,-4.1184,-4.1184,-4.1184,-4.1184,-4.1184,-4.1184,-4.1208,-4.1365,-4.1593,-4.1834,-4.2134,-4.2519,-4.2964,-4.3433,-4.3902,-4.3998,-4.3998,-4.4201,-4.4261,-4.4273,-4.4273,-4.4285,-4.4285,-4.4285,-4.4285,-4.4285,-4.4285,-4.4285,-4.4285,-4.4285,-4.4099,-4.3251,-4.1761,-4.0398,-3.9091,-3.7719,-3.6345,-3.6093,-3.6025,-3.6055,-3.6152,-3.6377,-3.6582,-3.6837,-3.6982,-3.7139,-3.7226,-3.7334,-3.7441,-3.7646,-3.7646,-3.7891,-3.8242,-3.8291,-3.8535,-3.8574,-3.8574,-3.8574,-3.8379,-3.8213,-3.8047,-3.7715,-3.7119,-3.6514,-3.6221,-3.6094,-3.6025,-3.6025,-3.6025,-3.6025,-3.6025,-3.6025,-3.6025,-3.6025,-3.6025,-3.6025,-3.6025,-3.6025,-3.6025,-3.6025,-3.6025,-3.6025,-3.6025,-3.6025,-3.6025,-3.5478,-3.4883,-3.4228,-3.3711,-3.3525,-3.3418,-3.3418,-3.3418,-3.3418,-3.3418,-3.3418,-3.3418,-3.3418,-3.3418,-3.3418,-3.3418,-3.7926,-3.8868,-3.9063,-3.9,-3.8801,-3.8473,-3.8222,-3.8159,-3.8599,-3.9152,-3.9729,-4.0655,-4.104,-4.1172,-4.1184,-4.1184,-4.1184,-4.1184,-4.1184,-4.1184,-4.1184,-4.1256,-4.1401,-4.1605,-4.1846,-4.211,-4.2483,-4.294,-4.3409,-4.3457,-4.3661,-4.4069,-4.4201,-4.4213,-4.4261,-4.4285,-4.4285,-4.4285,-4.4285,-4.4285,-4.4285,-4.4285,-4.4285,-4.4285,-4.4087,-4.2914,-4.1301,-4.0073,-3.8893,-3.7394,-3.6287,-3.6025,-3.6025,-3.6025,-3.6035,-3.6182,-3.6348,-3.6494,-3.6631,-3.6826,-3.6953,-3.709,-3.7178,-3.7226,-3.7226,-3.7441,-3.7793,-3.8008,-3.8262,-3.8369,-3.8369,-3.833,-3.8105,-3.791,-3.7715,-3.7471,-3.6816,-3.626,-3.6142,-3.6025,-3.6025,-3.6025,-3.6025,-3.6025,-3.6025,-3.6025,-3.6025,-3.6025,-3.6025,-3.6025,-3.6025,-3.6025,-3.6025,-3.6025,-3.6025,-3.6025,-3.6025,-3.6025,-3.5957,-3.5459,-3.4892,-3.415,-3.3652,-3.3496,-3.3418,-3.3418,-3.3418,-3.3418,-3.3418,-3.3418,-3.3418,-3.3418,-3.3418,-3.3418,-3.3418,-3.7839,-3.8881,-3.8472,-3.8435,-3.8675,-3.8303,-3.8039,-3.8082,-3.8563,-3.9116,-3.9621,-4.021,-4.0751,-4.1172,-4.1184,-4.1184,-4.1184,-4.1184,-4.1184,-4.1184,-4.1184,-4.1184,-4.1232,-4.1389,-4.1605,-4.1846,-4.2145,-4.247,-4.282,-4.2928,-4.3168,-4.3637,-4.3697,-4.3841,-4.4249,-4.4273,-4.4285,-4.4285,-4.4285,-4.4285,-4.4285,-4.4285,-4.4285,-4.4285,-4.4285,-4.3251,-4.2345,-4.1963,-4.0203,-3.8308,-3.6606,-3.6152,-3.6025,-3.6025,-3.6025,-3.6035,-3.6201,-3.6211,-3.6338,-3.6406,-3.6504,-3.6484,-3.6582,-3.6787,-3.6865,-3.706,-3.7295,-3.7353,-3.7539,-3.7598,-3.7617,-3.7666,-3.7529,-3.7353,-3.7178,-3.6797,-3.6279,-3.6133,-3.6064,-3.6025,-3.6025,-3.6025,-3.6025,-3.6025,-3.6025,-3.6025,-3.6025,-3.6025,-3.6025,-3.6025,-3.6025,-3.6025,-3.6025,-3.6025,-3.6025,-3.6025,-3.6025,-3.6025,-3.5869,-3.5351,-3.4746,-3.4004,-3.3594,-3.3467,-3.3418,-3.3418,-3.3418,-3.3418,-3.3418,-3.3418,-3.3418,-3.3418,-3.3418,-3.3418,-3.3418]},{"header":{"parameterUnit":"m.s-1","parameterCategory":1,"la1":31.0,"la2":29.5877,"lo1":-88.7671,"lo2":-86.6584,"dy":0.0162,"dx":0.0185,"nx":115,"ny":88,"refTime":"2025-12-05T12:00:00:Z","depth":0,"parameterNumber":3,"parameterNumberName":"V-component_of_WINDS"},"data":[0.0,0.0,0.0,0.0,0.0,0.0,0.0,0.0,0.0,0.0,0.0,0.0,0.0,0.0,0.0,0.0,0.0,0.0,0.0,0.0,0.0,0.0,0.0,0.0,0.0,0.0,0.0,0.0,0.0,0.0,0.0,0.0,0.0,0.0,0.0,0.0,0.0,0.0,0.0,0.0,0.0,0.0,0.0,0.0,0.0,0.0,0.0,0.0,0.0,0.0,0.0,0.0,0.0,0.0,0.0,0.0,0.0,0.0,0.0,0.0,0.0,0.0,0.0,0.0,0.0,0.0,0.0,0.0,0.0,0.0,0.0,0.0,0.0,0.0,0.0,0.0,0.0,0.0,0.0,0.0,0.0,0.0,0.0,0.0,0.0,0.0,0.0,0.0,0.0,0.0,0.0,0.0,0.0,0.0,0.0,0.0,0.0,0.0,0.0,0.0,0.0,0.0,0.0,0.0,0.0,0.0,0.0,0.0,0.0,0.0,0.0,0.0,0.0,0.0,0.0,0.0,0.0,0.0,0.0,0.0,0.0,0.0,0.0,0.0,0.0,0.0,0.0,0.0,0.0,0.0,0.0,0.0,0.0,0.0,0.0,0.0,0.0,0.0,0.0,0.0,0.0,0.0,0.0,0.0,0.0,0.0,0.0,0.0,0.0,0.0,0.0,0.0,0.0,0.0,0.0,0.0,0.0,0.0,0.0,0.0,0.0,0.0,0.0,0.0,0.0,0.0,0.0,0.0,0.0,0.0,0.0,0.0,0.0,0.0,0.0,0.0,0.0,0.0,0.0,0.0,0.0,0.0,0.0,0.0,0.0,0.0,0.0,0.0,0.0,0.0,0.0,0.0,0.0,0.0,0.0,0.0,0.0,0.0,0.0,0.0,0.0,0.0,0.0,0.0,0.0,0.0,0.0,0.0,0.0,0.0,0.0,0.0,0.0,0.0,0.0,0.0,0.0,0.0,0.0,0.0,0.0,0.0,0.0,0.0,0.0,0.0,0.0,0.0,0.0,0.0,0.0,0.0,0.0,0.0,0.0,0.0,0.0,0.0,0.0,0.0,0.0,0.0,0.0,0.0,0.0,0.0,0.0,0.0,0.0,0.0,0.0,0.0,0.0,0.0,0.0,0.0,0.0,0.0,0.0,0.0,0.0,0.0,0.0,0.0,0.0,0.0,0.0,0.0,0.0,0.0,0.0,0.0,0.0,0.0,0.0,0.0,0.0,0.0,0.0,0.0,0.0,0.0,0.0,0.0,0.0,0.0,0.0,0.0,0.0,0.0,0.0,0.0,0.0,0.0,0.0,0.0,0.0,0.0,0.0,0.0,0.0,0.0,0.0,0.0,0.0,0.0,0.0,0.0,0.0,0.0,0.0,0.0,0.0,0.0,0.0,0.0,0.0,0.0,0.0,0.0,0.0,0.0,0.0,0.0,0.0,0.0,0.0,0.0,0.0,0.0,0.0,0.0,0.0,0.0,0.0,0.0,0.0,0.0,0.0,0.0,0.0,0.0,0.0,0.0,0.0,0.0,0.0,0.0,0.0,0.0,0.0,0.0,0.0,0.0,0.0,0.0,0.0,0.0,0.0,0.0,0.0,0.0,0.0,0.0,0.0,0.0,0.0,0.0,0.0,0.0,0.0,0.0,0.0,0.0,0.0,0.0,0.0,0.0,0.0,0.0,0.0,0.0,0.0,0.0,0.0,0.0,0.0,0.0,0.0,0.0,0.0,0.0,0.0,0.0,0.0,0.0,0.0,0.0,0.0,0.0,0.0,0.0,0.0,0.0,0.0,0.0,0.0,0.0,0.0,0.0,0.0,0.0,0.0,0.0,0.0,0.0,0.0,0.0,0.0,0.0,0.0,0.0,0.0,0.0,0.0,0.0,0.0,0.0,0.0,0.0,0.0,0.0,0.0,0.0,0.0,0.0,0.0,0.0,0.0,0.0,0.0,0.0,0.0,0.0,0.0,0.0,0.0,0.0,0.0,0.0,0.0,0.0,0.0,0.0,0.0,0.0,0.0,0.0,0.0,0.0,0.0,0.0,0.0,0.0,0.0,0.0,0.0,0.0,0.0,0.0,0.0,0.0,0.0,0.0,0.0,0.0,0.0,0.0,0.0,0.0,0.0,0.0,0.0,0.0,0.0,0.0,0.0,0.0,0.0,0.0,0.0,0.0,0.0,0.0,0.0,0.0,0.0,0.0,0.0,0.0,0.0,0.0,0.0,0.0,0.0,0.0,0.0,0.0,0.0,0.0,0.0,0.0,0.0,0.0,0.0,0.0,0.0,0.0,0.0,0.0,0.0,0.0,0.0,0.0,0.0,0.0,0.0,0.0,0.0,0.0,0.0,0.0,0.0,0.0,0.0,0.0,0.0,0.0,0.0,0.0,0.0,0.0,0.0,0.0,0.0,0.0,0.0,0.0,0.0,0.0,0.0,0.0,0.0,0.0,0.0,0.0,0.0,0.0,0.0,0.0,0.0,0.0,0.0,0.0,0.0,0.0,0.0,0.0,0.0,0.0,0.0,0.0,0.0,0.0,0.0,0.0,0.0,0.0,0.0,0.0,0.0,0.0,0.0,0.0,0.0,0.0,0.0,0.0,0.0,0.0,0.0,0.0,0.0,0.0,0.0,0.0,0.0,0.0,0.0,0.0,0.0,0.0,0.0,0.0,0.0,0.0,0.0,0.0,0.0,0.0,0.0,0.0,0.0,0.0,0.0,0.0,0.0,0.0,0.0,0.0,0.0,0.0,0.0,0.0,0.0,0.0,0.0,0.0,0.0,0.0,0.0,0.0,0.0,0.0,0.0,0.0,0.0,0.0,0.0,0.0,0.0,0.0,0.0,0.0,0.0,0.0,0.0,0.0,0.0,0.0,0.0,0.0,0.0,0.0,0.0,0.0,0.0,0.0,0.0,0.0,0.0,0.0,0.0,0.0,0.0,0.0,0.0,0.0,0.0,0.0,0.0,0.0,0.0,0.0,0.0,0.0,0.0,0.0,0.0,0.0,0.0,0.0,0.0,0.0,0.0,0.0,0.0,0.0,0.0,0.0,0.0,0.0,0.0,0.0,0.0,0.0,0.0,0.0,0.0,0.0,0.0,0.0,0.0,0.0,0.0,0.0,0.0,0.0,0.0,0.0,0.0,0.0,0.0,0.0,0.0,0.0,0.0,0.0,0.0,0.0,0.0,0.0,0.0,0.0,0.0,0.0,0.0,0.0,0.0,0.0,0.0,0.0,0.0,0.0,0.0,0.0,0.0,0.0,0.0,0.0,0.0,0.0,0.0,0.0,0.0,0.0,0.0,0.0,0.0,0.0,0.0,0.0,0.0,0.0,0.0,0.0,0.0,0.0,0.0,0.0,0.0,0.0,0.0,0.0,0.0,0.0,0.0,0.0,0.0,0.0,0.0,0.0,0.0,0.0,0.0,0.0,0.0,0.0,0.0,0.0,0.0,0.0,0.0,0.0,0.0,0.0,0.0,0.0,0.0,0.0,0.0,0.0,0.0,0.0,0.0,0.0,0.0,0.0,0.0,0.0,0.0,0.0,0.0,0.0,0.0,0.0,0.0,0.0,0.0,0.0,0.0,0.0,0.0,0.0,0.0,0.0,0.0,0.0,0.0,0.0,0.0,0.0,0.0,0.0,0.0,0.0,0.0,0.0,0.0,0.0,0.0,0.0,0.0,0.0,0.0,0.0,0.0,0.0,0.0,0.0,0.0,0.0,0.0,0.0,0.0,0.0,0.0,0.0,0.0,0.0,0.0,0.0,0.0,0.0,0.0,0.0,0.0,0.0,0.0,0.0,0.0,0.0,0.0,0.0,0.0,0.0,0.0,0.0,0.0,0.0,0.0,0.0,0.0,0.0,0.0,0.0,0.0,0.0,0.0,0.0,0.0,0.0,0.0,0.0,0.0,0.0,0.0,0.0,0.0,0.0,0.0,0.0,0.0,0.0,0.0,0.0,0.0,0.0,0.0,0.0,0.0,0.0,0.0,0.0,0.0,0.0,0.0,0.0,0.0,0.0,0.0,0.0,0.0,0.0,0.0,0.0,0.0,0.0,0.0,0.0,0.0,0.0,0.0,0.0,0.0,0.0,0.0,0.0,0.0,0.0,0.0,0.0,0.0,0.0,0.0,0.0,0.0,0.0,0.0,0.0,0.0,0.0,0.0,0.0,0.0,0.0,0.0,0.0,0.0,0.0,0.0,0.0,0.0,0.0,0.0,0.0,0.0,0.0,0.0,0.0,0.0,0.0,0.0,0.0,0.0,0.0,-1.3939,0.0,0.0,0.0,0.0,0.0,0.0,0.0,0.0,0.0,0.0,0.0,0.0,0.0,0.0,0.0,0.0,0.0,0.0,0.0,0.0,0.0,0.0,0.0,0.0,0.0,0.0,0.0,0.0,0.0,0.0,0.0,0.0,0.0,0.0,0.0,0.0,0.0,0.0,0.0,0.0,0.0,0.0,0.0,0.0,0.0,0.0,0.0,0.0,0.0,0.0,0.0,0.0,0.0,0.0,0.0,0.0,0.0,0.0,0.0,0.0,0.0,0.0,0.0,0.0,0.0,0.0,0.0,0.0,0.0,0.0,0.0,0.0,0.0,0.0,0.0,0.0,0.0,0.0,0.0,0.0,0.0,0.0,0.0,0.0,0.0,0.0,0.0,0.0,0.0,0.0,0.0,0.0,0.0,0.0,0.0,0.0,0.0,0.0,0.0,0.0,0.0,0.0,0.0,0.0,0.0,0.0,0.0,0.0,0.0,0.0,-1.6021,-1.5653,-1.4767,-1.4421,-1.4766,0.0,0.0,0.0,0.0,0.0,0.0,0.0,0.0,0.0,0.0,0.0,0.0,0.0,0.0,0.0,0.0,0.0,0.0,0.0,0.0,0.0,0.0,0.0,0.0,0.0,0.0,0.0,0.0,0.0,0.0,0.0,0.0,0.0,0.0,0.0,0.0,0.0,0.0,0.0,0.0,0.0,0.0,0.0,0.0,0.0,0.0,0.0,0.0,0.0,0.0,0.0,0.0,0.0,0.0,0.0,0.0,0.0,0.0,0.0,0.0,0.0,0.0,0.0,0.0,0.0,0.0,0.0,0.0,0.0,0.0,0.0,0.0,0.0,0.0,0.0,0.0,0.0,0.0,0.0,0.0,0.0,0.0,0.0,0.0,0.0,0.0,0.0,0.0,0.0,0.0,0.0,0.0,0.0,0.0,0.0,0.0,0.0,0.0,0.0,0.0,0.0,0.0,0.0,0.0,0.0,0.0,0.0,0.0,0.0,0.0,0.0,0.0,-1.5547,-1.5226,-1.5742,0.0,0.0,0.0,0.0,0.0,0.0,0.0,0.0,0.0,0.0,0.0,0.0,0.0,0.0,0.0,0.0,0.0,0.0,0.0,0.0,0.0,0.0,0.0,0.0,0.0,0.0,0.0,0.0,0.0,0.0,0.0,0.0,0.0,0.0,0.0,0.0,0.0,0.0,0.0,0.0,0.0,0.0,0.0,0.0,0.0,0.0,0.0,0.0,0.0,0.0,0.0,0.0,0.0,0.0,0.0,0.0,0.0,0.0,0.0,0.0,0.0,0.0,0.0,0.0,0.0,0.0,0.0,0.0,0.0,0.0,0.0,0.0,0.0,0.0,0.0,0.0,0.0,0.0,0.0,0.0,0.0,0.0,0.0,0.0,0.0,0.0,0.0,0.0,0.0,0.0,0.0,0.0,0.0,0.0,0.0,0.0,0.0,0.0,0.0,0.0,0.0,0.0,0.0,0.0,0.0,0.0,0.0,0.0,0.0,0.0,-1.6396,-1.7068,-1.6718,0.0,-1.6819,0.0,0.0,0.0,0.0,0.0,0.0,0.0,0.0,0.0,0.0,0.0,0.0,0.0,0.0,0.0,0.0,0.0,0.0,0.0,0.0,0.0,0.0,0.0,0.0,0.0,0.0,0.0,0.0,0.0,0.0,0.0,0.0,0.0,0.0,0.0,0.0,0.0,0.0,0.0,0.0,0.0,0.0,0.0,0.0,0.0,0.0,0.0,0.0,0.0,0.0,0.0,0.0,0.0,0.0,0.0,0.0,0.0,0.0,0.0,0.0,0.0,0.0,0.0,0.0,0.0,0.0,0.0,0.0,0.0,0.0,0.0,0.0,0.0,0.0,0.0,0.0,0.0,0.0,0.0,0.0,0.0,0.0,0.0,0.0,0.0,0.0,0.0,0.0,0.0,0.0,0.0,0.0,0.0,0.0,0.0,0.0,0.0,0.0,0.0,0.0,0.0,0.0,0.0,0.0,0.0,0.0,0.0,0.0,0.0,0.0,-1.809,-1.8734,-1.861,-1.8226,0.0,0.0,0.0,0.0,0.0,0.0,0.0,0.0,0.0,0.0,0.0,0.0,0.0,0.0,0.0,0.0,0.0,0.0,0.0,0.0,0.0,0.0,0.0,0.0,0.0,0.0,0.0,0.0,0.0,0.0,0.0,0.0,0.0,0.0,0.0,0.0,0.0,0.0,0.0,0.0,0.0,0.0,0.0,0.0,0.0,0.0,0.0,0.0,0.0,0.0,0.0,0.0,0.0,0.0,0.0,0.0,0.0,0.0,0.0,0.0,0.0,0.0,0.0,0.0,0.0,0.0,0.0,0.0,0.0,0.0,0.0,0.0,0.0,0.0,0.0,0.0,0.0,0.0,0.0,0.0,0.0,0.0,0.0,0.0,0.0,0.0,0.0,0.0,0.0,0.0,0.0,0.0,0.0,0.0,0.0,0.0,0.0,0.0,0.0,0.0,0.0,0.0,0.0,0.0,0.0,0.0,0.0,0.0,0.0,0.0,-1.8848,-1.9383,-2.0016,-2.0105,-1.9395,-1.7857,0.0,0.0,0.0,0.0,0.0,0.0,0.0,0.0,0.0,0.0,0.0,0.0,0.0,0.0,0.0,0.0,0.0,0.0,0.0,0.0,0.0,0.0,0.0,0.0,0.0,0.0,0.0,0.0,0.0,0.0,0.0,0.0,0.0,0.0,0.0,0.0,0.0,0.0,0.0,0.0,0.0,0.0,0.0,0.0,0.0,0.0,0.0,0.0,0.0,0.0,0.0,0.0,0.0,0.0,0.0,0.0,0.0,0.0,0.0,0.0,0.0,0.0,0.0,0.0,0.0,0.0,0.0,0.0,0.0,0.0,0.0,0.0,0.0,0.0,0.0,0.0,0.0,0.0,0.0,0.0,0.0,0.0,0.0,0.0,0.0,0.0,0.0,0.0,0.0,0.0,0.0,0.0,0.0,0.0,0.0,0.0,0.0,0.0,0.0,0.0,0.0,0.0,0.0,0.0,0.0,0.0,0.0,0.0,0.0,-1.9965,-1.9722,-2.0677,-2.0851,-1.9817,0.0,0.0,0.0,0.0,0.0,0.0,0.0,0.0,0.0,0.0,0.0,0.0,0.0,0.0,0.0,0.0,0.0,0.0,0.0,0.0,0.0,0.0,0.0,0.0,0.0,0.0,0.0,0.0,0.0,0.0,0.0,0.0,0.0,0.0,0.0,0.0,0.0,0.0,0.0,0.0,0.0,0.0,0.0,0.0,0.0,0.0,0.0,0.0,0.0,0.0,0.0,0.0,0.0,0.0,0.0,0.0,0.0,0.0,0.0,0.0,0.0,0.0,0.0,0.0,0.0,0.0,0.0,0.0,0.0,0.0,0.0,0.0,0.0,0.0,0.0,0.0,0.0,0.0,0.0,0.0,0.0,0.0,0.0,0.0,0.0,0.0,0.0,0.0,0.0,0.0,0.0,0.0,0.0,0.0,0.0,0.0,0.0,0.0,0.0,0.0,0.0,0.0,0.0,0.0,0.0,0.0,0.0,0.0,0.0,-1.8711,-1.9311,-2.0654,-2.2705,-2.0825,-1.9595,0.0,0.0,0.0,0.0,0.0,0.0,0.0,0.0,0.0,0.0,0.0,0.0,0.0,0.0,0.0,0.0,0.0,0.0,0.0,0.0,0.0,0.0,0.0,0.0,0.0,0.0,0.0,0.0,0.0,0.0,0.0,0.0,0.0,0.0,0.0,0.0,0.0,0.0,0.0,0.0,0.0,0.0,0.0,0.0,0.0,0.0,0.0,0.0,0.0,0.0,0.0,0.0,0.0,0.0,0.0,0.0,0.0,0.0,0.0,0.0,0.0,0.0,0.0,0.0,0.0,0.0,0.0,0.0,0.0,0.0,0.0,0.0,0.0,0.0,0.0,0.0,0.0,0.0,0.0,0.0,0.0,0.0,0.0,0.0,0.0,0.0,0.0,0.0,0.0,0.0,0.0,0.0,0.0,0.0,0.0,0.0,0.0,0.0,0.0,0.0,0.0,0.0,0.0,0.0,0.0,0.0,0.0,0.0,0.0,-1.8885,0.0,-2.2185,0.0,-2.1082,-1.9512,0.0,0.0,0.0,0.0,0.0,0.0,0.0,0.0,0.0,0.0,0.0,0.0,0.0,0.0,0.0,0.0,0.0,0.0,0.0,0.0,0.0,0.0,0.0,0.0,0.0,0.0,0.0,0.0,0.0,0.0,0.0,0.0,0.0,0.0,0.0,0.0,0.0,0.0,0.0,0.0,0.0,0.0,0.0,0.0,0.0,0.0,0.0,0.0,0.0,0.0,0.0,0.0,0.0,0.0,0.0,0.0,0.0,0.0,0.0,0.0,0.0,0.0,0.0,0.0,0.0,0.0,0.0,0.0,0.0,0.0,0.0,0.0,0.0,0.0,0.0,0.0,0.0,0.0,0.0,0.0,0.0,0.0,0.0,0.0,0.0,0.0,0.0,0.0,0.0,0.0,0.0,0.0,0.0,0.0,0.0,0.0,0.0,0.0,0.0,0.0,0.0,0.0,0.0,0.0,0.0,0.0,0.0,0.0,-1.8911,-2.2178,-2.3919,-2.3981,-2.2504,-2.1733,-1.959,0.0,0.0,0.0,0.0,0.0,0.0,0.0,0.0,0.0,0.0,0.0,0.0,0.0,0.0,0.0,0.0,0.0,0.0,0.0,0.0,0.0,0.0,0.0,0.0,0.0,0.0,0.0,0.0,0.0,0.0,0.0,0.0,0.0,0.0,0.0,0.0,0.0,0.0,0.0,0.0,0.0,0.0,0.0,0.0,0.0,0.0,0.0,0.0,0.0,0.0,0.0,0.0,0.0,0.0,0.0,0.0,0.0,0.0,0.0,0.0,0.0,0.0,0.0,0.0,0.0,0.0,0.0,0.0,0.0,0.0,0.0,0.0,0.0,0.0,0.0,0.0,0.0,0.0,0.0,0.0,0.0,0.0,0.0,0.0,0.0,0.0,0.0,0.0,0.0,0.0,0.0,0.0,0.0,0.0,0.0,0.0,0.0,0.0,0.0,0.0,0.0,0.0,0.0,0.0,0.0,0.0,0.0,0.0,0.0,-2.0611,-2.1904,-2.3289,-2.4527,-2.1081,-1.9499,0.0,0.0,0.0,0.0,0.0,0.0,0.0,0.0,0.0,0.0,0.0,0.0,0.0,0.0,0.0,0.0,0.0,0.0,0.0,0.0,0.0,0.0,0.0,0.0,0.0,0.0,0.0,0.0,0.0,0.0,0.0,0.0,0.0,0.0,0.0,0.0,0.0,0.0,0.0,0.0,0.0,0.0,0.0,0.0,0.0,0.0,0.0,0.0,0.0,0.0,0.0,0.0,0.0,0.0,0.0,0.0,0.0,0.0,0.0,0.0,0.0,0.0,0.0,0.0,0.0,0.0,0.0,0.0,0.0,0.0,0.0,0.0,0.0,0.0,0.0,0.0,0.0,0.0,0.0,0.0,0.0,0.0,0.0,0.0,0.0,0.0,0.0,0.0,0.0,0.0,0.0,0.0,0.0,0.0,0.0,0.0,0.0,0.0,0.0,0.0,0.0,0.0,0.0,0.0,0.0,0.0,0.0,0.0,0.0,-2.2452,-2.3485,-2.4713,-2.6099,-2.2152,-2.0244,-2.0687,0.0,0.0,0.0,0.0,0.0,0.0,0.0,0.0,0.0,0.0,0.0,0.0,0.0,0.0,0.0,0.0,0.0,0.0,0.0,0.0,0.0,0.0,0.0,0.0,0.0,0.0,0.0,0.0,0.0,0.0,0.0,0.0,0.0,0.0,0.0,0.0,0.0,0.0,0.0,0.0,0.0,0.0,0.0,0.0,0.0,0.0,0.0,0.0,0.0,0.0,0.0,0.0,0.0,0.0,0.0,0.0,0.0,0.0,0.0,0.0,0.0,0.0,0.0,0.0,0.0,0.0,0.0,0.0,0.0,0.0,0.0,0.0,0.0,0.0,0.0,0.0,0.0,0.0,0.0,0.0,0.0,0.0,0.0,0.0,0.0,0.0,0.0,0.0,0.0,0.0,0.0,0.0,0.0,0.0,0.0,0.0,0.0,0.0,0.0,0.0,0.0,0.0,0.0,0.0,0.0,0.0,0.0,0.0,-2.6889,-2.8041,-2.8106,-2.7046,-2.4596,-2.1786,0.0,0.0,0.0,0.0,0.0,0.0,0.0,0.0,0.0,0.0,0.0,0.0,0.0,0.0,0.0,0.0,0.0,0.0,0.0,0.0,0.0,0.0,0.0,0.0,0.0,0.0,0.0,0.0,0.0,0.0,0.0,0.0,0.0,0.0,0.0,0.0,0.0,0.0,0.0,0.0,0.0,0.0,0.0,0.0,0.0,0.0,0.0,0.0,0.0,0.0,0.0,0.0,0.0,0.0,0.0,0.0,0.0,0.0,0.0,0.0,0.0,0.0,0.0,0.0,0.0,0.0,0.0,0.0,0.0,0.0,0.0,0.0,0.0,0.0,0.0,0.0,0.0,0.0,0.0,0.0,0.0,0.0,0.0,0.0,0.0,0.0,0.0,0.0,0.0,0.0,0.0,0.0,0.0,0.0,0.0,0.0,0.0,0.0,0.0,0.0,0.0,0.0,0.0,0.0,0.0,0.0,0.0,0.0,0.0,-2.9134,-3.0751,-3.1222,-3.0424,-2.6608,-2.3919,0.0,0.0,0.0,0.0,0.0,0.0,0.0,0.0,0.0,0.0,0.0,0.0,0.0,0.0,0.0,0.0,0.0,0.0,0.0,0.0,0.0,0.0,0.0,0.0,0.0,0.0,0.0,0.0,0.0,0.0,0.0,0.0,0.0,0.0,0.0,0.0,0.0,0.0,0.0,0.0,0.0,0.0,0.0,0.0,0.0,0.0,0.0,0.0,0.0,0.0,0.0,0.0,0.0,0.0,0.0,0.0,0.0,0.0,0.0,0.0,0.0,0.0,0.0,0.0,0.0,0.0,0.0,0.0,0.0,0.0,0.0,0.0,0.0,0.0,0.0,0.0,0.0,0.0,0.0,0.0,0.0,0.0,0.0,0.0,0.0,0.0,0.0,0.0,0.0,0.0,0.0,0.0,0.0,0.0,0.0,0.0,0.0,0.0,0.0,0.0,0.0,0.0,0.0,0.0,0.0,0.0,0.0,0.0,-2.8756,-3.1182,-3.3849,-3.4724,-3.3612,-2.9431,-2.619,0.0,0.0,0.0,0.0,0.0,0.0,0.0,0.0,0.0,0.0,0.0,0.0,0.0,0.0,0.0,0.0,0.0,0.0,0.0,0.0,0.0,0.0,0.0,0.0,0.0,0.0,0.0,0.0,0.0,0.0,0.0,0.0,0.0,0.0,0.0,0.0,0.0,0.0,0.0,0.0,0.0,0.0,0.0,0.0,0.0,0.0,0.0,0.0,0.0,0.0,0.0,0.0,0.0,0.0,0.0,0.0,0.0,0.0,0.0,0.0,0.0,0.0,0.0,0.0,0.0,0.0,0.0,0.0,0.0,0.0,0.0,0.0,0.0,0.0,0.0,0.0,0.0,0.0,0.0,0.0,0.0,0.0,0.0,0.0,0.0,0.0,0.0,0.0,0.0,0.0,0.0,0.0,0.0,0.0,0.0,0.0,0.0,0.0,0.0,0.0,0.0,0.0,0.0,0.0,0.0,0.0,0.0,0.0,-3.1091,-3.296,-3.6593,-3.7782,-3.6175,-3.228,-2.8364,0.0,0.0,0.0,0.0,0.0,0.0,0.0,0.0,0.0,0.0,0.0,0.0,0.0,0.0,0.0,0.0,0.0,0.0,0.0,0.0,0.0,0.0,0.0,0.0,0.0,0.0,0.0,0.0,0.0,0.0,0.0,0.0,0.0,0.0,0.0,0.0,0.0,0.0,0.0,0.0,0.0,0.0,0.0,0.0,0.0,0.0,0.0,0.0,0.0,0.0,0.0,0.0,0.0,0.0,0.0,0.0,0.0,0.0,0.0,0.0,0.0,0.0,0.0,0.0,0.0,0.0,0.0,0.0,0.0,0.0,0.0,0.0,0.0,0.0,0.0,0.0,0.0,0.0,0.0,0.0,0.0,0.0,0.0,0.0,0.0,0.0,0.0,0.0,0.0,0.0,0.0,0.0,0.0,0.0,0.0,0.0,0.0,0.0,0.0,0.0,0.0,0.0,0.0,0.0,0.0,0.0,0.0,0.0,-3.2071,-3.4698,-3.6462,-3.7181,-3.6802,-3.2908,-2.9327,0.0,0.0,0.0,0.0,0.0,0.0,0.0,0.0,0.0,0.0,0.0,0.0,0.0,0.0,0.0,0.0,0.0,0.0,0.0,0.0,0.0,0.0,0.0,0.0,0.0,0.0,0.0,0.0,0.0,0.0,0.0,0.0,0.0,0.0,0.0,0.0,0.0,0.0,0.0,0.0,0.0,0.0,0.0,0.0,0.0,0.0,0.0,0.0,-1.8764,0.0,0.0,0.0,0.0,0.0,0.0,0.0,0.0,0.0,0.0,0.0,0.0,0.0,0.0,0.0,0.0,0.0,0.0,0.0,0.0,0.0,0.0,0.0,0.0,0.0,0.0,0.0,0.0,0.0,0.0,0.0,0.0,0.0,0.0,0.0,0.0,0.0,0.0,0.0,0.0,0.0,0.0,0.0,0.0,0.0,0.0,0.0,0.0,0.0,0.0,0.0,0.0,0.0,0.0,0.0,0.0,0.0,0.0,0.0,-3.3038,-3.56,-3.7077,-3.7547,-3.6933,-3.3888,-3.0594,0.0,0.0,0.0,0.0,0.0,0.0,0.0,0.0,0.0,0.0,0.0,0.0,0.0,0.0,0.0,0.0,0.0,0.0,0.0,0.0,0.0,0.0,0.0,0.0,0.0,0.0,0.0,0.0,0.0,0.0,0.0,0.0,0.0,0.0,0.0,0.0,0.0,0.0,0.0,0.0,0.0,0.0,0.0,0.0,0.0,0.0,0.0,0.0,0.0,0.0,0.0,0.0,0.0,0.0,0.0,0.0,0.0,0.0,0.0,0.0,0.0,0.0,0.0,0.0,0.0,0.0,0.0,0.0,0.0,0.0,0.0,0.0,0.0,0.0,0.0,0.0,0.0,0.0,0.0,0.0,0.0,0.0,0.0,0.0,0.0,0.0,0.0,0.0,0.0,0.0,0.0,0.0,0.0,0.0,0.0,0.0,0.0,0.0,0.0,0.0,0.0,0.0,0.0,0.0,0.0,0.0,0.0,-3.0788,-3.3757,-3.641,-3.7782,-3.7978,-3.7011,-3.4789,-3.1679,-2.7693,0.0,0.0,0.0,0.0,0.0,0.0,0.0,0.0,0.0,0.0,0.0,0.0,0.0,0.0,0.0,0.0,0.0,0.0,0.0,0.0,0.0,0.0,0.0,0.0,0.0,0.0,0.0,0.0,0.0,0.0,0.0,0.0,0.0,0.0,0.0,0.0,0.0,0.0,-1.7838,-2.0254,0.0,0.0,0.0,0.0,0.0,0.0,0.0,0.0,-2.1048,0.0,0.0,0.0,0.0,0.0,0.0,0.0,0.0,0.0,0.0,0.0,0.0,0.0,0.0,0.0,0.0,0.0,0.0,0.0,0.0,0.0,0.0,0.0,0.0,0.0,0.0,0.0,0.0,0.0,0.0,0.0,0.0,0.0,0.0,0.0,0.0,0.0,0.0,0.0,0.0,0.0,0.0,0.0,0.0,0.0,0.0,0.0,0.0,0.0,0.0,0.0,0.0,0.0,0.0,0.0,0.0,-3.0844,-3.1182,-3.3548,-3.8122,-3.7625,-3.7194,-3.6959,-3.4789,-3.1717,-2.7814,0.0,0.0,0.0,0.0,0.0,0.0,0.0,0.0,0.0,0.0,0.0,0.0,0.0,0.0,0.0,0.0,0.0,0.0,0.0,0.0,0.0,0.0,0.0,0.0,0.0,0.0,0.0,0.0,0.0,0.0,0.0,0.0,0.0,0.0,0.0,0.0,0.0,0.0,0.0,-2.3302,-2.4487,0.0,0.0,0.0,0.0,0.0,0.0,0.0,0.0,-2.089,0.0,0.0,0.0,0.0,0.0,0.0,0.0,0.0,0.0,0.0,0.0,0.0,0.0,0.0,0.0,0.0,0.0,0.0,0.0,0.0,0.0,0.0,0.0,0.0,0.0,0.0,0.0,0.0,0.0,0.0,0.0,0.0,0.0,0.0,0.0,0.0,0.0,0.0,0.0,0.0,0.0,0.0,0.0,0.0,0.0,0.0,0.0,0.0,0.0,0.0,0.0,0.0,0.0,0.0,0.0,-2.9932,-3.2395,-3.4888,-3.744,-3.7411,-3.7034,-3.6245,-3.3448,-3.0621,0.0,0.0,0.0,0.0,0.0,0.0,0.0,0.0,0.0,0.0,0.0,0.0,0.0,0.0,0.0,0.0,0.0,0.0,0.0,0.0,0.0,0.0,0.0,0.0,0.0,0.0,0.0,0.0,0.0,0.0,0.0,0.0,0.0,0.0,0.0,0.0,0.0,0.0,0.0,0.0,-2.4313,-2.5398,-2.5429,0.0,0.0,0.0,0.0,0.0,0.0,-2.2377,-2.1484,0.0,0.0,0.0,0.0,0.0,0.0,0.0,0.0,0.0,0.0,0.0,0.0,0.0,0.0,0.0,0.0,0.0,0.0,0.0,0.0,0.0,0.0,0.0,0.0,0.0,0.0,0.0,0.0,0.0,0.0,0.0,0.0,0.0,0.0,0.0,0.0,0.0,0.0,0.0,0.0,0.0,0.0,0.0,0.0,0.0,0.0,0.0,0.0,0.0,0.0,0.0,0.0,0.0,0.0,0.0,-2.8775,-3.3101,-3.571,-3.6388,-3.6959,-3.6654,-3.5344,-3.2329,-2.9689,0.0,0.0,0.0,0.0,0.0,0.0,0.0,0.0,0.0,0.0,0.0,0.0,0.0,0.0,0.0,0.0,0.0,0.0,0.0,0.0,0.0,0.0,0.0,0.0,0.0,0.0,0.0,0.0,0.0,0.0,0.0,0.0,0.0,0.0,0.0,0.0,0.0,0.0,0.0,0.0,0.0,-2.645,-2.6683,-2.5289,0.0,0.0,0.0,0.0,-2.5218,-2.4711,0.0,0.0,0.0,0.0,0.0,0.0,0.0,0.0,0.0,0.0,0.0,0.0,0.0,0.0,0.0,0.0,0.0,0.0,0.0,0.0,0.0,0.0,0.0,0.0,0.0,0.0,0.0,0.0,0.0,0.0,0.0,0.0,0.0,0.0,0.0,0.0,0.0,0.0,0.0,0.0,0.0,0.0,0.0,0.0,0.0,0.0,0.0,0.0,0.0,0.0,0.0,0.0,0.0,0.0,0.0,0.0,-2.9107,-3.1806,-3.4153,-3.6013,-3.5963,-3.5423,-3.4544,-3.283,-3.0138,0.0,0.0,0.0,0.0,0.0,0.0,0.0,0.0,0.0,0.0,0.0,0.0,0.0,0.0,0.0,0.0,0.0,0.0,0.0,0.0,0.0,0.0,0.0,0.0,0.0,0.0,0.0,0.0,0.0,0.0,0.0,0.0,0.0,0.0,0.0,0.0,0.0,0.0,0.0,0.0,0.0,-2.8761,-2.7719,-2.6809,-2.6614,0.0,0.0,-2.6638,-2.9512,-3.0321,0.0,0.0,0.0,0.0,0.0,0.0,0.0,0.0,0.0,0.0,0.0,0.0,0.0,0.0,0.0,0.0,0.0,0.0,0.0,0.0,0.0,0.0,0.0,0.0,0.0,0.0,0.0,0.0,0.0,0.0,0.0,0.0,0.0,0.0,0.0,0.0,0.0,0.0,0.0,0.0,0.0,0.0,0.0,0.0,0.0,0.0,0.0,0.0,0.0,0.0,0.0,0.0,0.0,0.0,0.0,-2.6022,-2.9173,-3.3422,-3.5653,-3.5694,-3.6024,-3.5623,-3.4471,-3.1902,-2.9247,0.0,0.0,0.0,0.0,0.0,0.0,0.0,0.0,0.0,0.0,0.0,0.0,0.0,0.0,0.0,0.0,0.0,0.0,0.0,0.0,0.0,0.0,0.0,0.0,0.0,0.0,0.0,0.0,0.0,0.0,0.0,0.0,0.0,0.0,0.0,0.0,0.0,0.0,0.0,0.0,0.0,0.0,-2.9539,-2.8999,0.0,0.0,0.0,-2.94,-3.1589,0.0,0.0,0.0,0.0,0.0,0.0,0.0,0.0,0.0,0.0,0.0,0.0,0.0,0.0,0.0,0.0,0.0,0.0,0.0,0.0,0.0,0.0,0.0,0.0,0.0,0.0,0.0,0.0,0.0,0.0,0.0,0.0,0.0,0.0,0.0,0.0,0.0,0.0,0.0,0.0,0.0,0.0,0.0,0.0,0.0,0.0,0.0,0.0,0.0,0.0,0.0,0.0,0.0,0.0,0.0,0.0,0.0,-2.9543,-3.5091,-3.7242,-3.5777,-3.6334,-3.6006,-3.4545,-3.1522,0.0,0.0,0.0,0.0,0.0,0.0,0.0,0.0,0.0,0.0,0.0,0.0,0.0,0.0,0.0,0.0,0.0,0.0,0.0,0.0,0.0,0.0,0.0,0.0,0.0,0.0,0.0,-1.0066,0.0,0.0,0.0,0.0,0.0,0.0,0.0,0.0,0.0,0.0,0.0,0.0,0.0,0.0,-3.0169,-3.1414,-3.148,-3.1826,0.0,0.0,-3.2433,-3.3781,-3.3539,-3.2184,0.0,0.0,0.0,0.0,0.0,0.0,0.0,0.0,0.0,0.0,0.0,0.0,0.0,0.0,0.0,0.0,0.0,0.0,0.0,0.0,0.0,0.0,0.0,0.0,0.0,0.0,0.0,0.0,0.0,0.0,0.0,0.0,0.0,0.0,0.0,0.0,0.0,0.0,0.0,0.0,0.0,0.0,0.0,0.0,0.0,0.0,0.0,0.0,0.0,0.0,0.0,0.0,0.0,0.0,0.0,-3.0851,-3.5833,-3.781,-3.6584,-3.6744,-3.6158,-3.4728,-3.2533,-2.9683,0.0,0.0,0.0,0.0,0.0,0.0,0.0,0.0,0.0,0.0,0.0,0.0,0.0,0.0,0.0,0.0,0.0,0.0,0.0,0.0,0.0,0.0,0.0,0.0,0.0,0.0,0.0,0.0,0.0,0.0,0.0,0.0,0.0,0.0,0.0,0.0,0.0,0.0,0.0,0.0,0.0,-3.2045,-3.3024,-3.4252,-3.5673,0.0,-3.6614,-3.604,-3.6891,-3.8557,-3.7549,-3.0917,0.0,0.0,0.0,0.0,0.0,0.0,0.0,0.0,0.0,0.0,0.0,0.0,0.0,0.0,0.0,0.0,0.0,0.0,0.0,0.0,0.0,0.0,0.0,0.0,0.0,0.0,0.0,0.0,0.0,0.0,0.0,0.0,0.0,0.0,0.0,0.0,0.0,0.0,0.0,0.0,0.0,0.0,0.0,0.0,0.0,0.0,0.0,0.0,0.0,0.0,0.0,0.0,0.0,-2.8546,-3.1102,-3.5904,-3.8106,-3.7558,-3.7572,-3.6971,-3.5653,-3.4078,-3.1322,0.0,0.0,0.0,0.0,0.0,0.0,0.0,0.0,0.0,0.0,0.0,0.0,0.0,0.0,0.0,0.0,0.0,0.0,0.0,0.0,0.0,0.0,0.0,0.0,0.0,0.0,0.0,0.0,-1.5639,-1.607,-1.5501,0.0,0.0,0.0,0.0,0.0,0.0,0.0,0.0,0.0,0.0,-3.3529,-3.582,-3.6846,0.0,0.0,-3.8695,-3.8884,-3.9826,-3.8544,-3.6346,-3.3032,-3.0147,0.0,0.0,0.0,0.0,0.0,0.0,0.0,0.0,0.0,0.0,0.0,0.0,0.0,0.0,0.0,0.0,0.0,0.0,0.0,0.0,0.0,0.0,0.0,0.0,0.0,0.0,0.0,0.0,0.0,0.0,0.0,0.0,0.0,0.0,0.0,0.0,0.0,0.0,0.0,0.0,0.0,0.0,0.0,0.0,0.0,0.0,0.0,0.0,0.0,0.0,0.0,0.0,-2.9495,-3.185,-3.6773,-3.9065,-3.8576,-3.8561,-3.8047,-3.6931,-3.5356,-3.2815,0.0,0.0,0.0,0.0,0.0,0.0,0.0,0.0,0.0,0.0,0.0,0.0,0.0,0.0,0.0,0.0,0.0,0.0,0.0,0.0,0.0,0.0,0.0,0.0,0.0,0.0,0.0,0.0,-1.7592,-1.7285,-1.5764,0.0,0.0,0.0,0.0,0.0,0.0,0.0,0.0,0.0,0.0,-3.5435,-3.852,-3.8958,-3.9282,-4.0264,-3.994,-3.9899,-4.0845,-3.8536,-3.6029,-3.4219,0.0,0.0,0.0,0.0,0.0,0.0,0.0,0.0,0.0,0.0,0.0,0.0,0.0,0.0,0.0,0.0,0.0,0.0,0.0,0.0,0.0,0.0,0.0,0.0,0.0,0.0,0.0,-1.668,0.0,0.0,-1.5357,0.0,0.0,0.0,0.0,0.0,0.0,0.0,0.0,0.0,0.0,0.0,0.0,0.0,0.0,0.0,0.0,0.0,0.0,0.0,0.0,0.0,0.0,-3.1294,-3.3385,-3.8659,-4.0903,-3.9711,-3.9646,-3.9299,-3.8527,-3.6246,-3.4017,-3.1817,0.0,0.0,0.0,0.0,0.0,0.0,0.0,0.0,0.0,0.0,0.0,0.0,0.0,0.0,0.0,0.0,0.0,0.0,0.0,0.0,0.0,0.0,0.0,0.0,0.0,0.0,-1.9025,-1.8023,-1.6502,0.0,0.0,0.0,0.0,0.0,0.0,0.0,0.0,0.0,0.0,-3.4616,-3.7888,-4.0937,-4.0442,-4.0551,-4.2797,-4.054,-3.8788,-3.9522,-3.9191,-3.7729,0.0,0.0,0.0,0.0,0.0,0.0,0.0,0.0,0.0,0.0,0.0,0.0,0.0,0.0,0.0,0.0,0.0,0.0,0.0,0.0,0.0,0.0,0.0,0.0,0.0,0.0,0.0,-2.22,-2.0733,0.0,0.0,0.0,0.0,0.0,0.0,0.0,0.0,0.0,0.0,0.0,-3.1119,-3.2944,0.0,0.0,0.0,0.0,0.0,0.0,0.0,0.0,0.0,0.0,0.0,0.0,-3.0924,-3.3506,-3.8338,-4.0666,-4.0246,-4.0211,-3.989,-3.9188,-3.7529,-3.4562,-3.0152,0.0,0.0,0.0,0.0,0.0,0.0,0.0,0.0,0.0,0.0,0.0,0.0,0.0,0.0,0.0,0.0,0.0,0.0,0.0,0.0,0.0,0.0,0.0,0.0,0.0,-1.8777,0.0,0.0,0.0,0.0,0.0,0.0,0.0,0.0,0.0,0.0,0.0,-3.1735,-3.5196,-3.7934,-4.0177,-4.177,-4.2298,-4.2703,0.0,0.0,0.0,0.0,0.0,0.0,0.0,0.0,0.0,0.0,0.0,0.0,0.0,0.0,-3.7853,-3.0782,-2.8885,-2.8765,-3.0041,0.0,0.0,0.0,0.0,0.0,0.0,0.0,0.0,0.0,0.0,0.0,0.0,0.0,0.0,-2.5929,0.0,-2.4515,0.0,0.0,0.0,0.0,0.0,0.0,0.0,0.0,-3.2904,-3.514,-3.5691,-3.7427,-3.689,0.0,-3.3804,-3.032,0.0,0.0,0.0,0.0,0.0,0.0,0.0,0.0,-3.1659,-3.4183,-3.8585,-4.0751,-4.0505,-4.0489,-4.0274,-3.9862,-3.8323,-3.5446,-3.106,-2.922,-2.7017,0.0,0.0,0.0,0.0,0.0,0.0,0.0,0.0,0.0,0.0,0.0,0.0,0.0,0.0,0.0,0.0,0.0,0.0,0.0,0.0,0.0,0.0,0.0,-2.0428,0.0,0.0,0.0,0.0,0.0,0.0,0.0,0.0,0.0,-2.8876,-3.2185,-3.5843,-3.9358,-4.0795,-4.2019,-4.3381,0.0,0.0,0.0,0.0,0.0,0.0,0.0,-3.9089,-4.0137,-3.9336,-3.8791,-3.9483,-4.2238,-4.4027,-4.2982,0.0,0.0,-3.64,-3.4387,-3.4231,-3.5528,-3.5735,-3.6059,-3.7301,-3.837,-3.9232,0.0,0.0,0.0,0.0,0.0,0.0,0.0,0.0,-2.9325,-2.9026,0.0,-2.8199,0.0,0.0,0.0,0.0,0.0,-2.9131,0.0,0.0,-3.8975,-4.1365,-4.0449,-4.1238,-4.0616,-3.8752,-3.9198,-3.6784,-3.1582,-2.7703,0.0,0.0,0.0,0.0,0.0,0.0,-3.3521,-3.5676,-3.957,-4.1263,-4.0566,-4.052,-4.0489,-4.0397,-3.86,-3.6599,-3.4628,-3.3183,-3.0658,-2.6665,-2.5173,0.0,0.0,0.0,0.0,0.0,0.0,0.0,0.0,0.0,0.0,0.0,0.0,0.0,0.0,0.0,0.0,0.0,0.0,0.0,0.0,-2.2471,0.0,0.0,0.0,0.0,0.0,0.0,0.0,0.0,0.0,0.0,-3.2619,-3.6029,-3.9999,-4.348,0.0,0.0,0.0,0.0,-4.3144,-4.5165,-4.3451,-4.24,-4.366,-4.4219,-4.4309,-4.3749,0.0,0.0,-4.4932,-4.6941,-4.7913,-4.5139,-4.6475,-4.7362,-4.5759,-4.3406,-4.225,-4.3,-4.205,-4.1481,-4.2206,-4.3492,-4.4466,-3.6369,0.0,0.0,0.0,0.0,-3.3409,-3.5055,-3.7963,-3.6806,-3.5534,-3.4173,-3.3529,0.0,0.0,0.0,0.0,0.0,0.0,-3.4317,-3.6804,-3.9382,-4.1248,-4.2469,-4.3343,-4.3119,-4.1944,-4.1792,-4.017,-3.7215,-3.5537,-3.1243,-2.461,0.0,0.0,0.0,0.0,-3.583,-3.8323,-4.0493,-4.1509,-4.1294,-4.0766,-4.0259,-3.9797,-3.9213,-3.7984,-3.5999,-3.5522,-3.366,-3.0104,-2.8649,0.0,0.0,0.0,0.0,0.0,0.0,0.0,0.0,0.0,0.0,0.0,0.0,0.0,0.0,0.0,0.0,0.0,0.0,0.0,-2.1073,-2.207,-2.2521,0.0,0.0,0.0,0.0,0.0,0.0,0.0,0.0,0.0,-4.1089,-4.2278,-4.3334,0.0,0.0,-4.5538,-4.5077,-4.571,-4.6394,-4.6767,-4.649,0.0,-4.6448,-4.5539,-4.529,-4.6681,-4.8514,-4.9769,-4.9918,-5.0577,-5.0828,-5.0016,-5.0447,-5.074,-5.0206,-4.7948,-4.6475,-4.6975,-4.6837,-4.6993,-4.8217,-4.889,-4.9286,-4.2991,-3.8337,-3.6542,-3.6985,-3.8721,-3.8108,-3.9469,-4.2087,-4.104,-3.9903,-3.8801,-3.8123,-3.5938,-3.2632,-3.1941,0.0,0.0,0.0,-3.7167,-3.9948,-4.1153,-4.2456,-4.3821,-4.4611,-4.4441,-4.3438,-4.3411,-4.234,-4.0355,-4.0201,-3.6907,-3.0709,0.0,0.0,-3.1505,-3.4645,-3.7338,-3.9493,-4.117,-4.1878,-4.1586,-4.0858,-4.0305,-3.989,-3.9628,-3.8939,-3.7738,-3.7169,-3.5691,-3.3149,-3.1459,-2.9058,0.0,0.0,0.0,0.0,0.0,0.0,0.0,0.0,0.0,0.0,0.0,-1.7222,0.0,0.0,0.0,0.0,-2.0649,-2.2717,-2.4323,-2.5798,0.0,0.0,0.0,0.0,0.0,0.0,0.0,-3.7983,-4.1073,-4.3732,-4.5984,-4.6908,-4.731,-4.7238,-4.7569,-4.7547,-4.6883,0.0,-4.8443,-4.845,-4.8748,-4.8989,-4.8996,-4.8506,-4.8702,-5.0459,-5.1501,-5.2317,-5.295,-5.3039,-5.3039,-5.3101,-5.3132,-5.3101,-5.3132,-5.1614,-5.0275,-5.0171,-5.0137,-5.0481,-5.1407,-5.1804,-5.2166,-4.8177,-4.7249,-4.297,-4.1833,-4.2785,-4.2171,-4.2581,-4.3618,-4.2985,-4.268,-4.259,-4.1908,-4.0217,-3.7778,-3.6076,0.0,-3.7537,-3.8706,-4.0491,-4.2683,-4.3907,-4.455,-4.4772,-4.5326,-4.4941,-4.3793,-4.4348,-4.3602,-4.1848,-4.2371,-4.1355,-3.8831,-3.6384,-3.5106,-3.509,-3.6861,-3.8523,-3.989,-4.1709,-4.2279,-4.1617,-4.092,-4.0551,-4.0489,-3.9844,-3.9493,-3.9351,-3.8185,-3.6876,-3.5507,-3.3598,-3.1089,-2.7857,0.0,0.0,0.0,0.0,0.0,0.0,0.0,0.0,0.0,0.0,0.0,0.0,0.0,0.0,0.0,-2.5921,0.0,-2.9544,-3.1832,0.0,0.0,0.0,-3.3069,-3.393,-3.6917,-3.9662,-4.1591,0.0,0.0,-4.8244,-5.0002,-5.1319,-5.1386,-5.0118,-4.9407,-5.0016,-4.9701,-4.9647,-5.0168,-5.0447,-5.075,-5.1234,-5.1968,-5.2816,-5.3773,-5.4431,-5.4296,-5.4328,-5.4394,-5.4445,-5.4408,-5.4494,-5.446,-5.4494,-5.427,-5.408,-5.258,-5.2373,-5.239,-5.2446,-5.2977,-5.3425,-5.0421,-5.0152,-4.8521,-4.7519,-4.683,-4.6172,-4.6352,-4.698,-4.5888,-4.5095,-4.4556,-4.3898,-4.3,-4.1884,-4.1953,-4.2378,-4.3084,-4.3762,-4.4589,-4.5571,-4.5721,-4.5914,-4.6111,-4.5772,-4.5418,-4.5095,-4.4779,-4.4101,-4.3177,-4.3264,-4.2756,-4.1648,-4.0986,-4.0139,-3.917,-4.0108,-4.154,-4.3371,-4.2863,-4.2294,-4.1632,-4.1432,-4.1078,-4.0505,-3.9828,-3.9277,-3.8721,-3.7954,-3.6892,-3.5537,-3.4551,-3.2906,-3.0561,-2.6734,0.0,0.0,0.0,0.0,0.0,0.0,0.0,0.0,0.0,-2.2905,-1.8116,0.0,-2.587,0.0,-2.9053,-3.1495,-3.229,-3.2929,0.0,0.0,-3.629,-3.7498,-4.2115,-4.2585,-4.3746,-4.6794,-4.8595,-4.9999,-5.1133,-5.1708,-5.2266,-5.2841,-5.1657,-5.0557,-5.0185,-5.0996,-5.1605,-5.1758,-5.2282,-5.2773,-5.2875,-5.3178,-5.3464,-5.3798,-5.3898,-5.3963,-5.4222,-5.4271,-5.4303,-5.4463,-5.4512,-5.4512,-5.4512,-5.4512,-5.4425,-5.4046,-5.3977,-5.396,-5.3977,-5.4115,-5.4236,-5.1229,-5.1184,-5.0825,-5.0257,-4.9523,-4.8596,-4.8386,-4.8626,-4.7638,-4.683,-4.6127,-4.5155,-4.4556,-4.4242,-4.4601,-4.4955,-4.5269,-4.5632,-4.6057,-4.6444,-4.6444,-4.6484,-4.6573,-4.6203,-4.6034,-4.6018,-4.5357,-4.4872,-4.4502,-4.4194,-4.387,-4.3479,-4.3494,-4.3094,-4.2371,-4.2432,-4.3069,-4.4148,-4.3402,-4.2709,-4.2063,-4.1755,-4.1109,-4.0124,-3.9674,-3.9046,-3.8092,-3.74,-3.643,-3.5136,-3.412,-3.2918,-3.1455,-2.8411,-2.6226,0.0,0.0,0.0,0.0,0.0,0.0,0.0,0.0,0.0,0.0,0.0,-2.9002,-3.0146,-3.3578,-3.6058,-3.6918,-3.8074,-3.9757,-4.2013,-4.1888,-4.3131,-4.6777,-4.6847,-4.7477,-4.9714,-5.0625,-5.1386,-5.2198,-5.2604,-5.2993,-5.345,-5.2773,-5.2097,-5.1775,-5.235,-5.2841,-5.2875,-5.3213,-5.3534,-5.3584,-5.3584,-5.3634,-5.3783,-5.3832,-5.3915,-5.4095,-5.4401,-5.4554,-5.436,-5.4804,-5.501,-5.4525,-5.4677,-5.483,-5.4566,-5.4448,-5.4416,-5.448,-5.4512,-5.4512,-5.1229,-5.1229,-5.1229,-5.1229,-5.1139,-4.9987,-4.9524,-4.9344,-4.8701,-4.8042,-4.7354,-4.6112,-4.5544,-4.5559,-4.5559,-4.5668,-4.586,-4.6111,-4.6356,-4.6584,-4.673,-4.6825,-4.685,-4.6757,-4.6726,-4.6696,-4.6034,-4.5711,-4.5695,-4.511,-4.4803,-4.4748,-4.4733,-4.4702,-4.4594,-4.4024,-4.3732,-4.3732,-4.3747,-4.3387,-4.274,-4.2078,-4.1063,-3.969,-3.9367,-3.8662,-3.7415,-3.6722,-3.586,-3.4674,-3.3444,-3.249,-3.1809,-2.9874,-2.8458,0.0,-2.6403,0.0,0.0,0.0,0.0,0.0,0.0,0.0,0.0,-3.2044,-3.2838,-3.5202,-3.869,-4.1233,-4.2189,-4.4512,-4.6075,-4.6278,-4.7411,-4.8511,-4.934,-4.9999,-5.0659,-5.142,-5.2063,-5.2452,-5.2503,-5.3095,-5.3501,-5.3501,-5.345,-5.3348,-5.345,-5.3433,-5.345,-5.3518,-5.3518,-5.3534,-5.3634,-5.3668,-5.3717,-5.3899,-5.4051,-5.4084,-5.4135,-5.4733,-5.5056,-5.4578,-5.5363,-5.5739,-5.464,-5.5013,-5.5132,-5.4694,-5.4375,-5.4271,-5.4431,-5.4463,-5.448,-5.1229,-5.1229,-5.1229,-5.1229,-5.1152,-5.096,-5.0541,-5.0002,-4.9359,-4.8716,-4.8042,-4.7279,-4.692,-4.692,-4.6935,-4.7006,-4.7204,-4.7289,-4.7528,-4.7904,-4.7946,-4.807,-4.8189,-4.7665,-4.7419,-4.7373,-4.6742,-4.6403,-4.6403,-4.628,-4.5926,-4.5403,-4.5403,-4.5126,-4.4641,0.0,0.0,0.0,-4.4425,-4.4086,-4.3424,-4.2756,-4.1755,-4.032,-3.8706,0.0,-3.6707,-3.6061,-3.5583,-3.5337,-3.5059,0.0,0.0,0.0,0.0,0.0,0.0,0.0,0.0,0.0,0.0,0.0,-3.5297,-3.392,-3.3249,-3.7311,-4.026,-4.0809,-4.3135,-4.4964,-4.5739,-4.6794,-4.797,-4.912,-4.9509,-5.0202,-5.1471,-5.1809,-5.2181,-5.2976,-5.3196,-5.3264,-5.3264,-5.3416,-5.3501,-5.3518,-5.3518,-5.3518,-5.3518,-5.3518,-5.3518,-5.3518,-5.3518,-5.3501,-5.3534,-5.3534,-5.3551,-5.3652,-5.4228,-5.4567,-5.4685,-5.5383,-5.5962,-5.5706,-5.603,-5.6167,-5.5825,-5.5483,-5.5141,-5.4986,-5.4473,-5.411,-5.4448,-5.4367,-5.4303,-5.1229,-5.1229,-5.1229,-5.1229,0.0,-5.1229,-5.102,-5.0644,-5.0032,-4.9209,-4.8282,-4.7938,-4.7608,-4.7309,-4.7309,-4.7337,-4.7467,-4.7553,-4.7794,-4.8133,-4.8244,-4.8412,-4.8604,-4.825,-4.8112,-4.8065,-4.7419,-4.7096,-4.7065,-4.6757,-4.6419,-4.608,-4.608,-4.5741,-4.5118,-4.4779,-4.461,-4.461,-4.461,-4.4286,-4.3639,-4.3248,-4.2263,-4.0551,-3.9216,0.0,0.0,0.0,0.0,0.0,0.0,0.0,0.0,0.0,0.0,-3.3891,-3.3891,-3.4169,-3.4877,-3.6168,-3.7809,-3.9835,-4.1054,-4.0594,-3.8094,-4.2624,-4.5602,-4.5635,-4.6989,-4.8173,-4.89,-4.934,-4.9982,-5.1031,-5.1183,-5.164,-5.2706,-5.3213,-5.3433,-5.3518,-5.3822,-5.3923,-5.3551,-5.3518,-5.3518,-5.3518,-5.3518,-5.3534,-5.3518,-5.3518,-5.3518,-5.3518,-5.3518,-5.3518,-5.3518,-5.3518,-5.3518,-5.3585,-5.4144,-5.4635,-5.4703,-5.5688,-5.6386,-5.6096,-5.6522,-5.6795,-5.5707,-5.5502,-5.5332,-5.4716,-5.4188,-5.3948,-5.4175,-5.4175,-5.4093,-5.1229,-5.1229,-5.1229,-5.1229,-5.1229,-5.1229,-5.1229,-5.1122,0.0,0.0,0.0,-4.8521,-4.8147,-4.7653,-4.7549,-4.7474,-4.7474,-4.7555,-4.7709,-4.7937,-4.816,-4.837,-4.8537,-4.8578,-4.8604,-4.8589,-4.805,-4.7788,-4.7758,-4.7219,-4.688,-4.6788,-4.6773,-4.6434,-4.5772,-4.5203,-4.488,-4.4756,-4.4671,-4.4348,-4.3809,-4.3655,-4.2709,-4.0905,-4.009,-3.8846,-3.7092,-3.6492,-3.566,-3.4568,-3.4599,-3.486,-3.5383,-3.603,-3.7061,-3.8569,-3.9447,-3.9951,-4.0247,-4.2067,-4.29,-4.2231,-4.5699,-4.6782,-4.4198,-4.7302,-4.939,-4.939,-5.005,-5.0727,-5.132,-5.1506,-5.1928,-5.2621,-5.2706,-5.3027,-5.3805,-5.4397,-5.4532,-5.4076,-5.4448,-5.4583,-5.4059,-5.3974,-5.3907,-5.3907,-5.4025,-5.389,-5.3856,-5.3704,-5.3518,-5.3518,-5.3518,-5.3518,-5.3518,-5.3518,-5.3534,-5.3754,-5.4346,-5.4803,-5.5141,-5.6089,-5.6664,-5.6361,-5.7137,-5.6989,-5.5637,-5.5586,-5.557,-5.4497,-5.3937,-5.3785,-5.402,-5.4017,-5.3932,-5.1229,-5.1229,-5.1229,-5.1229,-5.1229,-5.1229,-5.1229,-5.1169,-5.048,-5.0091,-4.9882,-4.9374,-4.912,-4.8955,-4.8401,-4.8147,-4.8146,-4.7765,-4.7624,-4.7666,-4.8076,-4.8328,-4.8328,-4.8537,-4.8604,-4.8604,-4.8512,-4.8481,-4.845,-4.8358,-4.805,-4.7527,-4.7465,-4.7127,-4.6496,-4.6357,-4.6018,-4.5449,-4.4864,-4.4579,-4.4471,-4.3901,-4.3187,-4.2325,-4.1043,-3.9967,-3.9139,-3.8985,-3.8862,-3.8659,-3.9182,-3.929,-3.8862,-3.9413,-3.9659,-3.9428,-4.0586,-4.1801,-4.2946,-4.4486,-4.6342,-4.8571,-5.0493,-5.0805,-4.928,-5.0188,-5.0881,-5.0898,-5.1555,-5.2012,-5.2181,-5.2773,-5.3467,-5.4126,-5.4262,-5.4566,-5.5243,-5.5463,-5.5497,-5.5327,-5.548,-5.553,-5.5327,-5.5294,-5.5277,-5.5344,-5.5175,-5.5327,-5.5091,-5.4296,-5.3585,-5.3518,-5.3518,-5.3518,-5.3585,-5.3518,-5.3839,-5.4346,-5.5057,-5.5733,-5.6224,-5.7036,-5.7543,-5.7543,-5.7695,-5.7444,-5.6513,-5.6056,-5.5702,-5.5211,-5.4364,-5.389,-5.433,-5.3991,-5.3753,-5.1229,-5.1229,-5.1229,-5.1229,-5.1229,-5.1229,-5.1229,-5.1184,-5.0868,-5.0571,-5.0181,-4.9927,-4.9583,-4.9299,-4.9,-4.882,-4.885,-4.8639,-4.8665,-4.8868,-4.8751,-4.8825,-4.899,-4.8763,-4.8604,-4.8604,-4.8604,-4.8604,-4.8604,-4.8604,-4.845,-4.8127,-4.7788,-4.745,-4.7142,-4.6773,-4.6434,-4.6142,-4.5464,-4.4941,-4.4625,-4.4317,-4.3824,-4.3156,-4.214,-4.134,-4.0662,-4.0243,-4.0043,-4.0028,-4.0689,-4.1124,-4.1217,-4.2171,-4.274,-4.2848,-4.3756,-4.4783,-4.5831,-4.7257,-4.9001,-5.1111,-5.2276,-5.2823,-5.2587,-5.2469,-5.2452,-5.2486,-5.3112,-5.3534,-5.3551,-5.4245,-5.4837,-5.5158,-5.5209,-5.5344,-5.5647,-5.6105,-5.6156,-5.5835,-5.6072,-5.6156,-5.5732,-5.5681,-5.5681,-5.5681,-5.5716,-5.5698,-5.5733,-5.5192,-5.4549,-5.4228,-5.4431,-5.4482,-5.4194,-5.4465,-5.482,-5.5175,-5.5818,-5.6376,-5.6799,-5.7391,-5.7814,-5.7881,-5.7881,-5.7425,-5.6494,-5.6325,-5.5835,-5.4668,-5.4785,-5.4617,-5.4211,-5.3991,-5.4042,-5.1229,-5.1229,-5.1229,-5.1229,-5.1229,-5.1229,-5.1229,-5.1229,-5.1214,-5.0883,-5.045,-5.042,-5.0182,-4.9763,-4.9553,-4.9524,-4.9509,-4.9464,-4.9628,-4.9849,-4.9554,-4.957,-4.9766,-4.9285,-4.9004,-4.8881,-4.885,-4.8789,-4.8635,-4.8604,-4.8604,-4.8558,-4.8096,-4.7835,-4.7819,-4.7311,-4.6973,-4.6803,-4.6311,-4.5726,-4.5064,-4.5033,-4.4787,-4.4302,-4.3787,-4.3264,-4.274,-4.2186,-4.1858,-4.1873,-4.2417,-4.2971,-4.351,-4.4464,-4.5264,-4.5803,-4.6449,-4.7324,-4.8423,-4.9533,-5.0948,-5.2649,-5.3301,-5.3959,-5.4682,-5.4346,-5.3991,-5.4076,-5.4499,-5.482,-5.4854,-5.5294,-5.5732,-5.5936,-5.5953,-5.6055,-5.6241,-5.6714,-5.685,-5.6376,-5.6714,-5.6833,-5.6376,-5.6207,-5.6258,-5.6308,-5.6207,-5.6207,-5.619,-5.619,-5.5886,-5.5412,-5.5463,-5.5446,-5.4972,-5.526,-5.5683,-5.5902,-5.6393,-5.6782,-5.707,-5.756,-5.7831,-5.7881,-5.7881,-5.7408,-5.6342,-5.6207,-5.5919,-5.4871,-5.4972,-5.504,-5.4397,-5.4532,-5.4719,-5.1229,-5.1229,-5.1229,-5.1229,-5.1229,-5.1229,-5.1229,-5.1229,-5.1229,-5.1152,-5.1094,-5.1078,-5.1065,-5.096,-5.0406,-5.0091,-5.0092,-5.0004,-4.9851,-4.9807,-5.0273,-5.0445,-5.0299,-5.0396,-5.0174,-4.9651,-4.9589,-4.9251,-4.8696,-4.862,-4.8604,-4.8604,-4.8543,-4.8481,-4.8496,-4.8435,-4.8112,-4.7527,-4.7465,-4.7096,-4.6465,-4.6419,-4.6388,-4.6326,-4.6234,-4.6219,-4.5926,-4.608,-4.6018,-4.6049,-4.6003,-4.6126,-4.6203,-4.6342,-4.6449,-4.6526,-4.7142,-4.8385,-5.0357,-5.0754,-5.1871,-5.3907,-5.4278,-5.4709,-5.551,-5.5564,-5.5513,-5.553,-5.5581,-5.5615,-5.5632,-5.5733,-5.6089,-5.6647,-5.6697,-5.6951,-5.7459,-5.7746,-5.7763,-5.7712,-5.7628,-5.7746,-5.7543,-5.7492,-5.756,-5.7459,-5.7408,-5.7425,-5.7442,-5.7442,-5.7256,-5.663,-5.619,-5.5801,-5.5666,-5.5614,-5.6122,-5.6596,-5.6748,-5.7087,-5.7526,-5.7746,-5.7881,-5.7881,-5.7881,-5.7543,-5.6833,-5.6342,-5.6105,-5.5852,-5.5446,-5.4905,-5.5294,-5.5547,-5.5582,-5.1229,-5.1229,-5.1229,-5.1229,-5.1229,-5.1229,-5.1229,-5.1229,-5.1229,-5.1229,-5.1229,-5.1229,-5.1229,-5.1199,-5.0883,-5.0764,-5.0795,-5.0725,-5.0743,-5.0789,-5.0862,-5.0886,-5.0914,-5.0721,-5.0528,-5.0313,-5.0282,-4.9928,-4.9281,-4.8835,-4.8604,-4.8604,-4.8604,-4.8604,-4.8604,-4.8604,-4.8481,-4.8219,-4.8204,-4.8065,-4.7727,-4.6988,-4.6603,-4.6603,-4.6603,-4.6603,-4.6603,-4.6603,-4.6603,-4.6619,-4.6957,-4.7188,-4.7204,-4.7573,-4.7788,-4.786,-4.8895,-5.0308,-5.2117,-5.2692,-5.359,-5.508,-5.5571,-5.5987,-5.6341,-5.6748,-5.7002,-5.6951,-5.663,-5.6359,-5.6376,-5.6748,-5.712,-5.7391,-5.7459,-5.756,-5.7831,-5.7881,-5.7881,-5.7881,-5.7881,-5.7881,-5.7881,-5.7881,-5.7881,-5.7881,-5.7881,-5.7881,-5.7881,-5.7881,-5.7763,-5.7509,-5.7171,-5.6816,-5.6494,-5.6765,-5.707,-5.7323,-5.7442,-5.7645,-5.7746,-5.7881,-5.7881,-5.7881,-5.7881,-5.7611,-5.69,-5.7002,-5.6968,-5.6596,-5.6055,-5.5598,-5.6748,-5.6647,-5.6598,-5.1229,-5.1229,-5.1229,-5.1229,-5.1229,-5.1229,-5.1229,-5.1229,-5.1229,-5.1229,-5.1229,-5.1229,-5.1229,-5.1229,-5.1229,-5.1229,-5.1214,-5.1261,-5.1448,-5.1681,-5.1455,-5.1469,-5.1616,-5.1394,-5.1144,-5.099,-5.0959,-5.062,-4.9974,-4.9466,-4.9189,-4.9189,-4.9174,-4.9189,-4.9158,-4.902,-4.8912,-4.8881,-4.8727,-4.8604,-4.8466,-4.765,-4.7157,-4.7142,-4.7157,-4.7157,-4.7142,-4.7157,-4.7142,-4.7157,-4.7619,-4.7989,-4.8173,-4.865,-4.8989,-4.9273,-5.0438,-5.1764,-5.3078,-5.3895,-5.4825,-5.5825,-5.6474,-5.687,-5.7152,-5.7577,-5.7848,-5.7814,-5.7408,-5.7087,-5.7154,-5.7577,-5.7865,-5.7881,-5.7881,-5.7881,-5.7881,-5.7881,-5.7881,-5.7881,-5.7881,-5.7881,-5.7881,-5.7881,-5.7881,-5.7881,-5.7881,-5.7881,-5.7881,-5.7881,-5.7865,-5.7881,-5.7865,-5.7662,-5.7239,-5.7408,-5.7848,-5.7881,-5.7831,-5.7814,-5.7881,-5.7881,-5.7881,-5.7881,-5.7881,-5.7763,-5.7323,-5.7492,-5.7425,-5.6511,-5.619,-5.6545,-5.7476,-5.734,-5.7374,-5.1229,-5.1229,-5.1229,-5.1229,-5.1229,-5.1229,-5.1229,-5.1229,-5.1229,-5.1229,-5.1229,-5.1229,-5.1229,-5.1229,-5.1229,-5.1229,-5.1214,-5.1448,-5.168,-5.1941,-5.2124,-5.2351,-5.2607,-5.2621,-5.2267,-5.1698,-5.1667,-5.1313,-5.0697,-5.0574,-5.0605,-5.0559,-5.0482,-5.0543,-5.042,-4.9897,-4.9635,-4.9589,-4.9066,-4.8681,-4.8666,-4.8589,-4.8543,-4.8527,-4.8496,-4.8419,-4.8466,-4.8512,-4.8512,-4.8527,-4.8573,-4.8897,-4.9497,-4.9605,-4.9912,-5.0568,-5.145,-5.2248,-5.3041,-5.3874,-5.4969,-5.6239,-5.6585,-5.6967,-5.7656,-5.7814,-5.7915,-5.7898,-5.7898,-5.7831,-5.7898,-5.7898,-5.7881,-5.7881,-5.7881,-5.7881,-5.7881,-5.7881,-5.7881,-5.7881,-5.7881,-5.7881,-5.7881,-5.7881,-5.7881,-5.7881,-5.7881,-5.7881,-5.7881,-5.7881,-5.7881,-5.7881,-5.7881,-5.7865,-5.7831,-5.7814,-5.7848,-5.7881,-5.7881,-5.7881,-5.7881,-5.7881,-5.7881,-5.7881,-5.7881,-5.7831,-5.7712,-5.7492,-5.7188,-5.69,-5.7222,-5.7712,-5.7831,-5.7865,-5.7848,-5.1229,-5.1229,-5.1229,-5.1229,-5.1229,-5.1229,-5.1229,-5.1229,-5.1229,-5.1229,-5.1229,-5.1229,-5.1229,-5.1229,-5.1229,-5.1229,-5.1229,-5.1308,-5.1494,-5.1741,-5.2017,-5.2231,-5.2457,-5.2608,-5.2606,-5.239,-5.2344,-5.2006,-5.1344,-5.0913,-5.0697,-5.0697,-5.0697,-5.0697,-5.0651,-5.0451,-5.0343,-5.0297,-5.0051,-4.9943,-4.9912,-4.9943,-4.9959,-4.9897,-4.9066,-4.8604,-4.8604,-4.905,-4.9297,-4.9297,-4.9712,-5.0051,-5.0297,-5.0328,-5.0636,-5.1323,-5.2171,-5.2928,-5.3614,-5.4475,-5.5439,-5.6432,-5.663,-5.7008,-5.7681,-5.7898,-5.8084,-5.8473,-5.8592,-5.8778,-5.8998,-5.8473,-5.7881,-5.7881,-5.7898,-5.7932,-5.7881,-5.7881,-5.7881,-5.7881,-5.7881,-5.7881,-5.7881,-5.7881,-5.7881,-5.7881,-5.7881,-5.7881,-5.7881,-5.7881,-5.7881,-5.7881,-5.7881,-5.7881,-5.7881,-5.7865,-5.7881,-5.7881,-5.7881,-5.7881,-5.7881,-5.7881,-5.7881,-5.7881,-5.7881,-5.7865,-5.778,-5.7729,-5.7357,-5.7459,-5.7831,-5.7831,-5.7881,-5.7881,-5.7881,-5.1229,-5.1229,-5.1229,-5.1229,-5.1229,-5.1229,-5.1229,-5.1229,-5.1229,-5.1229,-5.1229,-5.1229,-5.1229,-5.1229,-5.1229,-5.1229,-5.1214,-5.1308,-5.1448,-5.1741,-5.1972,-5.2185,-5.2412,-5.2608,-5.2713,-5.2713,-5.2713,-5.2467,-5.2052,-5.1575,-5.1359,-5.1359,-5.1344,-5.1344,-5.1313,-5.1144,-5.1021,-5.1005,-5.082,-5.0682,-5.0697,-5.0697,-5.0697,-5.0559,-4.9774,-4.9281,-4.9297,-4.9758,-5.0005,-5.0082,-5.0451,-5.079,-5.099,-5.1236,-5.1544,-5.2048,-5.286,-5.3529,-5.4009,-5.4803,-5.5774,-5.6851,-5.6978,-5.7392,-5.8413,-5.8609,-5.8879,-5.9252,-5.9387,-5.9624,-5.9759,-5.9184,-5.8609,-5.8609,-5.8609,-5.8609,-5.8575,-5.8389,-5.8152,-5.7932,-5.7881,-5.7881,-5.7881,-5.7881,-5.7881,-5.7881,-5.7881,-5.7881,-5.7881,-5.7881,-5.7881,-5.7881,-5.7881,-5.7881,-5.7881,-5.7881,-5.7881,-5.7881,-5.7881,-5.7881,-5.7881,-5.7881,-5.7881,-5.7881,-5.7881,-5.7881,-5.7881,-5.7881,-5.7881,-5.7881,-5.7865,-5.7865,-5.7881,-5.7881,-5.7881,-5.1229,-5.1229,-5.1229,-5.1229,-5.1229,-5.1229,-5.1229,-5.1229,-5.1229,-5.1229,-5.1229,-5.1229,-5.1229,-5.1229,-5.1229,-5.1229,-5.1276,-5.1494,-5.1741,-5.1987,-5.2185,-5.2412,-5.2653,-5.2669,-5.2713,-5.2713,-5.2713,-5.2713,-5.2621,-5.2544,-5.2513,-5.2621,-5.2529,-5.2467,-5.2637,-5.2006,-5.1713,-5.1605,-5.119,-5.0851,-5.0728,-5.0867,-5.0897,-5.0836,-5.0728,-5.0697,-5.0697,-5.0697,-5.0697,-5.0713,-5.079,-5.1067,-5.1698,-5.2221,-5.2652,-5.274,-5.3474,-5.3965,-5.4067,-5.4822,-5.6035,-5.7089,-5.7578,-5.8174,-5.9316,-5.9785,-5.9945,-6.0097,-6.0114,-6.0182,-6.025,-6.0199,-6.0047,-6.0047,-5.9827,-5.9844,-5.981,-5.9404,-5.8761,-5.822,-5.8068,-5.7932,-5.7915,-5.7915,-5.7898,-5.7881,-5.7881,-5.7881,-5.7881,-5.7881,-5.7881,-5.7881,-5.7881,-5.7881,-5.7881,-5.7881,-5.7881,-5.7881,-5.7881,-5.7881,-5.7881,-5.7881,-5.7881,-5.7881,-5.7881,-5.7881,-5.7881,-5.7881,-5.7881,-5.7881,-5.7881,-5.7881,-5.7881,-5.7881,-5.7881,-5.1229,-5.1229,-5.1229,-5.1229,-5.1229,-5.1229,-5.1229,-5.1229,-5.1229,-5.1229,-5.1229,-5.1229,-5.1229,-5.1229,-5.1229,-5.1308,-5.1494,-5.1741,-5.1941,-5.2033,-5.2231,-5.2457,-5.2669,-5.2713,-5.2713,-5.2713,-5.2713,-5.2713,-5.2713,-5.2713,-5.2713,-5.2713,-5.2713,-5.2713,-5.2713,-5.2498,-5.2406,-5.2359,-5.2206,-5.2082,-5.2082,-5.2082,-5.2067,-5.2082,-5.2082,-5.2082,-5.2067,-5.1652,-5.1405,-5.139,-5.1836,-5.219,-5.2406,-5.2606,-5.2713,-5.2834,-5.3975,-5.437,-5.4037,-5.497,-5.5953,-5.6579,-5.7119,-5.8002,-5.9012,-5.9826,-6.0347,-6.0825,-6.0926,-6.1095,-6.1552,-6.167,-6.1231,-6.0216,-6.0097,-6.0165,-6.0148,-5.9928,-5.9691,-5.9404,-5.8981,-5.871,-5.8558,-5.8321,-5.7966,-5.7932,-5.7915,-5.7881,-5.7881,-5.7881,-5.7881,-5.7881,-5.7881,-5.7881,-5.7881,-5.7881,-5.7881,-5.7881,-5.7881,-5.7881,-5.7881,-5.7881,-5.7881,-5.7881,-5.7881,-5.7881,-5.7881,-5.7881,-5.7881,-5.7881,-5.7881,-5.7881,-5.7881,-5.7881,-5.7881,-5.1229,-5.1229,-5.1229,-5.1229,-5.1229,-5.1229,-5.1229,-5.1229,-5.1229,-5.1229,-5.1229,-5.1229,-5.1229,-5.1229,-5.1308,-5.1448,-5.1634,-5.1926,-5.2109,-5.2155,-5.2382,-5.2563,-5.2713,-5.2713,-5.2713,-5.2713,-5.2713,-5.2713,-5.2713,-5.2713,-5.2713,-5.2713,-5.2713,-5.2713,-5.2713,-5.2713,-5.2713,-5.2713,-5.2698,-5.2713,-5.2713,-5.2713,-5.2713,-5.2713,-5.2713,-5.2713,-5.2667,-5.2283,-5.2067,-5.2144,-5.2498,-5.2806,-5.3037,-5.3098,-5.3191,-5.3589,-5.4231,-5.463,-5.4268,-5.4943,-5.5862,-5.6362,-5.729,-5.8349,-5.9414,-6.0444,-6.1175,-6.1586,-6.1721,-6.1907,-6.2279,-6.2381,-6.1907,-6.1095,-6.0994,-6.0825,-6.0639,-6.0537,-6.0334,-6.0063,-5.9658,-5.9471,-5.9268,-5.8795,-5.8338,-5.8304,-5.8051,-5.7881,-5.7881,-5.7881,-5.7881,-5.7881,-5.7881,-5.7881,-5.7881,-5.7881,-5.7881,-5.7881,-5.7881,-5.7881,-5.7881,-5.7881,-5.7881,-5.7881,-5.7881,-5.7881,-5.7881,-5.7881,-5.7881,-5.7881,-5.7881,-5.7881,-5.7881,-5.7881,-5.7881,-5.1229,-5.1229,-5.1229,-5.1229,-5.1229,-5.1229,-5.1229,-5.1229,-5.1229,-5.1229,-5.1229,-5.1229,-5.1229,-5.1261,-5.1448,-5.1587,-5.1741,-5.2215,-5.2474,-5.255,-5.2778,-5.2915,-5.2744,-5.2944,-5.2975,-5.2729,-5.2806,-5.2837,-5.2883,-5.2883,-5.2806,-5.2991,-5.2944,-5.2806,-5.2852,-5.2775,-5.2713,-5.2713,-5.2713,-5.2713,-5.2713,-5.2713,-5.2713,-5.2713,-5.2713,-5.276,-5.2852,-5.2898,-5.2867,-5.279,-5.2898,-5.3268,-5.3622,-5.373,-5.4006,-5.4483,-5.4714,-5.4823,-5.4776,-5.5256,-5.5843,-5.706,-5.8176,-5.9239,-6.0614,-6.1528,-6.211,-6.2245,-6.2296,-6.233,-6.2381,-6.2398,-6.2313,-6.2364,-6.2127,-6.189,-6.1467,-6.1349,-6.1112,-6.0554,-6.0233,-6.0165,-6.0131,-5.9539,-5.9133,-5.8829,-5.8389,-5.8152,-5.7881,-5.7881,-5.7881,-5.7881,-5.7881,-5.7881,-5.7881,-5.7881,-5.7881,-5.7881,-5.7881,-5.7881,-5.7881,-5.7881,-5.7881,-5.7881,-5.7881,-5.7881,-5.7881,-5.7881,-5.7881,-5.7881,-5.7881,-5.7881,-5.7881,-5.7881,-5.7881,-5.1229,-5.1229,-5.1229,-5.1229,-5.1229,-5.1229,-5.1229,-5.1229,-5.1229,-5.1229,-5.1229,-5.1229,-5.1229,-5.1229,-5.1509,-5.168,-5.2062,-5.2719,-5.3147,-5.3392,-5.396,-5.3514,-5.3084,-5.3683,-5.3622,-5.296,-5.3252,-5.3452,-5.3468,-5.3452,-5.3683,-5.4114,-5.3668,-5.3468,-5.3406,-5.3006,-5.2729,-5.2713,-5.2713,-5.2729,-5.2713,-5.2713,-5.2713,-5.2713,-5.2744,-5.2991,-5.3437,-5.3899,-5.3883,-5.3484,-5.3914,-5.4222,-5.4375,-5.4422,-5.4591,-5.4837,-5.5207,-5.5438,-5.5672,-5.656,-5.743,-5.7971,-5.9318,-6.0521,-6.0937,-6.187,-6.2319,-6.2398,-6.2398,-6.2398,-6.2398,-6.2398,-6.2398,-6.2398,-6.2398,-6.2313,-6.2127,-6.211,-6.1992,-6.1772,-6.1298,-6.1044,-6.0825,-6.0334,-5.9674,-5.9235,-5.8846,-5.8507,-5.8186,-5.7881,-5.7881,-5.7881,-5.7881,-5.7881,-5.7881,-5.7881,-5.7881,-5.7881,-5.7881,-5.7881,-5.7881,-5.7881,-5.7881,-5.7881,-5.7881,-5.7881,-5.7881,-5.7881,-5.7881,-5.7881,-5.7881,-5.7881,-5.7881,-5.7881,-5.7881,-5.1229,-5.1229,-5.1229,-5.1229,-5.1229,-5.1229,-5.1229,-5.1229,-5.1229,-5.1229,-5.1229,-5.1229,-5.1229,-5.1244,-5.1874,-5.2211,-5.241,-5.3406,-5.3867,-5.4036,-5.4745,-5.4452,-5.3929,-5.4406,-5.4252,-5.3668,-5.3945,-5.4068,-5.4099,-5.4099,-5.4329,-5.4514,-5.4299,-5.4099,-5.4083,-5.3791,-5.3375,-5.3206,-5.3129,-5.3037,-5.2729,-5.2713,-5.2914,-5.3037,-5.316,-5.3468,-5.4114,-5.4776,-5.4822,-5.4329,-5.4468,-5.4791,-5.5114,-5.513,-5.5268,-5.5545,-5.5946,-5.6321,-5.684,-5.7729,-5.8363,-5.8908,-6.021,-6.0861,-6.1152,-6.1854,-6.2398,-6.2398,-6.2398,-6.2398,-6.2398,-6.2398,-6.2398,-6.2398,-6.2398,-6.2398,-6.2398,-6.2364,-6.2398,-6.2279,-6.2042,-6.1755,-6.1738,-6.1061,-6.0503,-5.9979,-5.937,-5.8947,-5.8507,-5.8169,-5.7881,-5.7881,-5.7881,-5.7881,-5.7881,-5.7881,-5.7881,-5.7881,-5.7881,-5.7881,-5.7881,-5.7881,-5.7881,-5.7881,-5.7881,-5.7881,-5.7881,-5.7881,-5.7881,-5.7881,-5.7881,-5.7881,-5.7881,-5.7881,-5.7881,-5.1229,-5.1229,-5.1229,-5.1229,-5.1229,-5.1229,-5.1229,-5.1229,-5.1229,-5.1229,-5.1229,-5.1229,-5.1304,-5.1411,-5.2421,-5.291,-5.2875,-5.4187,-5.4618,-5.4926,-5.5389,-5.5438,-5.5053,-5.5084,-5.4914,-5.4575,-5.4683,-5.4822,-5.4822,-5.4822,-5.4899,-5.5037,-5.4929,-5.4775,-5.4729,-5.4637,-5.4329,-5.3883,-5.3837,-5.3606,-5.3252,-5.3191,-5.3391,-5.376,-5.4022,-5.4268,-5.4853,-5.5407,-5.5545,-5.4991,-5.4945,-5.533,-5.5761,-5.5807,-5.6053,-5.6517,-5.6704,-5.7085,-5.7979,-5.824,-5.8818,-5.9691,-6.0635,-6.1127,-6.1391,-6.1991,-6.2398,-6.2398,-6.2398,-6.2398,-6.2398,-6.2398,-6.2398,-6.2398,-6.2398,-6.2398,-6.2398,-6.2398,-6.2398,-6.2398,-6.2381,-6.2398,-6.2229,-6.1873,-6.1349,-6.0723,-6.0114,-5.9556,-5.9015,-5.8524,-5.8169,-5.7881,-5.7881,-5.7881,-5.7881,-5.7881,-5.7881,-5.7881,-5.7881,-5.7881,-5.7881,-5.7881,-5.7881,-5.7881,-5.7881,-5.7881,-5.7881,-5.7881,-5.7881,-5.7881,-5.7881,-5.7881,-5.7881,-5.7881,-5.7881,-5.1229,-5.1229,-5.1229,-5.1229,-5.1229,-5.1229,-5.1229,-5.1229,-5.1229,-5.1229,-5.1229,-5.1229,-5.1593,-5.2309,-5.2802,-5.334,-5.3998,-5.5018,-5.5698,-5.6315,-5.6423,-5.6532,-5.6284,-5.6223,-5.5699,-5.5191,-5.5299,-5.5484,-5.5484,-5.5545,-5.5776,-5.6146,-5.5699,-5.5484,-5.5453,-5.5099,-5.4652,-5.453,-5.4514,-5.4375,-5.4191,-5.4129,-5.4222,-5.4498,-5.4976,-5.5299,-5.5561,-5.6161,-5.6486,-5.6361,-5.6332,-5.6269,-5.6471,-5.6532,-5.6609,-5.6717,-5.681,-5.7211,-5.8103,-5.8908,-5.9674,-6.0652,-6.1432,-6.2104,-6.2104,-6.2223,-6.2398,-6.2398,-6.2398,-6.2398,-6.2398,-6.2398,-6.2398,-6.2398,-6.2398,-6.2398,-6.2398,-6.2398,-6.2398,-6.2398,-6.2398,-6.2398,-6.2398,-6.2296,-6.1856,-6.14,-6.0842,-6.025,-5.9624,-5.8998,-5.8524,-5.8152,-5.7898,-5.7898,-5.7881,-5.7881,-5.7881,-5.7881,-5.7881,-5.7881,-5.7881,-5.7881,-5.7881,-5.7881,-5.7881,-5.7881,-5.7881,-5.7881,-5.7881,-5.7881,-5.7881,-5.7881,-5.7881,-5.7881,-5.7881,-5.1229,-5.1229,-5.1229,-5.1229,-5.1229,-5.1229,-5.1229,-5.1229,-5.1229,-5.1229,-5.1229,-5.1229,-5.173,-5.2629,-5.3213,-5.3933,-5.4731,-5.5612,-5.628,-5.6684,-5.6794,-5.681,-5.681,-5.6794,-5.6315,-5.5745,-5.5992,-5.6176,-5.6192,-5.6207,-5.6409,-5.6763,-5.6394,-5.627,-5.624,-5.5822,-5.5545,-5.5222,-5.5176,-5.5006,-5.4729,-5.4683,-5.4898,-5.5253,-5.5807,-5.624,-5.6301,-5.6579,-5.6779,-5.681,-5.681,-5.681,-5.681,-5.681,-5.681,-5.681,-5.681,-5.7511,-5.8637,-5.9383,-6.0167,-6.1564,-6.2167,-6.2302,-6.2398,-6.2398,-6.2398,-6.2398,-6.2398,-6.2398,-6.2398,-6.2398,-6.2398,-6.2398,-6.2398,-6.2398,-6.2398,-6.2398,-6.2398,-6.2398,-6.2398,-6.2398,-6.2398,-6.2398,-6.233,-6.1873,-6.1349,-6.0774,-6.0385,-5.9725,-5.8981,-5.8524,-5.8101,-5.7898,-5.7881,-5.7881,-5.7881,-5.7881,-5.7881,-5.7881,-5.7881,-5.7881,-5.7881,-5.7881,-5.7881,-5.7881,-5.7881,-5.7881,-5.7881,-5.7881,-5.7881,-5.7881,-5.7881,-5.7881,-5.7881,-5.1229,-5.1229,-5.1229,-5.1229,-5.1229,-5.1229,-5.1229,-5.1229,-5.1229,-5.1229,-5.1259,-5.1304,-5.2032,-5.2873,-5.3758,-5.4554,-5.5371,-5.5975,-5.6618,-5.6746,-5.681,-5.681,-5.681,-5.6794,-5.6779,-5.681,-5.6733,-5.6733,-5.6733,-5.681,-5.6717,-5.681,-5.6794,-5.6702,-5.6763,-5.6779,-5.644,-5.593,-5.5853,-5.5684,-5.5284,-5.5191,-5.5453,-5.5869,-5.6363,-5.6702,-5.6702,-5.6779,-5.681,-5.681,-5.681,-5.681,-5.681,-5.681,-5.681,-5.681,-5.6987,-5.8027,-5.9418,-6.0082,-6.0915,-6.2533,-6.277,-6.2787,-6.2837,-6.2939,-6.2956,-6.2905,-6.2939,-6.2871,-6.2618,-6.2668,-6.2567,-6.2448,-6.2398,-6.2398,-6.2398,-6.2398,-6.2398,-6.2398,-6.2398,-6.2398,-6.2398,-6.2398,-6.2398,-6.2313,-6.1789,-6.1332,-6.0926,-6.0452,-5.9708,-5.8947,-5.8507,-5.8034,-5.7949,-5.7881,-5.7881,-5.7881,-5.7881,-5.7881,-5.7881,-5.7881,-5.7881,-5.7881,-5.7881,-5.7881,-5.7881,-5.7881,-5.7881,-5.7881,-5.7881,-5.7881,-5.7881,-5.7881,-5.7881,-5.1229,-5.1229,-5.1229,-5.1229,-5.1229,-5.1229,-5.1229,-5.1229,-5.1229,-5.1229,-5.1289,-5.1768,-5.2592,-5.3635,-5.4491,-5.5402,-5.6166,-5.6618,-5.6713,-5.681,-5.681,-5.681,-5.681,-5.681,-5.681,-5.681,-5.681,-5.681,-5.681,-5.681,-5.681,-5.681,-5.681,-5.681,-5.681,-5.681,-5.6763,-5.6548,-5.6517,-5.6394,-5.6269,-5.6238,-5.6317,-5.6532,-5.6733,-5.6794,-5.681,-5.681,-5.681,-5.681,-5.681,-5.681,-5.681,-5.681,-5.681,-5.705,-5.7621,-5.8711,-6.0267,-6.1277,-6.2482,-6.3778,-6.4089,-6.4123,-6.414,-6.414,-6.3954,-6.4038,-6.4021,-6.3937,-6.3396,-6.3243,-6.2973,-6.2651,-6.2415,-6.2398,-6.2398,-6.2398,-6.2398,-6.2398,-6.2398,-6.2398,-6.2398,-6.2398,-6.2398,-6.2398,-6.2161,-6.1755,-6.14,-6.0977,-6.0436,-5.9674,-5.8947,-5.844,-5.8017,-5.7932,-5.7881,-5.7881,-5.7881,-5.7881,-5.7881,-5.7881,-5.7881,-5.7881,-5.7881,-5.7881,-5.7881,-5.7881,-5.7881,-5.7881,-5.7881,-5.7881,-5.7881,-5.7881,-5.7881,-5.1229,-5.1229,-5.1229,-5.1229,-5.1229,-5.1229,-5.1229,-5.1229,-5.1229,-5.1229,-5.1304,-5.1588,-5.2547,-5.3743,-5.4279,-5.5282,-5.6449,-5.681,-5.681,-5.681,-5.681,-5.681,-5.681,-5.681,-5.681,-5.681,-5.681,-5.681,-5.681,-5.681,-5.681,-5.681,-5.681,-5.681,-5.681,-5.681,-5.681,-5.681,-5.681,-5.681,-5.681,-5.681,-5.681,-5.681,-5.681,-5.681,-5.681,-5.681,-5.681,-5.681,-5.681,-5.681,-5.681,-5.6858,-5.7035,-5.7589,-5.8341,-5.9594,-6.1175,-6.22,-6.3249,-6.4315,-6.463,-6.4597,-6.4597,-6.4546,-6.4681,-6.4647,-6.4597,-6.4461,-6.4089,-6.3802,-6.3362,-6.3024,-6.2668,-6.2448,-6.2415,-6.2415,-6.2398,-6.2398,-6.2398,-6.2398,-6.2398,-6.2398,-6.2398,-6.2398,-6.2398,-6.2144,-6.1806,-6.1434,-6.1011,-6.0368,-5.959,-5.8879,-5.8389,-5.8169,-5.7949,-5.7881,-5.7881,-5.7881,-5.7881,-5.7881,-5.7881,-5.7881,-5.7881,-5.7881,-5.7881,-5.7881,-5.7881,-5.7881,-5.7881,-5.7881,-5.7881,-5.7881,-5.7881,-5.1229,-5.1229,-5.1229,-5.1229,-5.1229,-5.1229,-5.1229,-5.1229,-5.1229,-5.1229,-5.1244,-5.1454,-5.2427,-5.3776,-5.4592,-5.5457,-5.681,-5.681,-5.681,-5.681,-5.681,-5.681,-5.681,-5.681,-5.681,-5.681,-5.681,-5.681,-5.681,-5.681,-5.681,-5.681,-5.681,-5.681,-5.681,-5.681,-5.681,-5.681,-5.681,-5.681,-5.681,-5.681,-5.681,-5.681,-5.681,-5.681,-5.681,-5.681,-5.681,-5.681,-5.681,-5.681,-5.681,-5.6987,-5.7589,-5.8541,-5.9247,-6.0582,-6.2196,-6.3348,-6.4262,-6.5215,-6.5121,-6.5087,-6.5138,-6.529,-6.5172,-6.5053,-6.5104,-6.5036,-6.4833,-6.4343,-6.3971,-6.3599,-6.3108,-6.2618,-6.2634,-6.2584,-6.2415,-6.2398,-6.2398,-6.2398,-6.2398,-6.2398,-6.2398,-6.2398,-6.2398,-6.2398,-6.2093,-6.189,-6.1484,-6.096,-6.025,-5.9421,-5.8879,-5.849,-5.8203,-5.7898,-5.7881,-5.7881,-5.7881,-5.7881,-5.7881,-5.7881,-5.7881,-5.7881,-5.7881,-5.7881,-5.7881,-5.7881,-5.7881,-5.7881,-5.7881,-5.7881,-5.7881,-5.1229,-5.1229,-5.1229,-5.1229,-5.1229,-5.1229,-5.1229,-5.1229,-5.1229,-5.1229,-5.1259,-5.1845,-5.2745,-5.4099,-5.5691,-5.6451,-5.673,-5.681,-5.681,-5.681,-5.681,-5.681,-5.681,-5.681,-5.681,-5.681,-5.681,-5.681,-5.681,-5.681,-5.681,-5.681,-5.681,-5.681,-5.681,-5.681,-5.681,-5.681,-5.681,-5.681,-5.681,-5.681,-5.681,-5.681,-5.681,-5.681,-5.681,-5.681,-5.681,-5.681,-5.681,-5.681,-5.6906,-5.7621,-5.8866,-5.9868,-6.072,-6.1576,-6.363,-6.4765,-6.5455,-6.6094,-6.6356,-6.6508,-6.6322,-6.6305,-6.6305,-6.6542,-6.6457,-6.6136,-6.5662,-6.5425,-6.507,-6.4495,-6.3835,-6.3446,-6.326,-6.2871,-6.2685,-6.2398,-6.2398,-6.2398,-6.2398,-6.2398,-6.2398,-6.2398,-6.2398,-6.2398,-6.2364,-6.2144,-6.1975,-6.1484,-6.0892,-6.0097,-5.9624,-5.9201,-5.8778,-5.8271,-5.8084,-5.8051,-5.8068,-5.8084,-5.7881,-5.7881,-5.7881,-5.7881,-5.7881,-5.7881,-5.7881,-5.7881,-5.7881,-5.7881,-5.7881,-5.7881,-5.7881,-5.0838,-5.1229,-5.1229,-5.1229,-5.1229,-5.1229,-5.1229,-5.1229,-5.1229,-5.1229,-5.1306,-5.1625,-5.2723,-5.4243,-5.5633,-5.6377,-5.6733,-5.681,-5.681,-5.681,-5.681,-5.681,-5.681,-5.681,-5.681,-5.681,-5.681,-5.681,-5.681,-5.681,-5.681,-5.681,-5.681,-5.681,-5.681,-5.681,-5.681,-5.681,-5.681,-5.681,-5.681,-5.681,-5.681,-5.681,-5.681,-5.681,-5.681,-5.681,-5.681,-5.681,-5.681,-5.7083,-5.7636,-5.8482,-5.9743,-6.1945,-6.2552,-6.3484,-6.4899,-6.5842,-6.6398,-6.666,-6.6812,-6.6762,-6.6812,-6.6812,-6.6812,-6.6795,-6.6812,-6.6626,-6.6271,-6.5933,-6.5595,-6.5121,-6.458,-6.3988,-6.3649,-6.3328,-6.3007,-6.2685,-6.2398,-6.2398,-6.2398,-6.2398,-6.2398,-6.2398,-6.2398,-6.2398,-6.2398,-6.233,-6.2195,-6.2042,-6.1434,-6.0757,-6.0419,-6.0063,-5.9708,-5.9218,-5.8676,-5.8626,-5.8473,-5.8372,-5.8051,-5.7881,-5.7881,-5.7881,-5.7881,-5.7881,-5.7881,-5.7881,-5.7881,-5.7881,-5.7881,-5.7881,-5.7881,-5.048,-5.0928,-5.1154,-5.1229,-5.1229,-5.1229,-5.1229,-5.1229,-5.1229,-5.1229,-5.1383,-5.1767,-5.2852,-5.4125,-5.5157,-5.6023,-5.6517,-5.6717,-5.6794,-5.681,-5.681,-5.681,-5.681,-5.681,-5.681,-5.681,-5.681,-5.681,-5.681,-5.681,-5.681,-5.681,-5.681,-5.681,-5.681,-5.681,-5.681,-5.681,-5.681,-5.681,-5.681,-5.681,-5.681,-5.681,-5.681,-5.681,-5.681,-5.681,-5.681,-5.681,-5.681,-5.7178,-5.8012,-5.9135,-6.0686,-6.2688,-6.3733,-6.4864,-6.5741,-6.6415,-6.6762,-6.6812,-6.6812,-6.6812,-6.6812,-6.6812,-6.6812,-6.6812,-6.6812,-6.6812,-6.6711,-6.6271,-6.6119,-6.5781,-6.5324,-6.4597,-6.392,-6.3616,-6.3142,-6.2634,-6.2398,-6.2398,-6.2398,-6.2398,-6.2398,-6.2398,-6.2398,-6.2398,-6.2398,-6.2398,-6.2347,-6.2229,-6.1992,-6.1366,-6.0977,-6.0706,-6.0419,-6.008,-5.9539,-5.9082,-5.8863,-5.8423,-5.7966,-5.7881,-5.7881,-5.7881,-5.7881,-5.7881,-5.7881,-5.7881,-5.7881,-5.7881,-5.7881,-5.7881,-5.7881,-5.0211,-5.0315,-5.096,-5.1214,-5.1229,-5.1229,-5.1229,-5.1229,-5.1229,-5.1229,-5.1445,-5.2315,-5.2946,-5.3744,-5.485,-5.5669,-5.5822,-5.6517,-5.6748,-5.681,-5.681,-5.681,-5.681,-5.681,-5.681,-5.681,-5.681,-5.681,-5.681,-5.681,-5.681,-5.681,-5.681,-5.681,-5.681,-5.681,-5.681,-5.681,-5.681,-5.681,-5.681,-5.681,-5.681,-5.681,-5.681,-5.681,-5.681,-5.681,-5.681,-5.681,-5.681,-5.7211,-5.8229,-5.9738,-6.1438,-6.295,-6.4748,-6.5766,-6.6466,-6.6677,-6.6779,-6.6812,-6.6812,-6.6812,-6.6812,-6.6812,-6.6812,-6.6812,-6.6812,-6.6812,-6.6812,-6.6745,-6.6559,-6.6356,-6.5865,-6.5189,-6.4495,-6.3886,-6.3379,-6.2668,-6.2398,-6.2398,-6.2398,-6.2398,-6.2398,-6.2398,-6.2398,-6.2398,-6.2398,-6.2398,-6.2398,-6.2364,-6.2364,-6.1975,-6.1434,-6.118,-6.1112,-6.0689,-6.0131,-5.959,-5.9133,-5.8609,-5.8152,-5.7881,-5.7881,-5.7881,-5.7881,-5.7881,-5.7881,-5.7881,-5.7881,-5.7881,-5.7881,-5.7881,-5.7881,-4.9508,-5.0196,-5.0465,-5.0794,-5.1229,-5.1229,-5.1229,-5.1229,-5.1229,-5.1416,-5.171,-5.2291,-5.2948,-5.3684,-5.4498,-5.5345,-5.5761,-5.6486,-5.6717,-5.681,-5.681,-5.681,-5.681,-5.681,-5.681,-5.681,-5.681,-5.681,-5.681,-5.681,-5.681,-5.681,-5.681,-5.681,-5.681,-5.681,-5.681,-5.681,-5.681,-5.681,-5.681,-5.681,-5.681,-5.681,-5.681,-5.681,-5.681,-5.681,-5.681,-5.681,-5.681,-5.7353,-5.8354,-6.016,-6.1811,-6.3272,-6.5135,-6.6323,-6.6694,-6.6812,-6.6812,-6.6812,-6.6812,-6.6812,-6.6812,-6.6812,-6.6812,-6.6812,-6.6812,-6.6812,-6.6812,-6.6812,-6.6762,-6.6728,-6.6373,-6.5713,-6.5019,-6.436,-6.3599,-6.2871,-6.2533,-6.2398,-6.2398,-6.2398,-6.2398,-6.2398,-6.2398,-6.2398,-6.2398,-6.2398,-6.2398,-6.2398,-6.2398,-6.2398,-6.1907,-6.1823,-6.1806,-6.1298,-6.0723,-6.0148,-5.959,-5.9066,-5.8626,-5.8254,-5.7881,-5.7881,-5.7881,-5.7881,-5.7881,-5.7881,-5.7881,-5.7881,-5.7881,-5.7881,-5.7881,-4.882,-4.9673,-5.0031,-5.0569,-5.1184,-5.1229,-5.1229,-5.1214,-5.1308,-5.1587,-5.2063,-5.2291,-5.2687,-5.3422,-5.4129,-5.4791,-5.5391,-5.6038,-5.6548,-5.6733,-5.681,-5.681,-5.681,-5.681,-5.681,-5.681,-5.681,-5.681,-5.681,-5.681,-5.681,-5.681,-5.681,-5.681,-5.681,-5.681,-5.681,-5.681,-5.681,-5.681,-5.681,-5.681,-5.681,-5.681,-5.681,-5.681,-5.681,-5.681,-5.681,-5.681,-5.6906,-5.7306,-5.8669,-6.0318,-6.2056,-6.362,-6.5193,-6.672,-6.6812,-6.6812,-6.6812,-6.6812,-6.6812,-6.6812,-6.6812,-6.6812,-6.6812,-6.6812,-6.6812,-6.6812,-6.6812,-6.6812,-6.6812,-6.6779,-6.6779,-6.622,-6.5392,-6.4664,-6.3835,-6.3074,-6.277,-6.2398,-6.2398,-6.2398,-6.2398,-6.2398,-6.2398,-6.2398,-6.2398,-6.2398,-6.2398,-6.2398,-6.2398,-6.2398,-6.2364,-6.2212,-6.2059,-6.189,-6.1315,-6.0689,-6.0131,-5.9556,-5.8812,-5.8169,-5.7881,-5.7881,-5.7881,-5.7881,-5.7881,-5.7881,-5.7881,-5.7881,-5.7881,-5.7881,-5.7881,-4.8312,-4.8476,-4.9628,-5.0495,-5.1124,-5.1229,-5.1229,-5.1261,-5.1541,-5.1849,-5.2261,-5.2306,-5.2473,-5.2945,-5.3622,-5.4222,-5.476,-5.5422,-5.6023,-5.6469,-5.6546,-5.6717,-5.681,-5.681,-5.681,-5.681,-5.681,-5.681,-5.681,-5.681,-5.681,-5.681,-5.681,-5.681,-5.681,-5.681,-5.681,-5.681,-5.681,-5.681,-5.681,-5.681,-5.681,-5.681,-5.681,-5.681,-5.681,-5.681,-5.681,-5.681,-5.681,-5.7258,-5.8323,-6.0527,-6.2138,-6.3272,-6.5479,-6.6644,-6.6812,-6.6812,-6.6812,-6.6812,-6.6812,-6.6812,-6.6812,-6.6812,-6.6812,-6.6812,-6.6812,-6.6812,-6.6812,-6.6812,-6.6812,-6.6812,-6.6812,-6.6508,-6.5645,-6.4884,-6.4055,-6.3277,-6.277,-6.2398,-6.2398,-6.2398,-6.2398,-6.2398,-6.2398,-6.2398,-6.2398,-6.2398,-6.2398,-6.2398,-6.2398,-6.2398,-6.2398,-6.2398,-6.2296,-6.2195,-6.1839,-6.118,-6.0436,-5.9708,-5.8947,-5.8118,-5.7881,-5.7881,-5.7881,-5.7881,-5.7881,-5.7881,-5.7881,-5.7881,-5.7881,-5.7881,-5.7881,-4.7893,-4.8327,-4.876,-4.9659,-5.074,-5.1081,-5.1308,-5.1526,-5.1895,-5.217,-5.2306,-5.2457,-5.2608,-5.2884,-5.3345,-5.3852,-5.4145,-5.4714,-5.5422,-5.5992,-5.6099,-5.6407,-5.664,-5.6779,-5.681,-5.681,-5.681,-5.681,-5.681,-5.681,-5.681,-5.681,-5.681,-5.681,-5.681,-5.681,-5.681,-5.681,-5.681,-5.681,-5.681,-5.681,-5.681,-5.681,-5.681,-5.681,-5.681,-5.681,-5.6906,-5.6939,-5.6939,-5.7433,-5.8509,-6.0586,-6.2215,-6.3438,-6.5412,-6.6736,-6.6812,-6.6812,-6.6812,-6.6812,-6.6812,-6.6812,-6.6812,-6.6812,-6.6812,-6.6812,-6.6812,-6.6812,-6.6812,-6.6812,-6.6812,-6.6812,-6.6728,-6.6373,-6.5713,-6.5002,-6.4241,-6.3497,-6.2888,-6.2533,-6.2398,-6.2398,-6.2398,-6.2398,-6.2398,-6.2398,-6.2398,-6.2398,-6.2398,-6.2398,-6.2398,-6.2398,-6.2398,-6.2398,-6.2398,-6.2313,-6.2026,-6.1569,-6.0791,-5.9877,-5.9032,-5.8186,-5.8017,-5.7881,-5.7881,-5.7881,-5.7881,-5.7881,-5.7881,-5.7881,-5.7881,-5.7881,-5.7881,-4.7563,-4.7952,-4.8192,-4.8835,-4.987,-5.0634,-5.13,-5.1819,-5.217,-5.2352,-5.2457,-5.2624,-5.2713,-5.2852,-5.3129,-5.3591,-5.3729,-5.4099,-5.4698,-5.533,-5.5653,-5.5961,-5.6347,-5.6671,-5.6794,-5.681,-5.681,-5.681,-5.681,-5.681,-5.681,-5.681,-5.681,-5.681,-5.681,-5.681,-5.681,-5.681,-5.681,-5.681,-5.681,-5.681,-5.681,-5.681,-5.681,-5.681,-5.6906,-5.7035,-5.7258,-5.729,-5.7606,-5.801,-5.9202,-6.0769,-6.2431,-6.3683,-6.5286,-6.6593,-6.6812,-6.6812,-6.6812,-6.6812,-6.6812,-6.6812,-6.6812,-6.6812,-6.6812,-6.6812,-6.6812,-6.6812,-6.6812,-6.6812,-6.6812,-6.6812,-6.6711,-6.6373,-6.5764,-6.5053,-6.4326,-6.3599,-6.2905,-6.2601,-6.2398,-6.2398,-6.2398,-6.2398,-6.2398,-6.2398,-6.2398,-6.2398,-6.2398,-6.2398,-6.2398,-6.2398,-6.2398,-6.2398,-6.2398,-6.2398,-6.2127,-6.1806,-6.0858,-5.9911,-5.9082,-5.8338,-5.8068,-5.7881,-5.7881,-5.7881,-5.7881,-5.7881,-5.7881,-5.7881,-5.7881,-5.7881,-5.7881,-4.7309,-4.7399,-4.7982,-4.8282,-4.8625,-5.008,-5.1319,-5.223,-5.2291,-5.2457,-5.2713,-5.2669,-5.2713,-5.2713,-5.276,-5.3083,-5.3498,-5.3668,-5.4114,-5.4653,-5.5084,-5.5468,-5.5915,-5.6378,-5.6625,-5.6763,-5.681,-5.681,-5.681,-5.681,-5.681,-5.681,-5.681,-5.681,-5.681,-5.681,-5.681,-5.681,-5.681,-5.681,-5.681,-5.681,-5.681,-5.681,-5.681,-5.681,-5.7035,-5.7433,-5.7887,-5.8333,-5.8908,-5.9339,-6.0348,-6.1916,-6.2729,-6.3948,-6.5733,-6.6331,-6.6812,-6.6812,-6.6812,-6.6812,-6.6812,-6.6812,-6.6812,-6.6812,-6.6812,-6.6812,-6.6812,-6.6812,-6.6812,-6.6812,-6.6812,-6.6812,-6.6812,-6.6356,-6.5747,-6.5053,-6.4326,-6.3599,-6.2854,-6.2482,-6.2415,-6.2398,-6.2398,-6.2398,-6.2398,-6.2398,-6.2398,-6.2398,-6.2398,-6.2398,-6.2398,-6.2398,-6.2398,-6.2398,-6.2398,-6.2398,-6.2313,-6.1941,-6.0943,-5.9945,-5.9184,-5.8524,-5.8068,-5.7881,-5.7881,-5.7881,-5.7881,-5.7881,-5.7881,-5.7881,-5.7881,-5.7881,-5.7881,-4.7309,-4.7324,-4.7519,-4.7935,-4.8755,-5.0378,-5.156,-5.2245,-5.2503,-5.2669,-5.2713,-5.2713,-5.2713,-5.2713,-5.2713,-5.2867,-5.296,-5.3098,-5.3452,-5.3914,-5.436,-5.4945,-5.5468,-5.593,-5.6347,-5.6656,-5.6794,-5.681,-5.681,-5.681,-5.681,-5.681,-5.681,-5.681,-5.681,-5.681,-5.681,-5.681,-5.681,-5.681,-5.681,-5.681,-5.681,-5.681,-5.681,-5.681,-5.7131,-5.7793,-5.8241,-5.8517,-5.9161,-5.9778,-6.075,-6.1855,-6.2805,-6.4825,-6.5782,-6.6187,-6.6677,-6.6812,-6.6812,-6.6812,-6.6812,-6.6812,-6.6812,-6.6812,-6.6812,-6.6812,-6.6812,-6.6812,-6.6812,-6.6812,-6.6812,-6.6812,-6.6745,-6.6339,-6.5713,-6.4986,-6.4258,-6.3429,-6.2685,-6.2465,-6.2415,-6.2398,-6.2398,-6.2398,-6.2398,-6.2398,-6.2398,-6.2398,-6.2398,-6.2398,-6.2398,-6.2398,-6.2398,-6.2398,-6.2398,-6.2381,-6.2313,-6.1907,-6.074,-5.9827,-5.9218,-5.8626,-5.8051,-5.7881,-5.7881,-5.7881,-5.7881,-5.7881,-5.7881,-5.7881,-5.7881,-5.7881,-5.7881,-4.707,-4.7294,-4.7309,-4.7842,-4.8868,-4.9904,-5.0856,-5.1661,-5.2378,-5.2713,-5.2713,-5.2713,-5.2713,-5.2713,-5.2713,-5.2729,-5.2744,-5.2806,-5.3021,-5.3237,-5.3591,-5.416,-5.4791,-5.5453,-5.593,-5.6347,-5.6656,-5.681,-5.681,-5.681,-5.681,-5.681,-5.681,-5.681,-5.681,-5.681,-5.681,-5.681,-5.681,-5.681,-5.681,-5.681,-5.681,-5.681,-5.681,-5.6954,-5.7401,-5.8195,-5.8802,-5.9339,-6.021,-6.0903,-6.1671,-6.233,-6.3182,-6.4937,-6.5578,-6.5882,-6.6271,-6.6677,-6.6762,-6.6812,-6.6779,-6.6812,-6.6812,-6.6812,-6.6812,-6.6812,-6.6812,-6.6812,-6.6812,-6.6812,-6.6812,-6.6812,-6.6576,-6.6322,-6.5645,-6.4918,-6.4089,-6.321,-6.2753,-6.2499,-6.2398,-6.2398,-6.2398,-6.2398,-6.2398,-6.2398,-6.2398,-6.2398,-6.2398,-6.2398,-6.2398,-6.2398,-6.2398,-6.2398,-6.2398,-6.2398,-6.2381,-6.1772,-6.0571,-5.981,-5.9268,-5.8626,-5.7949,-5.7881,-5.7881,-5.7881,-5.7881,-5.7881,-5.7881,-5.7881,-5.7881,-5.7881,-5.7881,-4.6666,-4.7219,-4.7294,-4.7927,-4.8845,-4.9083,-4.9695,-5.0743,-5.2006,-5.2606,-5.259,-5.2683,-5.2713,-5.2713,-5.2713,-5.2713,-5.2713,-5.2729,-5.2744,-5.2744,-5.3191,-5.3729,-5.4222,-5.4868,-5.5284,-5.5745,-5.6192,-5.6594,-5.6779,-5.681,-5.681,-5.681,-5.681,-5.681,-5.681,-5.681,-5.681,-5.681,-5.681,-5.681,-5.681,-5.681,-5.681,-5.681,-5.6906,-5.7178,-5.8103,-5.9072,-6.0022,-6.0945,-6.1692,-6.2206,-6.2482,-6.2786,-6.366,-6.4268,-6.4918,-6.529,-6.5611,-6.6,-6.6305,-6.6457,-6.6677,-6.6592,-6.6508,-6.6745,-6.6812,-6.6812,-6.6812,-6.6812,-6.6812,-6.6812,-6.6812,-6.6694,-6.6457,-6.5916,-6.5155,-6.4377,-6.3514,-6.2821,-6.2618,-6.2398,-6.2398,-6.2398,-6.2398,-6.2398,-6.2398,-6.2398,-6.2398,-6.2398,-6.2398,-6.2398,-6.2398,-6.2398,-6.2398,-6.2398,-6.2398,-6.2398,-6.2398,-6.1653,-6.0452,-5.9827,-5.9353,-5.8609,-5.7881,-5.7881,-5.7881,-5.7881,-5.7881,-5.7881,-5.7881,-5.7881,-5.7881,-5.7881,-5.7881,-4.6369,-4.6606,-4.7257,-4.783,-4.8311,-4.8953,-4.9472,-5.0051,-5.1359,-5.1929,-5.2036,-5.2452,-5.2713,-5.2713,-5.2713,-5.2713,-5.2713,-5.2713,-5.2713,-5.2729,-5.2991,-5.3298,-5.3637,-5.4145,-5.4545,-5.5053,-5.5607,-5.6255,-5.6609,-5.6733,-5.6794,-5.681,-5.681,-5.681,-5.681,-5.681,-5.681,-5.681,-5.681,-5.681,-5.681,-5.681,-5.681,-5.681,-5.6906,-5.7353,-5.8241,-5.9116,-6.0022,-6.0945,-6.1911,-6.2302,-6.2431,-6.2601,-6.3057,-6.3666,-6.4038,-6.4427,-6.4816,-6.5155,-6.5358,-6.5476,-6.5611,-6.5848,-6.6102,-6.6542,-6.6779,-6.6779,-6.6812,-6.6812,-6.6812,-6.6812,-6.6728,-6.6525,-6.6288,-6.5493,-6.4664,-6.3768,-6.2905,-6.2651,-6.2448,-6.2398,-6.2398,-6.2398,-6.2398,-6.2398,-6.2398,-6.2398,-6.2398,-6.2398,-6.2398,-6.2398,-6.2398,-6.2398,-6.2398,-6.2398,-6.2398,-6.2398,-6.2398,-6.1467,-6.0351,-5.9573,-5.8896,-5.8372,-5.7881,-5.7881,-5.7881,-5.7881,-5.7881,-5.7881,-5.7881,-5.7881,-5.7881,-5.7881,-5.7881,-4.5741,-4.6381,-4.7239,-4.7752,-4.8083,-4.863,-4.8979,-4.9404,-5.0359,-5.099,-5.1421,-5.2206,-5.2713,-5.2713,-5.2713,-5.2713,-5.2713,-5.2713,-5.2713,-5.2713,-5.2744,-5.2944,-5.3237,-5.3545,-5.3929,-5.4422,-5.4991,-5.5592,-5.6192,-5.6315,-5.6315,-5.6702,-5.6779,-5.6794,-5.6794,-5.681,-5.681,-5.681,-5.681,-5.681,-5.681,-5.681,-5.681,-5.681,-5.6954,-5.7527,-5.8546,-5.9471,-6.0338,-6.1251,-6.2167,-6.2358,-6.2398,-6.2448,-6.2618,-6.3007,-6.3362,-6.3643,-6.4055,-6.4326,-6.4478,-6.4664,-6.485,-6.5205,-6.5205,-6.5628,-6.6237,-6.6322,-6.6745,-6.6812,-6.6812,-6.6812,-6.6474,-6.6187,-6.5899,-6.5324,-6.4292,-6.3243,-6.2736,-6.2516,-6.2398,-6.2398,-6.2398,-6.2398,-6.2398,-6.2398,-6.2398,-6.2398,-6.2398,-6.2398,-6.2398,-6.2398,-6.2398,-6.2398,-6.2398,-6.2398,-6.2398,-6.2398,-6.2398,-6.145,-6.0419,-5.9285,-5.8389,-5.8068,-5.7881,-5.7881,-5.7881,-5.7881,-5.7881,-5.7881,-5.7881,-5.7881,-5.7881,-5.7881,-5.7881,-4.5098,-4.6322,-4.7177,-4.7734,-4.8022,-4.826,-4.8484,-4.8732,-4.9404,-5.0112,-5.0851,-5.2036,-5.2529,-5.2698,-5.2713,-5.2713,-5.2713,-5.2713,-5.2713,-5.2713,-5.2713,-5.2806,-5.2991,-5.3252,-5.356,-5.3899,-5.4376,-5.4961,-5.5561,-5.5622,-5.5884,-5.6532,-5.6702,-5.6717,-5.6779,-5.681,-5.681,-5.681,-5.681,-5.681,-5.681,-5.681,-5.681,-5.681,-5.6939,-5.7731,-5.8847,-5.9691,-6.0466,-6.1473,-6.2223,-6.2398,-6.2398,-6.2398,-6.2415,-6.2668,-6.2956,-6.321,-6.3446,-6.3785,-6.4005,-6.4241,-6.4394,-6.4478,-6.4478,-6.485,-6.5459,-6.5831,-6.6271,-6.6457,-6.6457,-6.6389,-6.6,-6.5662,-6.5324,-6.4901,-6.3768,-6.2804,-6.2601,-6.2398,-6.2398,-6.2398,-6.2398,-6.2398,-6.2398,-6.2398,-6.2398,-6.2398,-6.2398,-6.2398,-6.2398,-6.2398,-6.2398,-6.2398,-6.2398,-6.2398,-6.2398,-6.2398,-6.2279,-6.1417,-6.0436,-5.915,-5.8287,-5.8017,-5.7881,-5.7881,-5.7881,-5.7881,-5.7881,-5.7881,-5.7881,-5.7881,-5.7881,-5.7881,-5.7881,-4.5095,-4.6337,-4.6879,-4.7463,-4.7973,-4.837,-4.8578,-4.8743,-4.9358,-5.0066,-5.0713,-5.1467,-5.2159,-5.2698,-5.2713,-5.2713,-5.2713,-5.2713,-5.2713,-5.2713,-5.2713,-5.2713,-5.2775,-5.2975,-5.3252,-5.356,-5.3822,-5.4237,-5.4807,-5.4945,-5.5253,-5.5853,-5.593,-5.624,-5.6763,-5.6794,-5.681,-5.681,-5.681,-5.681,-5.681,-5.681,-5.681,-5.681,-5.681,-5.7527,-5.8149,-5.8425,-5.9603,-6.0861,-6.1991,-6.2302,-6.2398,-6.2398,-6.2398,-6.2415,-6.2702,-6.2719,-6.2939,-6.3057,-6.3226,-6.3193,-6.3362,-6.3717,-6.3852,-6.4191,-6.4597,-6.4698,-6.5019,-6.5121,-6.5155,-6.5239,-6.5002,-6.4698,-6.4394,-6.3734,-6.2837,-6.2584,-6.2465,-6.2398,-6.2398,-6.2398,-6.2398,-6.2398,-6.2398,-6.2398,-6.2398,-6.2398,-6.2398,-6.2398,-6.2398,-6.2398,-6.2398,-6.2398,-6.2398,-6.2398,-6.2398,-6.2398,-6.2127,-6.1231,-6.0182,-5.8896,-5.8186,-5.7966,-5.7881,-5.7881,-5.7881,-5.7881,-5.7881,-5.7881,-5.7881,-5.7881,-5.7881,-5.7881,-5.7881]}]]